<?xml version="1.0" encoding="UTF-8" standalone="no" ?>
<gpx xmlns="http://www.topografix.com/GPX/1/1" xmlns:xsi="http://www.w3.org/2001/XMLSchema-instance" xsi:schemaLocation="http://www.topografix.com/GPX/1/1 http://www.topografix.com/GPX/1/1/gpx.xsd" version="1.1" creator="VisuGPX - https://www.visugpx.com">
  <metadata>
    <name>Cote Ronde 2 Couloirs Est</name>
    <desc><![CDATA[grp_trc:]]></desc>
  </metadata>
  <trk>
    <name><![CDATA[Cote Ronde Est]]></name>
    <cmt><![CDATA[10:55:30]]></cmt>
    <desc><![CDATA[comment ...]]></desc>
    <trkseg>
      <trkpt lat="44.48447" lon="6.55022">
        <ele>1685</ele>
        <time>2020-02-23T09:55:31Z</time>
      </trkpt>
      <trkpt lat="44.48446" lon="6.55022">
        <ele>1685</ele>
        <time>2020-02-23T09:55:32Z</time>
      </trkpt>
      <trkpt lat="44.48441" lon="6.55021">
        <ele>1683</ele>
        <time>2020-02-23T09:55:38Z</time>
      </trkpt>
      <trkpt lat="44.48438" lon="6.55022">
        <ele>1683</ele>
        <time>2020-02-23T09:55:40Z</time>
      </trkpt>
      <trkpt lat="44.48436" lon="6.55023">
        <ele>1683</ele>
        <time>2020-02-23T09:55:42Z</time>
      </trkpt>
      <trkpt lat="44.48433" lon="6.55022">
        <ele>1683</ele>
        <time>2020-02-23T09:55:45Z</time>
      </trkpt>
      <trkpt lat="44.48432" lon="6.55018">
        <ele>1684</ele>
        <time>2020-02-23T09:56:12Z</time>
      </trkpt>
      <trkpt lat="44.4843" lon="6.55018">
        <ele>1686</ele>
        <time>2020-02-23T09:56:17Z</time>
      </trkpt>
      <trkpt lat="44.48428" lon="6.55017">
        <ele>1686</ele>
        <time>2020-02-23T09:56:19Z</time>
      </trkpt>
      <trkpt lat="44.48425" lon="6.55019">
        <ele>1686</ele>
        <time>2020-02-23T09:56:23Z</time>
      </trkpt>
      <trkpt lat="44.48422" lon="6.55018">
        <ele>1686</ele>
        <time>2020-02-23T09:56:25Z</time>
      </trkpt>
      <trkpt lat="44.48404" lon="6.55018">
        <ele>1682</ele>
        <time>2020-02-23T09:56:40Z</time>
      </trkpt>
      <trkpt lat="44.48402" lon="6.5502">
        <ele>1682</ele>
        <time>2020-02-23T09:56:44Z</time>
      </trkpt>
      <trkpt lat="44.484" lon="6.55018">
        <ele>1682</ele>
        <time>2020-02-23T09:56:46Z</time>
      </trkpt>
      <trkpt lat="44.48395" lon="6.55017">
        <ele>1682</ele>
        <time>2020-02-23T09:56:48Z</time>
      </trkpt>
      <trkpt lat="44.48356" lon="6.55013">
        <ele>1680</ele>
        <time>2020-02-23T09:57:19Z</time>
      </trkpt>
      <trkpt lat="44.48353" lon="6.55013">
        <ele>1679</ele>
        <time>2020-02-23T09:57:21Z</time>
      </trkpt>
      <trkpt lat="44.4834" lon="6.55016">
        <ele>1678</ele>
        <time>2020-02-23T09:57:29Z</time>
      </trkpt>
      <trkpt lat="44.48335" lon="6.55016">
        <ele>1678</ele>
        <time>2020-02-23T09:57:33Z</time>
      </trkpt>
      <trkpt lat="44.48317" lon="6.55021">
        <ele>1678</ele>
        <time>2020-02-23T09:57:46Z</time>
      </trkpt>
      <trkpt lat="44.48305" lon="6.5502">
        <ele>1682</ele>
        <time>2020-02-23T09:58:05Z</time>
      </trkpt>
      <trkpt lat="44.48278" lon="6.55029">
        <ele>1679</ele>
        <time>2020-02-23T09:58:24Z</time>
      </trkpt>
      <trkpt lat="44.48277" lon="6.55031">
        <ele>1679</ele>
        <time>2020-02-23T09:58:26Z</time>
      </trkpt>
      <trkpt lat="44.48255" lon="6.55036">
        <ele>1684</ele>
        <time>2020-02-23T09:58:44Z</time>
      </trkpt>
      <trkpt lat="44.4825" lon="6.55036">
        <ele>1682</ele>
        <time>2020-02-23T09:58:48Z</time>
      </trkpt>
      <trkpt lat="44.48244" lon="6.55038">
        <ele>1681</ele>
        <time>2020-02-23T09:58:53Z</time>
      </trkpt>
      <trkpt lat="44.48236" lon="6.55037">
        <ele>1680</ele>
        <time>2020-02-23T09:59:00Z</time>
      </trkpt>
      <trkpt lat="44.48234" lon="6.55039">
        <ele>1680</ele>
        <time>2020-02-23T09:59:19Z</time>
      </trkpt>
      <trkpt lat="44.48219" lon="6.55042">
        <ele>1680</ele>
        <time>2020-02-23T09:59:29Z</time>
      </trkpt>
      <trkpt lat="44.48209" lon="6.55041">
        <ele>1677</ele>
        <time>2020-02-23T09:59:35Z</time>
      </trkpt>
      <trkpt lat="44.48203" lon="6.55035">
        <ele>1678</ele>
        <time>2020-02-23T09:59:40Z</time>
      </trkpt>
      <trkpt lat="44.482" lon="6.55034">
        <ele>1678</ele>
        <time>2020-02-23T09:59:42Z</time>
      </trkpt>
      <trkpt lat="44.48195" lon="6.5503">
        <ele>1677</ele>
        <time>2020-02-23T09:59:46Z</time>
      </trkpt>
      <trkpt lat="44.48192" lon="6.55032">
        <ele>1678</ele>
        <time>2020-02-23T09:59:51Z</time>
      </trkpt>
      <trkpt lat="44.48189" lon="6.55032">
        <ele>1679</ele>
        <time>2020-02-23T09:59:53Z</time>
      </trkpt>
      <trkpt lat="44.48185" lon="6.55029">
        <ele>1680</ele>
        <time>2020-02-23T09:59:55Z</time>
      </trkpt>
      <trkpt lat="44.48182" lon="6.55029">
        <ele>1680</ele>
        <time>2020-02-23T09:59:58Z</time>
      </trkpt>
      <trkpt lat="44.48179" lon="6.55028">
        <ele>1679</ele>
        <time>2020-02-23T10:00:00Z</time>
      </trkpt>
      <trkpt lat="44.48175" lon="6.55027">
        <ele>1678</ele>
        <time>2020-02-23T10:00:02Z</time>
      </trkpt>
      <trkpt lat="44.48165" lon="6.55025">
        <ele>1677</ele>
        <time>2020-02-23T10:00:12Z</time>
      </trkpt>
      <trkpt lat="44.48162" lon="6.55025">
        <ele>1677</ele>
        <time>2020-02-23T10:00:14Z</time>
      </trkpt>
      <trkpt lat="44.48146" lon="6.55018">
        <ele>1677</ele>
        <time>2020-02-23T10:00:33Z</time>
      </trkpt>
      <trkpt lat="44.48141" lon="6.55018">
        <ele>1678</ele>
        <time>2020-02-23T10:00:37Z</time>
      </trkpt>
      <trkpt lat="44.48138" lon="6.55021">
        <ele>1678</ele>
        <time>2020-02-23T10:00:39Z</time>
      </trkpt>
      <trkpt lat="44.48134" lon="6.55019">
        <ele>1679</ele>
        <time>2020-02-23T10:00:43Z</time>
      </trkpt>
      <trkpt lat="44.48131" lon="6.55017">
        <ele>1679</ele>
        <time>2020-02-23T10:00:45Z</time>
      </trkpt>
      <trkpt lat="44.4813" lon="6.55017">
        <ele>1679</ele>
        <time>2020-02-23T10:00:48Z</time>
      </trkpt>
      <trkpt lat="44.48123" lon="6.5502">
        <ele>1679</ele>
        <time>2020-02-23T10:00:53Z</time>
      </trkpt>
      <trkpt lat="44.48119" lon="6.55021">
        <ele>1680</ele>
        <time>2020-02-23T10:00:57Z</time>
      </trkpt>
      <trkpt lat="44.48116" lon="6.55019">
        <ele>1681</ele>
        <time>2020-02-23T10:00:59Z</time>
      </trkpt>
      <trkpt lat="44.48113" lon="6.55021">
        <ele>1682</ele>
        <time>2020-02-23T10:01:01Z</time>
      </trkpt>
      <trkpt lat="44.48109" lon="6.55024">
        <ele>1683</ele>
        <time>2020-02-23T10:01:03Z</time>
      </trkpt>
      <trkpt lat="44.48106" lon="6.55025">
        <ele>1684</ele>
        <time>2020-02-23T10:01:07Z</time>
      </trkpt>
      <trkpt lat="44.48101" lon="6.55021">
        <ele>1683</ele>
        <time>2020-02-23T10:01:11Z</time>
      </trkpt>
      <trkpt lat="44.48097" lon="6.55021">
        <ele>1683</ele>
        <time>2020-02-23T10:01:14Z</time>
      </trkpt>
      <trkpt lat="44.48092" lon="6.55018">
        <ele>1685</ele>
        <time>2020-02-23T10:01:18Z</time>
      </trkpt>
      <trkpt lat="44.48075" lon="6.55013">
        <ele>1686</ele>
        <time>2020-02-23T10:01:33Z</time>
      </trkpt>
      <trkpt lat="44.48071" lon="6.5501">
        <ele>1688</ele>
        <time>2020-02-23T10:01:35Z</time>
      </trkpt>
      <trkpt lat="44.48066" lon="6.55008">
        <ele>1690</ele>
        <time>2020-02-23T10:01:41Z</time>
      </trkpt>
      <trkpt lat="44.48064" lon="6.55007">
        <ele>1690</ele>
        <time>2020-02-23T10:01:44Z</time>
      </trkpt>
      <trkpt lat="44.4806" lon="6.55005">
        <ele>1691</ele>
        <time>2020-02-23T10:01:48Z</time>
      </trkpt>
      <trkpt lat="44.48054" lon="6.55007">
        <ele>1691</ele>
        <time>2020-02-23T10:01:51Z</time>
      </trkpt>
      <trkpt lat="44.48049" lon="6.55003">
        <ele>1690</ele>
        <time>2020-02-23T10:01:53Z</time>
      </trkpt>
      <trkpt lat="44.48046" lon="6.55006">
        <ele>1686</ele>
        <time>2020-02-23T10:01:58Z</time>
      </trkpt>
      <trkpt lat="44.48044" lon="6.55006">
        <ele>1686</ele>
        <time>2020-02-23T10:02:01Z</time>
      </trkpt>
      <trkpt lat="44.48039" lon="6.55009">
        <ele>1687</ele>
        <time>2020-02-23T10:02:07Z</time>
      </trkpt>
      <trkpt lat="44.48034" lon="6.5501">
        <ele>1687</ele>
        <time>2020-02-23T10:02:11Z</time>
      </trkpt>
      <trkpt lat="44.48032" lon="6.5501">
        <ele>1687</ele>
        <time>2020-02-23T10:02:13Z</time>
      </trkpt>
      <trkpt lat="44.4803" lon="6.55013">
        <ele>1687</ele>
        <time>2020-02-23T10:02:15Z</time>
      </trkpt>
      <trkpt lat="44.48027" lon="6.55013">
        <ele>1687</ele>
        <time>2020-02-23T10:02:17Z</time>
      </trkpt>
      <trkpt lat="44.48022" lon="6.55012">
        <ele>1687</ele>
        <time>2020-02-23T10:02:22Z</time>
      </trkpt>
      <trkpt lat="44.4802" lon="6.55011">
        <ele>1688</ele>
        <time>2020-02-23T10:02:24Z</time>
      </trkpt>
      <trkpt lat="44.48013" lon="6.55007">
        <ele>1689</ele>
        <time>2020-02-23T10:02:31Z</time>
      </trkpt>
      <trkpt lat="44.48012" lon="6.55005">
        <ele>1689</ele>
        <time>2020-02-23T10:02:35Z</time>
      </trkpt>
      <trkpt lat="44.48011" lon="6.55002">
        <ele>1690</ele>
        <time>2020-02-23T10:02:38Z</time>
      </trkpt>
      <trkpt lat="44.48009" lon="6.55002">
        <ele>1691</ele>
        <time>2020-02-23T10:02:42Z</time>
      </trkpt>
      <trkpt lat="44.48006" lon="6.55">
        <ele>1694</ele>
        <time>2020-02-23T10:02:46Z</time>
      </trkpt>
      <trkpt lat="44.48004" lon="6.54996">
        <ele>1695</ele>
        <time>2020-02-23T10:02:48Z</time>
      </trkpt>
      <trkpt lat="44.48002" lon="6.54994">
        <ele>1695</ele>
        <time>2020-02-23T10:02:50Z</time>
      </trkpt>
      <trkpt lat="44.48" lon="6.54993">
        <ele>1695</ele>
        <time>2020-02-23T10:02:52Z</time>
      </trkpt>
      <trkpt lat="44.47998" lon="6.54992">
        <ele>1696</ele>
        <time>2020-02-23T10:02:56Z</time>
      </trkpt>
      <trkpt lat="44.47995" lon="6.54989">
        <ele>1696</ele>
        <time>2020-02-23T10:02:58Z</time>
      </trkpt>
      <trkpt lat="44.47992" lon="6.54988">
        <ele>1697</ele>
        <time>2020-02-23T10:03:04Z</time>
      </trkpt>
      <trkpt lat="44.47989" lon="6.54987">
        <ele>1697</ele>
        <time>2020-02-23T10:03:06Z</time>
      </trkpt>
      <trkpt lat="44.47987" lon="6.54984">
        <ele>1697</ele>
        <time>2020-02-23T10:03:08Z</time>
      </trkpt>
      <trkpt lat="44.47986" lon="6.54982">
        <ele>1697</ele>
        <time>2020-02-23T10:03:10Z</time>
      </trkpt>
      <trkpt lat="44.47983" lon="6.54979">
        <ele>1697</ele>
        <time>2020-02-23T10:03:12Z</time>
      </trkpt>
      <trkpt lat="44.4798" lon="6.54978">
        <ele>1697</ele>
        <time>2020-02-23T10:03:14Z</time>
      </trkpt>
      <trkpt lat="44.47978" lon="6.54978">
        <ele>1696</ele>
        <time>2020-02-23T10:03:16Z</time>
      </trkpt>
      <trkpt lat="44.47977" lon="6.54976">
        <ele>1696</ele>
        <time>2020-02-23T10:03:19Z</time>
      </trkpt>
      <trkpt lat="44.47974" lon="6.54976">
        <ele>1695</ele>
        <time>2020-02-23T10:03:22Z</time>
      </trkpt>
      <trkpt lat="44.47972" lon="6.54977">
        <ele>1695</ele>
        <time>2020-02-23T10:03:24Z</time>
      </trkpt>
      <trkpt lat="44.47969" lon="6.54978">
        <ele>1695</ele>
        <time>2020-02-23T10:03:27Z</time>
      </trkpt>
      <trkpt lat="44.47966" lon="6.54978">
        <ele>1695</ele>
        <time>2020-02-23T10:03:31Z</time>
      </trkpt>
      <trkpt lat="44.47959" lon="6.54978">
        <ele>1695</ele>
        <time>2020-02-23T10:03:39Z</time>
      </trkpt>
      <trkpt lat="44.47955" lon="6.54976">
        <ele>1697</ele>
        <time>2020-02-23T10:03:41Z</time>
      </trkpt>
      <trkpt lat="44.47948" lon="6.54977">
        <ele>1697</ele>
        <time>2020-02-23T10:03:46Z</time>
      </trkpt>
      <trkpt lat="44.47945" lon="6.54979">
        <ele>1697</ele>
        <time>2020-02-23T10:03:48Z</time>
      </trkpt>
      <trkpt lat="44.47943" lon="6.5498">
        <ele>1698</ele>
        <time>2020-02-23T10:03:51Z</time>
      </trkpt>
      <trkpt lat="44.47941" lon="6.54978">
        <ele>1699</ele>
        <time>2020-02-23T10:03:54Z</time>
      </trkpt>
      <trkpt lat="44.47938" lon="6.54982">
        <ele>1701</ele>
        <time>2020-02-23T10:03:59Z</time>
      </trkpt>
      <trkpt lat="44.47936" lon="6.5498">
        <ele>1701</ele>
        <time>2020-02-23T10:04:01Z</time>
      </trkpt>
      <trkpt lat="44.4793" lon="6.54979">
        <ele>1703</ele>
        <time>2020-02-23T10:04:06Z</time>
      </trkpt>
      <trkpt lat="44.47918" lon="6.5498">
        <ele>1704</ele>
        <time>2020-02-23T10:04:17Z</time>
      </trkpt>
      <trkpt lat="44.47915" lon="6.5498">
        <ele>1704</ele>
        <time>2020-02-23T10:04:19Z</time>
      </trkpt>
      <trkpt lat="44.4791" lon="6.54981">
        <ele>1704</ele>
        <time>2020-02-23T10:04:24Z</time>
      </trkpt>
      <trkpt lat="44.47909" lon="6.5498">
        <ele>1704</ele>
        <time>2020-02-23T10:04:26Z</time>
      </trkpt>
      <trkpt lat="44.47896" lon="6.54982">
        <ele>1704</ele>
        <time>2020-02-23T10:04:37Z</time>
      </trkpt>
      <trkpt lat="44.47886" lon="6.5498">
        <ele>1703</ele>
        <time>2020-02-23T10:04:47Z</time>
      </trkpt>
      <trkpt lat="44.47883" lon="6.5498">
        <ele>1703</ele>
        <time>2020-02-23T10:04:49Z</time>
      </trkpt>
      <trkpt lat="44.4788" lon="6.5498">
        <ele>1704</ele>
        <time>2020-02-23T10:04:52Z</time>
      </trkpt>
      <trkpt lat="44.47869" lon="6.54977">
        <ele>1705</ele>
        <time>2020-02-23T10:04:59Z</time>
      </trkpt>
      <trkpt lat="44.47867" lon="6.54975">
        <ele>1704</ele>
        <time>2020-02-23T10:05:01Z</time>
      </trkpt>
      <trkpt lat="44.47859" lon="6.54972">
        <ele>1704</ele>
        <time>2020-02-23T10:05:07Z</time>
      </trkpt>
      <trkpt lat="44.47857" lon="6.54971">
        <ele>1703</ele>
        <time>2020-02-23T10:05:09Z</time>
      </trkpt>
      <trkpt lat="44.47854" lon="6.54968">
        <ele>1702</ele>
        <time>2020-02-23T10:05:15Z</time>
      </trkpt>
      <trkpt lat="44.47852" lon="6.54968">
        <ele>1702</ele>
        <time>2020-02-23T10:05:16Z</time>
      </trkpt>
      <trkpt lat="44.47838" lon="6.54964">
        <ele>1703</ele>
        <time>2020-02-23T10:05:28Z</time>
      </trkpt>
      <trkpt lat="44.47812" lon="6.54952">
        <ele>1706</ele>
        <time>2020-02-23T10:05:50Z</time>
      </trkpt>
      <trkpt lat="44.4781" lon="6.54952">
        <ele>1707</ele>
        <time>2020-02-23T10:05:52Z</time>
      </trkpt>
      <trkpt lat="44.47808" lon="6.54952">
        <ele>1707</ele>
        <time>2020-02-23T10:05:54Z</time>
      </trkpt>
      <trkpt lat="44.47805" lon="6.5495">
        <ele>1708</ele>
        <time>2020-02-23T10:05:56Z</time>
      </trkpt>
      <trkpt lat="44.47801" lon="6.5495">
        <ele>1710</ele>
        <time>2020-02-23T10:05:58Z</time>
      </trkpt>
      <trkpt lat="44.47798" lon="6.54947">
        <ele>1710</ele>
        <time>2020-02-23T10:06:01Z</time>
      </trkpt>
      <trkpt lat="44.47795" lon="6.54948">
        <ele>1714</ele>
        <time>2020-02-23T10:06:05Z</time>
      </trkpt>
      <trkpt lat="44.47784" lon="6.54946">
        <ele>1714</ele>
        <time>2020-02-23T10:06:15Z</time>
      </trkpt>
      <trkpt lat="44.47782" lon="6.54945">
        <ele>1713</ele>
        <time>2020-02-23T10:06:17Z</time>
      </trkpt>
      <trkpt lat="44.47775" lon="6.54943">
        <ele>1713</ele>
        <time>2020-02-23T10:06:24Z</time>
      </trkpt>
      <trkpt lat="44.47765" lon="6.54937">
        <ele>1713</ele>
        <time>2020-02-23T10:06:36Z</time>
      </trkpt>
      <trkpt lat="44.47762" lon="6.54934">
        <ele>1714</ele>
        <time>2020-02-23T10:06:40Z</time>
      </trkpt>
      <trkpt lat="44.47758" lon="6.54934">
        <ele>1714</ele>
        <time>2020-02-23T10:06:44Z</time>
      </trkpt>
      <trkpt lat="44.47756" lon="6.54931">
        <ele>1712</ele>
        <time>2020-02-23T10:06:47Z</time>
      </trkpt>
      <trkpt lat="44.47754" lon="6.5493">
        <ele>1711</ele>
        <time>2020-02-23T10:06:49Z</time>
      </trkpt>
      <trkpt lat="44.47752" lon="6.54929">
        <ele>1712</ele>
        <time>2020-02-23T10:06:53Z</time>
      </trkpt>
      <trkpt lat="44.47752" lon="6.54926">
        <ele>1713</ele>
        <time>2020-02-23T10:07:00Z</time>
      </trkpt>
      <trkpt lat="44.47748" lon="6.54923">
        <ele>1713</ele>
        <time>2020-02-23T10:07:02Z</time>
      </trkpt>
      <trkpt lat="44.47744" lon="6.54921">
        <ele>1712</ele>
        <time>2020-02-23T10:07:04Z</time>
      </trkpt>
      <trkpt lat="44.47742" lon="6.5492">
        <ele>1711</ele>
        <time>2020-02-23T10:07:07Z</time>
      </trkpt>
      <trkpt lat="44.4774" lon="6.5492">
        <ele>1711</ele>
        <time>2020-02-23T10:07:08Z</time>
      </trkpt>
      <trkpt lat="44.47728" lon="6.5492">
        <ele>1710</ele>
        <time>2020-02-23T10:07:16Z</time>
      </trkpt>
      <trkpt lat="44.47697" lon="6.5491">
        <ele>1709</ele>
        <time>2020-02-23T10:07:42Z</time>
      </trkpt>
      <trkpt lat="44.47695" lon="6.54909">
        <ele>1709</ele>
        <time>2020-02-23T10:07:44Z</time>
      </trkpt>
      <trkpt lat="44.47691" lon="6.5491">
        <ele>1710</ele>
        <time>2020-02-23T10:07:46Z</time>
      </trkpt>
      <trkpt lat="44.47689" lon="6.54909">
        <ele>1710</ele>
        <time>2020-02-23T10:07:48Z</time>
      </trkpt>
      <trkpt lat="44.47678" lon="6.54905">
        <ele>1711</ele>
        <time>2020-02-23T10:07:56Z</time>
      </trkpt>
      <trkpt lat="44.47671" lon="6.54902">
        <ele>1714</ele>
        <time>2020-02-23T10:08:01Z</time>
      </trkpt>
      <trkpt lat="44.47668" lon="6.54903">
        <ele>1714</ele>
        <time>2020-02-23T10:08:03Z</time>
      </trkpt>
      <trkpt lat="44.47665" lon="6.54902">
        <ele>1713</ele>
        <time>2020-02-23T10:08:05Z</time>
      </trkpt>
      <trkpt lat="44.47659" lon="6.549">
        <ele>1713</ele>
        <time>2020-02-23T10:08:12Z</time>
      </trkpt>
      <trkpt lat="44.47656" lon="6.549">
        <ele>1713</ele>
        <time>2020-02-23T10:08:15Z</time>
      </trkpt>
      <trkpt lat="44.47653" lon="6.54902">
        <ele>1714</ele>
        <time>2020-02-23T10:08:19Z</time>
      </trkpt>
      <trkpt lat="44.4765" lon="6.54902">
        <ele>1714</ele>
        <time>2020-02-23T10:08:22Z</time>
      </trkpt>
      <trkpt lat="44.47648" lon="6.54902">
        <ele>1716</ele>
        <time>2020-02-23T10:08:24Z</time>
      </trkpt>
      <trkpt lat="44.47646" lon="6.54901">
        <ele>1716</ele>
        <time>2020-02-23T10:08:26Z</time>
      </trkpt>
      <trkpt lat="44.47644" lon="6.549">
        <ele>1717</ele>
        <time>2020-02-23T10:08:28Z</time>
      </trkpt>
      <trkpt lat="44.47641" lon="6.54899">
        <ele>1719</ele>
        <time>2020-02-23T10:08:43Z</time>
      </trkpt>
      <trkpt lat="44.47636" lon="6.54896">
        <ele>1719</ele>
        <time>2020-02-23T10:08:46Z</time>
      </trkpt>
      <trkpt lat="44.47633" lon="6.54894">
        <ele>1719</ele>
        <time>2020-02-23T10:08:48Z</time>
      </trkpt>
      <trkpt lat="44.4763" lon="6.54892">
        <ele>1719</ele>
        <time>2020-02-23T10:08:50Z</time>
      </trkpt>
      <trkpt lat="44.47628" lon="6.54889">
        <ele>1719</ele>
        <time>2020-02-23T10:08:52Z</time>
      </trkpt>
      <trkpt lat="44.47625" lon="6.54887">
        <ele>1718</ele>
        <time>2020-02-23T10:08:56Z</time>
      </trkpt>
      <trkpt lat="44.47622" lon="6.54885">
        <ele>1718</ele>
        <time>2020-02-23T10:08:58Z</time>
      </trkpt>
      <trkpt lat="44.4762" lon="6.54885">
        <ele>1718</ele>
        <time>2020-02-23T10:09:02Z</time>
      </trkpt>
      <trkpt lat="44.47617" lon="6.54883">
        <ele>1717</ele>
        <time>2020-02-23T10:09:06Z</time>
      </trkpt>
      <trkpt lat="44.47614" lon="6.5488">
        <ele>1717</ele>
        <time>2020-02-23T10:09:08Z</time>
      </trkpt>
      <trkpt lat="44.47612" lon="6.54878">
        <ele>1717</ele>
        <time>2020-02-23T10:09:10Z</time>
      </trkpt>
      <trkpt lat="44.47601" lon="6.54871">
        <ele>1717</ele>
        <time>2020-02-23T10:09:21Z</time>
      </trkpt>
      <trkpt lat="44.47598" lon="6.54869">
        <ele>1717</ele>
        <time>2020-02-23T10:09:24Z</time>
      </trkpt>
      <trkpt lat="44.47594" lon="6.54868">
        <ele>1716</ele>
        <time>2020-02-23T10:09:27Z</time>
      </trkpt>
      <trkpt lat="44.47591" lon="6.54866">
        <ele>1715</ele>
        <time>2020-02-23T10:09:30Z</time>
      </trkpt>
      <trkpt lat="44.47588" lon="6.54865">
        <ele>1715</ele>
        <time>2020-02-23T10:09:33Z</time>
      </trkpt>
      <trkpt lat="44.47586" lon="6.54863">
        <ele>1714</ele>
        <time>2020-02-23T10:09:36Z</time>
      </trkpt>
      <trkpt lat="44.47582" lon="6.54862">
        <ele>1711</ele>
        <time>2020-02-23T10:09:40Z</time>
      </trkpt>
      <trkpt lat="44.4758" lon="6.54861">
        <ele>1711</ele>
        <time>2020-02-23T10:09:42Z</time>
      </trkpt>
      <trkpt lat="44.47577" lon="6.54861">
        <ele>1710</ele>
        <time>2020-02-23T10:09:45Z</time>
      </trkpt>
      <trkpt lat="44.47573" lon="6.54859">
        <ele>1709</ele>
        <time>2020-02-23T10:09:48Z</time>
      </trkpt>
      <trkpt lat="44.4757" lon="6.54859">
        <ele>1708</ele>
        <time>2020-02-23T10:09:51Z</time>
      </trkpt>
      <trkpt lat="44.47567" lon="6.54858">
        <ele>1709</ele>
        <time>2020-02-23T10:09:54Z</time>
      </trkpt>
      <trkpt lat="44.47556" lon="6.54856">
        <ele>1708</ele>
        <time>2020-02-23T10:10:03Z</time>
      </trkpt>
      <trkpt lat="44.47553" lon="6.54853">
        <ele>1708</ele>
        <time>2020-02-23T10:10:05Z</time>
      </trkpt>
      <trkpt lat="44.47549" lon="6.54852">
        <ele>1708</ele>
        <time>2020-02-23T10:10:07Z</time>
      </trkpt>
      <trkpt lat="44.47544" lon="6.54848">
        <ele>1708</ele>
        <time>2020-02-23T10:10:13Z</time>
      </trkpt>
      <trkpt lat="44.4754" lon="6.54848">
        <ele>1709</ele>
        <time>2020-02-23T10:10:18Z</time>
      </trkpt>
      <trkpt lat="44.47537" lon="6.54847">
        <ele>1709</ele>
        <time>2020-02-23T10:10:21Z</time>
      </trkpt>
      <trkpt lat="44.47534" lon="6.54846">
        <ele>1709</ele>
        <time>2020-02-23T10:10:24Z</time>
      </trkpt>
      <trkpt lat="44.47495" lon="6.54837">
        <ele>1707</ele>
        <time>2020-02-23T10:10:54Z</time>
      </trkpt>
      <trkpt lat="44.47494" lon="6.54839">
        <ele>1709</ele>
        <time>2020-02-23T10:10:56Z</time>
      </trkpt>
      <trkpt lat="44.47491" lon="6.54838">
        <ele>1710</ele>
        <time>2020-02-23T10:10:59Z</time>
      </trkpt>
      <trkpt lat="44.47473" lon="6.54834">
        <ele>1711</ele>
        <time>2020-02-23T10:11:12Z</time>
      </trkpt>
      <trkpt lat="44.47467" lon="6.54833">
        <ele>1711</ele>
        <time>2020-02-23T10:11:16Z</time>
      </trkpt>
      <trkpt lat="44.47464" lon="6.54832">
        <ele>1711</ele>
        <time>2020-02-23T10:11:18Z</time>
      </trkpt>
      <trkpt lat="44.47459" lon="6.54828">
        <ele>1710</ele>
        <time>2020-02-23T10:11:23Z</time>
      </trkpt>
      <trkpt lat="44.47444" lon="6.54816">
        <ele>1713</ele>
        <time>2020-02-23T10:11:41Z</time>
      </trkpt>
      <trkpt lat="44.47441" lon="6.54814">
        <ele>1714</ele>
        <time>2020-02-23T10:11:42Z</time>
      </trkpt>
      <trkpt lat="44.47437" lon="6.54811">
        <ele>1714</ele>
        <time>2020-02-23T10:11:44Z</time>
      </trkpt>
      <trkpt lat="44.47435" lon="6.54804">
        <ele>1715</ele>
        <time>2020-02-23T10:11:48Z</time>
      </trkpt>
      <trkpt lat="44.47433" lon="6.54803">
        <ele>1714</ele>
        <time>2020-02-23T10:11:52Z</time>
      </trkpt>
      <trkpt lat="44.47431" lon="6.54801">
        <ele>1714</ele>
        <time>2020-02-23T10:11:54Z</time>
      </trkpt>
      <trkpt lat="44.47421" lon="6.54797">
        <ele>1714</ele>
        <time>2020-02-23T10:12:02Z</time>
      </trkpt>
      <trkpt lat="44.47391" lon="6.54798">
        <ele>1716</ele>
        <time>2020-02-23T10:12:28Z</time>
      </trkpt>
      <trkpt lat="44.4739" lon="6.548">
        <ele>1716</ele>
        <time>2020-02-23T10:12:32Z</time>
      </trkpt>
      <trkpt lat="44.47377" lon="6.54803">
        <ele>1717</ele>
        <time>2020-02-23T10:12:43Z</time>
      </trkpt>
      <trkpt lat="44.47374" lon="6.54799">
        <ele>1719</ele>
        <time>2020-02-23T10:12:45Z</time>
      </trkpt>
      <trkpt lat="44.47371" lon="6.54795">
        <ele>1719</ele>
        <time>2020-02-23T10:12:46Z</time>
      </trkpt>
      <trkpt lat="44.47365" lon="6.54798">
        <ele>1718</ele>
        <time>2020-02-23T10:12:50Z</time>
      </trkpt>
      <trkpt lat="44.47355" lon="6.54796">
        <ele>1717</ele>
        <time>2020-02-23T10:12:59Z</time>
      </trkpt>
      <trkpt lat="44.47353" lon="6.54797">
        <ele>1717</ele>
        <time>2020-02-23T10:13:02Z</time>
      </trkpt>
      <trkpt lat="44.4735" lon="6.54796">
        <ele>1717</ele>
        <time>2020-02-23T10:13:06Z</time>
      </trkpt>
      <trkpt lat="44.47346" lon="6.54798">
        <ele>1718</ele>
        <time>2020-02-23T10:13:07Z</time>
      </trkpt>
      <trkpt lat="44.47344" lon="6.54794">
        <ele>1718</ele>
        <time>2020-02-23T10:13:09Z</time>
      </trkpt>
      <trkpt lat="44.47342" lon="6.54792">
        <ele>1718</ele>
        <time>2020-02-23T10:13:11Z</time>
      </trkpt>
      <trkpt lat="44.47336" lon="6.54793">
        <ele>1718</ele>
        <time>2020-02-23T10:13:18Z</time>
      </trkpt>
      <trkpt lat="44.47333" lon="6.54791">
        <ele>1718</ele>
        <time>2020-02-23T10:13:21Z</time>
      </trkpt>
      <trkpt lat="44.47328" lon="6.54782">
        <ele>1718</ele>
        <time>2020-02-23T10:13:33Z</time>
      </trkpt>
      <trkpt lat="44.47326" lon="6.54779">
        <ele>1717</ele>
        <time>2020-02-23T10:13:35Z</time>
      </trkpt>
      <trkpt lat="44.47318" lon="6.54769">
        <ele>1719</ele>
        <time>2020-02-23T10:13:43Z</time>
      </trkpt>
      <trkpt lat="44.47313" lon="6.54765">
        <ele>1720</ele>
        <time>2020-02-23T10:13:48Z</time>
      </trkpt>
      <trkpt lat="44.4731" lon="6.54766">
        <ele>1721</ele>
        <time>2020-02-23T10:13:51Z</time>
      </trkpt>
      <trkpt lat="44.47308" lon="6.54763">
        <ele>1722</ele>
        <time>2020-02-23T10:13:54Z</time>
      </trkpt>
      <trkpt lat="44.47302" lon="6.54755">
        <ele>1725</ele>
        <time>2020-02-23T10:14:10Z</time>
      </trkpt>
      <trkpt lat="44.47299" lon="6.54754">
        <ele>1725</ele>
        <time>2020-02-23T10:14:12Z</time>
      </trkpt>
      <trkpt lat="44.47297" lon="6.54752">
        <ele>1726</ele>
        <time>2020-02-23T10:14:14Z</time>
      </trkpt>
      <trkpt lat="44.47295" lon="6.54747">
        <ele>1727</ele>
        <time>2020-02-23T10:14:16Z</time>
      </trkpt>
      <trkpt lat="44.47291" lon="6.54742">
        <ele>1730</ele>
        <time>2020-02-23T10:14:18Z</time>
      </trkpt>
      <trkpt lat="44.47288" lon="6.5474">
        <ele>1732</ele>
        <time>2020-02-23T10:14:19Z</time>
      </trkpt>
      <trkpt lat="44.47285" lon="6.54735">
        <ele>1733</ele>
        <time>2020-02-23T10:14:21Z</time>
      </trkpt>
      <trkpt lat="44.47282" lon="6.54738">
        <ele>1735</ele>
        <time>2020-02-23T10:14:27Z</time>
      </trkpt>
      <trkpt lat="44.47279" lon="6.54737">
        <ele>1735</ele>
        <time>2020-02-23T10:14:30Z</time>
      </trkpt>
      <trkpt lat="44.47274" lon="6.54741">
        <ele>1737</ele>
        <time>2020-02-23T10:14:39Z</time>
      </trkpt>
      <trkpt lat="44.47272" lon="6.54745">
        <ele>1738</ele>
        <time>2020-02-23T10:14:41Z</time>
      </trkpt>
      <trkpt lat="44.47271" lon="6.54747">
        <ele>1738</ele>
        <time>2020-02-23T10:14:44Z</time>
      </trkpt>
      <trkpt lat="44.47267" lon="6.54749">
        <ele>1739</ele>
        <time>2020-02-23T10:14:48Z</time>
      </trkpt>
      <trkpt lat="44.47266" lon="6.54752">
        <ele>1740</ele>
        <time>2020-02-23T10:14:50Z</time>
      </trkpt>
      <trkpt lat="44.47264" lon="6.54754">
        <ele>1740</ele>
        <time>2020-02-23T10:14:54Z</time>
      </trkpt>
      <trkpt lat="44.47262" lon="6.54756">
        <ele>1742</ele>
        <time>2020-02-23T10:14:57Z</time>
      </trkpt>
      <trkpt lat="44.4726" lon="6.54756">
        <ele>1742</ele>
        <time>2020-02-23T10:14:59Z</time>
      </trkpt>
      <trkpt lat="44.47259" lon="6.5476">
        <ele>1745</ele>
        <time>2020-02-23T10:15:03Z</time>
      </trkpt>
      <trkpt lat="44.47254" lon="6.54763">
        <ele>1747</ele>
        <time>2020-02-23T10:15:07Z</time>
      </trkpt>
      <trkpt lat="44.47252" lon="6.54766">
        <ele>1749</ele>
        <time>2020-02-23T10:15:11Z</time>
      </trkpt>
      <trkpt lat="44.4725" lon="6.54766">
        <ele>1750</ele>
        <time>2020-02-23T10:15:15Z</time>
      </trkpt>
      <trkpt lat="44.47246" lon="6.5477">
        <ele>1750</ele>
        <time>2020-02-23T10:15:21Z</time>
      </trkpt>
      <trkpt lat="44.47243" lon="6.54772">
        <ele>1749</ele>
        <time>2020-02-23T10:15:25Z</time>
      </trkpt>
      <trkpt lat="44.47241" lon="6.54775">
        <ele>1749</ele>
        <time>2020-02-23T10:15:28Z</time>
      </trkpt>
      <trkpt lat="44.47238" lon="6.54776">
        <ele>1749</ele>
        <time>2020-02-23T10:15:31Z</time>
      </trkpt>
      <trkpt lat="44.47236" lon="6.54775">
        <ele>1750</ele>
        <time>2020-02-23T10:15:34Z</time>
      </trkpt>
      <trkpt lat="44.47234" lon="6.54778">
        <ele>1750</ele>
        <time>2020-02-23T10:15:37Z</time>
      </trkpt>
      <trkpt lat="44.4723" lon="6.54779">
        <ele>1751</ele>
        <time>2020-02-23T10:15:43Z</time>
      </trkpt>
      <trkpt lat="44.47227" lon="6.54779">
        <ele>1751</ele>
        <time>2020-02-23T10:15:46Z</time>
      </trkpt>
      <trkpt lat="44.47225" lon="6.54778">
        <ele>1750</ele>
        <time>2020-02-23T10:15:48Z</time>
      </trkpt>
      <trkpt lat="44.47221" lon="6.54777">
        <ele>1751</ele>
        <time>2020-02-23T10:15:52Z</time>
      </trkpt>
      <trkpt lat="44.47219" lon="6.54777">
        <ele>1751</ele>
        <time>2020-02-23T10:15:55Z</time>
      </trkpt>
      <trkpt lat="44.47217" lon="6.54778">
        <ele>1752</ele>
        <time>2020-02-23T10:15:57Z</time>
      </trkpt>
      <trkpt lat="44.47216" lon="6.54779">
        <ele>1752</ele>
        <time>2020-02-23T10:15:59Z</time>
      </trkpt>
      <trkpt lat="44.47214" lon="6.5478">
        <ele>1753</ele>
        <time>2020-02-23T10:16:01Z</time>
      </trkpt>
      <trkpt lat="44.47212" lon="6.5478">
        <ele>1753</ele>
        <time>2020-02-23T10:16:03Z</time>
      </trkpt>
      <trkpt lat="44.47209" lon="6.54778">
        <ele>1753</ele>
        <time>2020-02-23T10:16:06Z</time>
      </trkpt>
      <trkpt lat="44.47195" lon="6.54777">
        <ele>1755</ele>
        <time>2020-02-23T10:16:20Z</time>
      </trkpt>
      <trkpt lat="44.47193" lon="6.5478">
        <ele>1756</ele>
        <time>2020-02-23T10:16:24Z</time>
      </trkpt>
      <trkpt lat="44.4719" lon="6.54779">
        <ele>1757</ele>
        <time>2020-02-23T10:16:27Z</time>
      </trkpt>
      <trkpt lat="44.47188" lon="6.54777">
        <ele>1758</ele>
        <time>2020-02-23T10:16:32Z</time>
      </trkpt>
      <trkpt lat="44.47186" lon="6.54778">
        <ele>1759</ele>
        <time>2020-02-23T10:16:34Z</time>
      </trkpt>
      <trkpt lat="44.47182" lon="6.5478">
        <ele>1760</ele>
        <time>2020-02-23T10:16:37Z</time>
      </trkpt>
      <trkpt lat="44.47174" lon="6.54777">
        <ele>1761</ele>
        <time>2020-02-23T10:16:45Z</time>
      </trkpt>
      <trkpt lat="44.47165" lon="6.54781">
        <ele>1763</ele>
        <time>2020-02-23T10:16:57Z</time>
      </trkpt>
      <trkpt lat="44.47163" lon="6.54783">
        <ele>1763</ele>
        <time>2020-02-23T10:17:00Z</time>
      </trkpt>
      <trkpt lat="44.47161" lon="6.54783">
        <ele>1763</ele>
        <time>2020-02-23T10:17:04Z</time>
      </trkpt>
      <trkpt lat="44.47156" lon="6.54785">
        <ele>1764</ele>
        <time>2020-02-23T10:17:10Z</time>
      </trkpt>
      <trkpt lat="44.47152" lon="6.54789">
        <ele>1765</ele>
        <time>2020-02-23T10:17:17Z</time>
      </trkpt>
      <trkpt lat="44.47143" lon="6.54793">
        <ele>1766</ele>
        <time>2020-02-23T10:17:28Z</time>
      </trkpt>
      <trkpt lat="44.47136" lon="6.54796">
        <ele>1768</ele>
        <time>2020-02-23T10:17:34Z</time>
      </trkpt>
      <trkpt lat="44.47133" lon="6.54803">
        <ele>1769</ele>
        <time>2020-02-23T10:17:36Z</time>
      </trkpt>
      <trkpt lat="44.4713" lon="6.54802">
        <ele>1769</ele>
        <time>2020-02-23T10:17:46Z</time>
      </trkpt>
      <trkpt lat="44.47128" lon="6.54801">
        <ele>1770</ele>
        <time>2020-02-23T10:17:51Z</time>
      </trkpt>
      <trkpt lat="44.47118" lon="6.54807">
        <ele>1772</ele>
        <time>2020-02-23T10:18:05Z</time>
      </trkpt>
      <trkpt lat="44.47112" lon="6.54807">
        <ele>1774</ele>
        <time>2020-02-23T10:18:11Z</time>
      </trkpt>
      <trkpt lat="44.4711" lon="6.54807">
        <ele>1774</ele>
        <time>2020-02-23T10:18:14Z</time>
      </trkpt>
      <trkpt lat="44.47103" lon="6.54813">
        <ele>1774</ele>
        <time>2020-02-23T10:18:24Z</time>
      </trkpt>
      <trkpt lat="44.47101" lon="6.54813">
        <ele>1773</ele>
        <time>2020-02-23T10:18:27Z</time>
      </trkpt>
      <trkpt lat="44.47098" lon="6.54814">
        <ele>1773</ele>
        <time>2020-02-23T10:18:29Z</time>
      </trkpt>
      <trkpt lat="44.47094" lon="6.54821">
        <ele>1776</ele>
        <time>2020-02-23T10:18:36Z</time>
      </trkpt>
      <trkpt lat="44.47085" lon="6.54826">
        <ele>1781</ele>
        <time>2020-02-23T10:18:49Z</time>
      </trkpt>
      <trkpt lat="44.47082" lon="6.54829">
        <ele>1781</ele>
        <time>2020-02-23T10:18:52Z</time>
      </trkpt>
      <trkpt lat="44.4708" lon="6.54831">
        <ele>1782</ele>
        <time>2020-02-23T10:18:58Z</time>
      </trkpt>
      <trkpt lat="44.47078" lon="6.54834">
        <ele>1782</ele>
        <time>2020-02-23T10:19:00Z</time>
      </trkpt>
      <trkpt lat="44.47076" lon="6.54836">
        <ele>1782</ele>
        <time>2020-02-23T10:19:03Z</time>
      </trkpt>
      <trkpt lat="44.47075" lon="6.54841">
        <ele>1783</ele>
        <time>2020-02-23T10:19:06Z</time>
      </trkpt>
      <trkpt lat="44.47072" lon="6.54841">
        <ele>1784</ele>
        <time>2020-02-23T10:19:10Z</time>
      </trkpt>
      <trkpt lat="44.47069" lon="6.54844">
        <ele>1784</ele>
        <time>2020-02-23T10:19:13Z</time>
      </trkpt>
      <trkpt lat="44.47062" lon="6.5485">
        <ele>1786</ele>
        <time>2020-02-23T10:19:20Z</time>
      </trkpt>
      <trkpt lat="44.4706" lon="6.54852">
        <ele>1786</ele>
        <time>2020-02-23T10:19:22Z</time>
      </trkpt>
      <trkpt lat="44.47058" lon="6.54854">
        <ele>1786</ele>
        <time>2020-02-23T10:19:25Z</time>
      </trkpt>
      <trkpt lat="44.47055" lon="6.54856">
        <ele>1786</ele>
        <time>2020-02-23T10:19:28Z</time>
      </trkpt>
      <trkpt lat="44.47053" lon="6.54859">
        <ele>1788</ele>
        <time>2020-02-23T10:19:32Z</time>
      </trkpt>
      <trkpt lat="44.47049" lon="6.54859">
        <ele>1789</ele>
        <time>2020-02-23T10:19:35Z</time>
      </trkpt>
      <trkpt lat="44.47044" lon="6.54863">
        <ele>1788</ele>
        <time>2020-02-23T10:19:43Z</time>
      </trkpt>
      <trkpt lat="44.47042" lon="6.54865">
        <ele>1788</ele>
        <time>2020-02-23T10:19:45Z</time>
      </trkpt>
      <trkpt lat="44.4704" lon="6.54865">
        <ele>1788</ele>
        <time>2020-02-23T10:19:47Z</time>
      </trkpt>
      <trkpt lat="44.47035" lon="6.54865">
        <ele>1789</ele>
        <time>2020-02-23T10:19:49Z</time>
      </trkpt>
      <trkpt lat="44.47033" lon="6.54868">
        <ele>1790</ele>
        <time>2020-02-23T10:19:53Z</time>
      </trkpt>
      <trkpt lat="44.47022" lon="6.54869">
        <ele>1790</ele>
        <time>2020-02-23T10:20:06Z</time>
      </trkpt>
      <trkpt lat="44.47019" lon="6.54868">
        <ele>1790</ele>
        <time>2020-02-23T10:20:09Z</time>
      </trkpt>
      <trkpt lat="44.47017" lon="6.54867">
        <ele>1791</ele>
        <time>2020-02-23T10:20:11Z</time>
      </trkpt>
      <trkpt lat="44.47015" lon="6.54867">
        <ele>1790</ele>
        <time>2020-02-23T10:20:14Z</time>
      </trkpt>
      <trkpt lat="44.47013" lon="6.54867">
        <ele>1790</ele>
        <time>2020-02-23T10:20:16Z</time>
      </trkpt>
      <trkpt lat="44.4701" lon="6.54867">
        <ele>1790</ele>
        <time>2020-02-23T10:20:19Z</time>
      </trkpt>
      <trkpt lat="44.47006" lon="6.54866">
        <ele>1791</ele>
        <time>2020-02-23T10:20:23Z</time>
      </trkpt>
      <trkpt lat="44.47004" lon="6.54865">
        <ele>1791</ele>
        <time>2020-02-23T10:20:25Z</time>
      </trkpt>
      <trkpt lat="44.47002" lon="6.54866">
        <ele>1791</ele>
        <time>2020-02-23T10:20:28Z</time>
      </trkpt>
      <trkpt lat="44.4699" lon="6.54863">
        <ele>1792</ele>
        <time>2020-02-23T10:20:41Z</time>
      </trkpt>
      <trkpt lat="44.46987" lon="6.54861">
        <ele>1794</ele>
        <time>2020-02-23T10:20:45Z</time>
      </trkpt>
      <trkpt lat="44.46983" lon="6.54862">
        <ele>1794</ele>
        <time>2020-02-23T10:20:49Z</time>
      </trkpt>
      <trkpt lat="44.46979" lon="6.5486">
        <ele>1794</ele>
        <time>2020-02-23T10:20:52Z</time>
      </trkpt>
      <trkpt lat="44.46976" lon="6.54863">
        <ele>1794</ele>
        <time>2020-02-23T10:20:55Z</time>
      </trkpt>
      <trkpt lat="44.46972" lon="6.54861">
        <ele>1795</ele>
        <time>2020-02-23T10:20:58Z</time>
      </trkpt>
      <trkpt lat="44.46968" lon="6.5486">
        <ele>1795</ele>
        <time>2020-02-23T10:21:00Z</time>
      </trkpt>
      <trkpt lat="44.46966" lon="6.54865">
        <ele>1794</ele>
        <time>2020-02-23T10:21:03Z</time>
      </trkpt>
      <trkpt lat="44.46963" lon="6.54865">
        <ele>1794</ele>
        <time>2020-02-23T10:21:09Z</time>
      </trkpt>
      <trkpt lat="44.46961" lon="6.54867">
        <ele>1795</ele>
        <time>2020-02-23T10:21:13Z</time>
      </trkpt>
      <trkpt lat="44.46959" lon="6.54863">
        <ele>1797</ele>
        <time>2020-02-23T10:21:18Z</time>
      </trkpt>
      <trkpt lat="44.46956" lon="6.54863">
        <ele>1797</ele>
        <time>2020-02-23T10:21:20Z</time>
      </trkpt>
      <trkpt lat="44.46949" lon="6.54865">
        <ele>1799</ele>
        <time>2020-02-23T10:21:28Z</time>
      </trkpt>
      <trkpt lat="44.46942" lon="6.54863">
        <ele>1799</ele>
        <time>2020-02-23T10:21:34Z</time>
      </trkpt>
      <trkpt lat="44.4694" lon="6.54864">
        <ele>1799</ele>
        <time>2020-02-23T10:21:36Z</time>
      </trkpt>
      <trkpt lat="44.46934" lon="6.54862">
        <ele>1801</ele>
        <time>2020-02-23T10:21:41Z</time>
      </trkpt>
      <trkpt lat="44.46925" lon="6.54866">
        <ele>1800</ele>
        <time>2020-02-23T10:21:50Z</time>
      </trkpt>
      <trkpt lat="44.46915" lon="6.54875">
        <ele>1801</ele>
        <time>2020-02-23T10:22:04Z</time>
      </trkpt>
      <trkpt lat="44.46912" lon="6.54878">
        <ele>1802</ele>
        <time>2020-02-23T10:22:09Z</time>
      </trkpt>
      <trkpt lat="44.46903" lon="6.54887">
        <ele>1805</ele>
        <time>2020-02-23T10:22:24Z</time>
      </trkpt>
      <trkpt lat="44.46902" lon="6.54889">
        <ele>1805</ele>
        <time>2020-02-23T10:22:28Z</time>
      </trkpt>
      <trkpt lat="44.469" lon="6.54892">
        <ele>1806</ele>
        <time>2020-02-23T10:22:31Z</time>
      </trkpt>
      <trkpt lat="44.46898" lon="6.54894">
        <ele>1806</ele>
        <time>2020-02-23T10:22:33Z</time>
      </trkpt>
      <trkpt lat="44.46897" lon="6.54898">
        <ele>1806</ele>
        <time>2020-02-23T10:22:35Z</time>
      </trkpt>
      <trkpt lat="44.46894" lon="6.54903">
        <ele>1807</ele>
        <time>2020-02-23T10:22:41Z</time>
      </trkpt>
      <trkpt lat="44.46894" lon="6.54907">
        <ele>1808</ele>
        <time>2020-02-23T10:22:44Z</time>
      </trkpt>
      <trkpt lat="44.46889" lon="6.54919">
        <ele>1809</ele>
        <time>2020-02-23T10:22:56Z</time>
      </trkpt>
      <trkpt lat="44.46886" lon="6.54919">
        <ele>1810</ele>
        <time>2020-02-23T10:23:01Z</time>
      </trkpt>
      <trkpt lat="44.46883" lon="6.54919">
        <ele>1810</ele>
        <time>2020-02-23T10:23:05Z</time>
      </trkpt>
      <trkpt lat="44.46878" lon="6.54923">
        <ele>1811</ele>
        <time>2020-02-23T10:23:12Z</time>
      </trkpt>
      <trkpt lat="44.46877" lon="6.54927">
        <ele>1812</ele>
        <time>2020-02-23T10:23:16Z</time>
      </trkpt>
      <trkpt lat="44.46876" lon="6.5493">
        <ele>1813</ele>
        <time>2020-02-23T10:23:18Z</time>
      </trkpt>
      <trkpt lat="44.46876" lon="6.54934">
        <ele>1813</ele>
        <time>2020-02-23T10:23:21Z</time>
      </trkpt>
      <trkpt lat="44.46876" lon="6.54938">
        <ele>1812</ele>
        <time>2020-02-23T10:23:23Z</time>
      </trkpt>
      <trkpt lat="44.46875" lon="6.5494">
        <ele>1812</ele>
        <time>2020-02-23T10:23:26Z</time>
      </trkpt>
      <trkpt lat="44.46876" lon="6.54943">
        <ele>1812</ele>
        <time>2020-02-23T10:23:30Z</time>
      </trkpt>
      <trkpt lat="44.46877" lon="6.54947">
        <ele>1813</ele>
        <time>2020-02-23T10:23:34Z</time>
      </trkpt>
      <trkpt lat="44.46874" lon="6.54951">
        <ele>1812</ele>
        <time>2020-02-23T10:23:39Z</time>
      </trkpt>
      <trkpt lat="44.46873" lon="6.54954">
        <ele>1813</ele>
        <time>2020-02-23T10:23:43Z</time>
      </trkpt>
      <trkpt lat="44.46871" lon="6.54957">
        <ele>1813</ele>
        <time>2020-02-23T10:23:46Z</time>
      </trkpt>
      <trkpt lat="44.4687" lon="6.54961">
        <ele>1814</ele>
        <time>2020-02-23T10:23:50Z</time>
      </trkpt>
      <trkpt lat="44.46871" lon="6.54966">
        <ele>1815</ele>
        <time>2020-02-23T10:23:53Z</time>
      </trkpt>
      <trkpt lat="44.46871" lon="6.5497">
        <ele>1816</ele>
        <time>2020-02-23T10:23:56Z</time>
      </trkpt>
      <trkpt lat="44.46871" lon="6.54974">
        <ele>1816</ele>
        <time>2020-02-23T10:24:00Z</time>
      </trkpt>
      <trkpt lat="44.46872" lon="6.54978">
        <ele>1818</ele>
        <time>2020-02-23T10:24:06Z</time>
      </trkpt>
      <trkpt lat="44.4687" lon="6.54984">
        <ele>1820</ele>
        <time>2020-02-23T10:24:12Z</time>
      </trkpt>
      <trkpt lat="44.4687" lon="6.54992">
        <ele>1823</ele>
        <time>2020-02-23T10:24:19Z</time>
      </trkpt>
      <trkpt lat="44.46868" lon="6.54994">
        <ele>1825</ele>
        <time>2020-02-23T10:24:22Z</time>
      </trkpt>
      <trkpt lat="44.46865" lon="6.54994">
        <ele>1825</ele>
        <time>2020-02-23T10:24:26Z</time>
      </trkpt>
      <trkpt lat="44.46858" lon="6.55001">
        <ele>1826</ele>
        <time>2020-02-23T10:24:32Z</time>
      </trkpt>
      <trkpt lat="44.46856" lon="6.55004">
        <ele>1827</ele>
        <time>2020-02-23T10:24:39Z</time>
      </trkpt>
      <trkpt lat="44.46855" lon="6.55007">
        <ele>1829</ele>
        <time>2020-02-23T10:24:44Z</time>
      </trkpt>
      <trkpt lat="44.46852" lon="6.55008">
        <ele>1830</ele>
        <time>2020-02-23T10:24:47Z</time>
      </trkpt>
      <trkpt lat="44.4685" lon="6.55007">
        <ele>1831</ele>
        <time>2020-02-23T10:24:50Z</time>
      </trkpt>
      <trkpt lat="44.46844" lon="6.55011">
        <ele>1832</ele>
        <time>2020-02-23T10:24:59Z</time>
      </trkpt>
      <trkpt lat="44.4684" lon="6.55008">
        <ele>1835</ele>
        <time>2020-02-23T10:25:01Z</time>
      </trkpt>
      <trkpt lat="44.46838" lon="6.5501">
        <ele>1836</ele>
        <time>2020-02-23T10:25:09Z</time>
      </trkpt>
      <trkpt lat="44.46833" lon="6.55011">
        <ele>1836</ele>
        <time>2020-02-23T10:25:20Z</time>
      </trkpt>
      <trkpt lat="44.46831" lon="6.5501">
        <ele>1838</ele>
        <time>2020-02-23T10:25:24Z</time>
      </trkpt>
      <trkpt lat="44.46829" lon="6.55008">
        <ele>1838</ele>
        <time>2020-02-23T10:25:27Z</time>
      </trkpt>
      <trkpt lat="44.46826" lon="6.5501">
        <ele>1839</ele>
        <time>2020-02-23T10:25:30Z</time>
      </trkpt>
      <trkpt lat="44.46823" lon="6.5501">
        <ele>1840</ele>
        <time>2020-02-23T10:25:33Z</time>
      </trkpt>
      <trkpt lat="44.46821" lon="6.55008">
        <ele>1840</ele>
        <time>2020-02-23T10:25:39Z</time>
      </trkpt>
      <trkpt lat="44.46819" lon="6.55008">
        <ele>1840</ele>
        <time>2020-02-23T10:25:43Z</time>
      </trkpt>
      <trkpt lat="44.46817" lon="6.55011">
        <ele>1839</ele>
        <time>2020-02-23T10:25:47Z</time>
      </trkpt>
      <trkpt lat="44.46818" lon="6.55014">
        <ele>1839</ele>
        <time>2020-02-23T10:25:51Z</time>
      </trkpt>
      <trkpt lat="44.46819" lon="6.55017">
        <ele>1839</ele>
        <time>2020-02-23T10:25:54Z</time>
      </trkpt>
      <trkpt lat="44.46819" lon="6.55021">
        <ele>1839</ele>
        <time>2020-02-23T10:25:57Z</time>
      </trkpt>
      <trkpt lat="44.46819" lon="6.55028">
        <ele>1840</ele>
        <time>2020-02-23T10:26:05Z</time>
      </trkpt>
      <trkpt lat="44.46822" lon="6.55033">
        <ele>1843</ele>
        <time>2020-02-23T10:26:10Z</time>
      </trkpt>
      <trkpt lat="44.46823" lon="6.55037">
        <ele>1843</ele>
        <time>2020-02-23T10:26:13Z</time>
      </trkpt>
      <trkpt lat="44.46823" lon="6.55041">
        <ele>1843</ele>
        <time>2020-02-23T10:26:17Z</time>
      </trkpt>
      <trkpt lat="44.46825" lon="6.55045">
        <ele>1844</ele>
        <time>2020-02-23T10:26:22Z</time>
      </trkpt>
      <trkpt lat="44.46826" lon="6.55054">
        <ele>1846</ele>
        <time>2020-02-23T10:26:31Z</time>
      </trkpt>
      <trkpt lat="44.46824" lon="6.55057">
        <ele>1847</ele>
        <time>2020-02-23T10:26:36Z</time>
      </trkpt>
      <trkpt lat="44.46825" lon="6.55057">
        <ele>1848</ele>
        <time>2020-02-23T10:26:42Z</time>
      </trkpt>
      <trkpt lat="44.46822" lon="6.55053">
        <ele>1848</ele>
        <time>2020-02-23T10:26:44Z</time>
      </trkpt>
      <trkpt lat="44.46821" lon="6.55048">
        <ele>1849</ele>
        <time>2020-02-23T10:26:46Z</time>
      </trkpt>
      <trkpt lat="44.46817" lon="6.55048">
        <ele>1852</ele>
        <time>2020-02-23T10:26:50Z</time>
      </trkpt>
      <trkpt lat="44.46813" lon="6.55047">
        <ele>1853</ele>
        <time>2020-02-23T10:26:56Z</time>
      </trkpt>
      <trkpt lat="44.46807" lon="6.55043">
        <ele>1853</ele>
        <time>2020-02-23T10:27:05Z</time>
      </trkpt>
      <trkpt lat="44.46805" lon="6.55041">
        <ele>1854</ele>
        <time>2020-02-23T10:27:10Z</time>
      </trkpt>
      <trkpt lat="44.46802" lon="6.55038">
        <ele>1854</ele>
        <time>2020-02-23T10:27:14Z</time>
      </trkpt>
      <trkpt lat="44.468" lon="6.55037">
        <ele>1854</ele>
        <time>2020-02-23T10:27:16Z</time>
      </trkpt>
      <trkpt lat="44.46796" lon="6.55038">
        <ele>1855</ele>
        <time>2020-02-23T10:27:27Z</time>
      </trkpt>
      <trkpt lat="44.46793" lon="6.55036">
        <ele>1855</ele>
        <time>2020-02-23T10:27:32Z</time>
      </trkpt>
      <trkpt lat="44.46791" lon="6.55034">
        <ele>1855</ele>
        <time>2020-02-23T10:27:37Z</time>
      </trkpt>
      <trkpt lat="44.4679" lon="6.5503">
        <ele>1859</ele>
        <time>2020-02-23T10:27:45Z</time>
      </trkpt>
      <trkpt lat="44.46787" lon="6.5503">
        <ele>1861</ele>
        <time>2020-02-23T10:27:51Z</time>
      </trkpt>
      <trkpt lat="44.46784" lon="6.55032">
        <ele>1860</ele>
        <time>2020-02-23T10:28:01Z</time>
      </trkpt>
      <trkpt lat="44.4678" lon="6.55029">
        <ele>1861</ele>
        <time>2020-02-23T10:28:04Z</time>
      </trkpt>
      <trkpt lat="44.46777" lon="6.55027">
        <ele>1861</ele>
        <time>2020-02-23T10:28:11Z</time>
      </trkpt>
      <trkpt lat="44.46775" lon="6.55027">
        <ele>1860</ele>
        <time>2020-02-23T10:28:17Z</time>
      </trkpt>
      <trkpt lat="44.46773" lon="6.55024">
        <ele>1861</ele>
        <time>2020-02-23T10:28:20Z</time>
      </trkpt>
      <trkpt lat="44.46771" lon="6.5502">
        <ele>1862</ele>
        <time>2020-02-23T10:28:26Z</time>
      </trkpt>
      <trkpt lat="44.46768" lon="6.5501">
        <ele>1864</ele>
        <time>2020-02-23T10:28:32Z</time>
      </trkpt>
      <trkpt lat="44.4676" lon="6.55008">
        <ele>1864</ele>
        <time>2020-02-23T10:28:41Z</time>
      </trkpt>
      <trkpt lat="44.46757" lon="6.55008">
        <ele>1863</ele>
        <time>2020-02-23T10:28:44Z</time>
      </trkpt>
      <trkpt lat="44.46757" lon="6.55013">
        <ele>1863</ele>
        <time>2020-02-23T10:28:49Z</time>
      </trkpt>
      <trkpt lat="44.46757" lon="6.55016">
        <ele>1864</ele>
        <time>2020-02-23T10:28:51Z</time>
      </trkpt>
      <trkpt lat="44.46754" lon="6.55018">
        <ele>1865</ele>
        <time>2020-02-23T10:28:57Z</time>
      </trkpt>
      <trkpt lat="44.46752" lon="6.55012">
        <ele>1866</ele>
        <time>2020-02-23T10:29:02Z</time>
      </trkpt>
      <trkpt lat="44.46746" lon="6.55011">
        <ele>1868</ele>
        <time>2020-02-23T10:29:30Z</time>
      </trkpt>
      <trkpt lat="44.46744" lon="6.55014">
        <ele>1869</ele>
        <time>2020-02-23T10:29:37Z</time>
      </trkpt>
      <trkpt lat="44.46741" lon="6.55015">
        <ele>1869</ele>
        <time>2020-02-23T10:29:41Z</time>
      </trkpt>
      <trkpt lat="44.46738" lon="6.55015">
        <ele>1872</ele>
        <time>2020-02-23T10:29:44Z</time>
      </trkpt>
      <trkpt lat="44.4673" lon="6.55011">
        <ele>1873</ele>
        <time>2020-02-23T10:29:56Z</time>
      </trkpt>
      <trkpt lat="44.46728" lon="6.55008">
        <ele>1879</ele>
        <time>2020-02-23T10:30:14Z</time>
      </trkpt>
      <trkpt lat="44.46726" lon="6.55005">
        <ele>1879</ele>
        <time>2020-02-23T10:30:18Z</time>
      </trkpt>
      <trkpt lat="44.46725" lon="6.55004">
        <ele>1878</ele>
        <time>2020-02-23T10:30:20Z</time>
      </trkpt>
      <trkpt lat="44.4672" lon="6.55004">
        <ele>1878</ele>
        <time>2020-02-23T10:30:25Z</time>
      </trkpt>
      <trkpt lat="44.46719" lon="6.55008">
        <ele>1877</ele>
        <time>2020-02-23T10:30:29Z</time>
      </trkpt>
      <trkpt lat="44.46719" lon="6.5501">
        <ele>1877</ele>
        <time>2020-02-23T10:30:33Z</time>
      </trkpt>
      <trkpt lat="44.46718" lon="6.55014">
        <ele>1877</ele>
        <time>2020-02-23T10:30:40Z</time>
      </trkpt>
      <trkpt lat="44.46717" lon="6.55018">
        <ele>1877</ele>
        <time>2020-02-23T10:30:42Z</time>
      </trkpt>
      <trkpt lat="44.46717" lon="6.55021">
        <ele>1877</ele>
        <time>2020-02-23T10:30:45Z</time>
      </trkpt>
      <trkpt lat="44.46714" lon="6.55031">
        <ele>1877</ele>
        <time>2020-02-23T10:30:52Z</time>
      </trkpt>
      <trkpt lat="44.46714" lon="6.5503">
        <ele>1879</ele>
        <time>2020-02-23T10:30:58Z</time>
      </trkpt>
      <trkpt lat="44.46711" lon="6.55031">
        <ele>1879</ele>
        <time>2020-02-23T10:31:00Z</time>
      </trkpt>
      <trkpt lat="44.46706" lon="6.5503">
        <ele>1882</ele>
        <time>2020-02-23T10:31:08Z</time>
      </trkpt>
      <trkpt lat="44.46701" lon="6.55027">
        <ele>1884</ele>
        <time>2020-02-23T10:31:15Z</time>
      </trkpt>
      <trkpt lat="44.46699" lon="6.55023">
        <ele>1884</ele>
        <time>2020-02-23T10:31:18Z</time>
      </trkpt>
      <trkpt lat="44.46696" lon="6.55019">
        <ele>1886</ele>
        <time>2020-02-23T10:31:25Z</time>
      </trkpt>
      <trkpt lat="44.46695" lon="6.55019">
        <ele>1886</ele>
        <time>2020-02-23T10:31:28Z</time>
      </trkpt>
      <trkpt lat="44.46692" lon="6.55019">
        <ele>1887</ele>
        <time>2020-02-23T10:31:32Z</time>
      </trkpt>
      <trkpt lat="44.4669" lon="6.55021">
        <ele>1887</ele>
        <time>2020-02-23T10:31:39Z</time>
      </trkpt>
      <trkpt lat="44.46688" lon="6.55024">
        <ele>1887</ele>
        <time>2020-02-23T10:31:41Z</time>
      </trkpt>
      <trkpt lat="44.46688" lon="6.55027">
        <ele>1887</ele>
        <time>2020-02-23T10:31:43Z</time>
      </trkpt>
      <trkpt lat="44.46686" lon="6.5503">
        <ele>1887</ele>
        <time>2020-02-23T10:31:46Z</time>
      </trkpt>
      <trkpt lat="44.46684" lon="6.55034">
        <ele>1888</ele>
        <time>2020-02-23T10:31:52Z</time>
      </trkpt>
      <trkpt lat="44.46682" lon="6.55036">
        <ele>1892</ele>
        <time>2020-02-23T10:32:02Z</time>
      </trkpt>
      <trkpt lat="44.4668" lon="6.55035">
        <ele>1893</ele>
        <time>2020-02-23T10:32:05Z</time>
      </trkpt>
      <trkpt lat="44.46677" lon="6.55036">
        <ele>1892</ele>
        <time>2020-02-23T10:32:08Z</time>
      </trkpt>
      <trkpt lat="44.46675" lon="6.55034">
        <ele>1892</ele>
        <time>2020-02-23T10:32:12Z</time>
      </trkpt>
      <trkpt lat="44.46673" lon="6.55032">
        <ele>1893</ele>
        <time>2020-02-23T10:32:18Z</time>
      </trkpt>
      <trkpt lat="44.46671" lon="6.55032">
        <ele>1893</ele>
        <time>2020-02-23T10:32:21Z</time>
      </trkpt>
      <trkpt lat="44.46667" lon="6.55029">
        <ele>1895</ele>
        <time>2020-02-23T10:32:28Z</time>
      </trkpt>
      <trkpt lat="44.46664" lon="6.55029">
        <ele>1896</ele>
        <time>2020-02-23T10:32:31Z</time>
      </trkpt>
      <trkpt lat="44.46662" lon="6.55031">
        <ele>1897</ele>
        <time>2020-02-23T10:32:36Z</time>
      </trkpt>
      <trkpt lat="44.4666" lon="6.5503">
        <ele>1899</ele>
        <time>2020-02-23T10:32:41Z</time>
      </trkpt>
      <trkpt lat="44.46655" lon="6.55029">
        <ele>1898</ele>
        <time>2020-02-23T10:32:47Z</time>
      </trkpt>
      <trkpt lat="44.46652" lon="6.55028">
        <ele>1898</ele>
        <time>2020-02-23T10:32:54Z</time>
      </trkpt>
      <trkpt lat="44.46649" lon="6.55022">
        <ele>1901</ele>
        <time>2020-02-23T10:33:02Z</time>
      </trkpt>
      <trkpt lat="44.46647" lon="6.55019">
        <ele>1902</ele>
        <time>2020-02-23T10:33:07Z</time>
      </trkpt>
      <trkpt lat="44.46642" lon="6.55016">
        <ele>1904</ele>
        <time>2020-02-23T10:33:14Z</time>
      </trkpt>
      <trkpt lat="44.46639" lon="6.55011">
        <ele>1906</ele>
        <time>2020-02-23T10:33:22Z</time>
      </trkpt>
      <trkpt lat="44.46637" lon="6.55008">
        <ele>1906</ele>
        <time>2020-02-23T10:33:26Z</time>
      </trkpt>
      <trkpt lat="44.46635" lon="6.55006">
        <ele>1906</ele>
        <time>2020-02-23T10:33:29Z</time>
      </trkpt>
      <trkpt lat="44.46633" lon="6.54994">
        <ele>1912</ele>
        <time>2020-02-23T10:33:42Z</time>
      </trkpt>
      <trkpt lat="44.46633" lon="6.54991">
        <ele>1913</ele>
        <time>2020-02-23T10:33:48Z</time>
      </trkpt>
      <trkpt lat="44.46633" lon="6.54988">
        <ele>1913</ele>
        <time>2020-02-23T10:33:51Z</time>
      </trkpt>
      <trkpt lat="44.46633" lon="6.54984">
        <ele>1913</ele>
        <time>2020-02-23T10:34:03Z</time>
      </trkpt>
      <trkpt lat="44.46634" lon="6.5498">
        <ele>1913</ele>
        <time>2020-02-23T10:34:06Z</time>
      </trkpt>
      <trkpt lat="44.46634" lon="6.54975">
        <ele>1916</ele>
        <time>2020-02-23T10:34:09Z</time>
      </trkpt>
      <trkpt lat="44.46635" lon="6.54972">
        <ele>1916</ele>
        <time>2020-02-23T10:34:11Z</time>
      </trkpt>
      <trkpt lat="44.46635" lon="6.54968">
        <ele>1916</ele>
        <time>2020-02-23T10:34:15Z</time>
      </trkpt>
      <trkpt lat="44.46633" lon="6.54965">
        <ele>1916</ele>
        <time>2020-02-23T10:34:17Z</time>
      </trkpt>
      <trkpt lat="44.46631" lon="6.54969">
        <ele>1917</ele>
        <time>2020-02-23T10:34:19Z</time>
      </trkpt>
      <trkpt lat="44.46626" lon="6.54968">
        <ele>1918</ele>
        <time>2020-02-23T10:34:24Z</time>
      </trkpt>
      <trkpt lat="44.46625" lon="6.54965">
        <ele>1918</ele>
        <time>2020-02-23T10:34:27Z</time>
      </trkpt>
      <trkpt lat="44.46623" lon="6.54963">
        <ele>1919</ele>
        <time>2020-02-23T10:34:35Z</time>
      </trkpt>
      <trkpt lat="44.4662" lon="6.54962">
        <ele>1919</ele>
        <time>2020-02-23T10:34:40Z</time>
      </trkpt>
      <trkpt lat="44.46619" lon="6.54959">
        <ele>1920</ele>
        <time>2020-02-23T10:34:42Z</time>
      </trkpt>
      <trkpt lat="44.46618" lon="6.54957">
        <ele>1920</ele>
        <time>2020-02-23T10:34:45Z</time>
      </trkpt>
      <trkpt lat="44.46616" lon="6.54954">
        <ele>1920</ele>
        <time>2020-02-23T10:34:48Z</time>
      </trkpt>
      <trkpt lat="44.46614" lon="6.54954">
        <ele>1920</ele>
        <time>2020-02-23T10:34:50Z</time>
      </trkpt>
      <trkpt lat="44.46611" lon="6.54952">
        <ele>1923</ele>
        <time>2020-02-23T10:34:55Z</time>
      </trkpt>
      <trkpt lat="44.46609" lon="6.54953">
        <ele>1924</ele>
        <time>2020-02-23T10:34:59Z</time>
      </trkpt>
      <trkpt lat="44.46607" lon="6.54956">
        <ele>1924</ele>
        <time>2020-02-23T10:35:02Z</time>
      </trkpt>
      <trkpt lat="44.46605" lon="6.54958">
        <ele>1924</ele>
        <time>2020-02-23T10:35:05Z</time>
      </trkpt>
      <trkpt lat="44.46604" lon="6.5496">
        <ele>1925</ele>
        <time>2020-02-23T10:35:08Z</time>
      </trkpt>
      <trkpt lat="44.46603" lon="6.54961">
        <ele>1925</ele>
        <time>2020-02-23T10:35:11Z</time>
      </trkpt>
      <trkpt lat="44.466" lon="6.54961">
        <ele>1926</ele>
        <time>2020-02-23T10:35:15Z</time>
      </trkpt>
      <trkpt lat="44.46598" lon="6.5496">
        <ele>1927</ele>
        <time>2020-02-23T10:35:18Z</time>
      </trkpt>
      <trkpt lat="44.46596" lon="6.54959">
        <ele>1927</ele>
        <time>2020-02-23T10:35:21Z</time>
      </trkpt>
      <trkpt lat="44.46594" lon="6.54957">
        <ele>1928</ele>
        <time>2020-02-23T10:35:24Z</time>
      </trkpt>
      <trkpt lat="44.46592" lon="6.54958">
        <ele>1928</ele>
        <time>2020-02-23T10:35:27Z</time>
      </trkpt>
      <trkpt lat="44.4659" lon="6.5496">
        <ele>1930</ele>
        <time>2020-02-23T10:35:31Z</time>
      </trkpt>
      <trkpt lat="44.46588" lon="6.54961">
        <ele>1931</ele>
        <time>2020-02-23T10:35:36Z</time>
      </trkpt>
      <trkpt lat="44.46587" lon="6.54959">
        <ele>1932</ele>
        <time>2020-02-23T10:35:42Z</time>
      </trkpt>
      <trkpt lat="44.46584" lon="6.54957">
        <ele>1933</ele>
        <time>2020-02-23T10:35:47Z</time>
      </trkpt>
      <trkpt lat="44.46583" lon="6.54955">
        <ele>1934</ele>
        <time>2020-02-23T10:35:51Z</time>
      </trkpt>
      <trkpt lat="44.46582" lon="6.54952">
        <ele>1935</ele>
        <time>2020-02-23T10:36:01Z</time>
      </trkpt>
      <trkpt lat="44.46582" lon="6.54941">
        <ele>1936</ele>
        <time>2020-02-23T10:36:11Z</time>
      </trkpt>
      <trkpt lat="44.46581" lon="6.54937">
        <ele>1938</ele>
        <time>2020-02-23T10:36:15Z</time>
      </trkpt>
      <trkpt lat="44.46582" lon="6.54932">
        <ele>1939</ele>
        <time>2020-02-23T10:36:18Z</time>
      </trkpt>
      <trkpt lat="44.46582" lon="6.54928">
        <ele>1941</ele>
        <time>2020-02-23T10:36:24Z</time>
      </trkpt>
      <trkpt lat="44.46581" lon="6.54926">
        <ele>1941</ele>
        <time>2020-02-23T10:36:28Z</time>
      </trkpt>
      <trkpt lat="44.46582" lon="6.54921">
        <ele>1941</ele>
        <time>2020-02-23T10:36:33Z</time>
      </trkpt>
      <trkpt lat="44.46584" lon="6.54917">
        <ele>1941</ele>
        <time>2020-02-23T10:36:36Z</time>
      </trkpt>
      <trkpt lat="44.46584" lon="6.54913">
        <ele>1941</ele>
        <time>2020-02-23T10:36:40Z</time>
      </trkpt>
      <trkpt lat="44.46589" lon="6.54912">
        <ele>1942</ele>
        <time>2020-02-23T10:36:44Z</time>
      </trkpt>
      <trkpt lat="44.46588" lon="6.54908">
        <ele>1944</ele>
        <time>2020-02-23T10:37:09Z</time>
      </trkpt>
      <trkpt lat="44.46585" lon="6.54905">
        <ele>1944</ele>
        <time>2020-02-23T10:38:00Z</time>
      </trkpt>
      <trkpt lat="44.46582" lon="6.54906">
        <ele>1944</ele>
        <time>2020-02-23T10:38:03Z</time>
      </trkpt>
      <trkpt lat="44.4658" lon="6.5491">
        <ele>1944</ele>
        <time>2020-02-23T10:38:06Z</time>
      </trkpt>
      <trkpt lat="44.46578" lon="6.54914">
        <ele>1946</ele>
        <time>2020-02-23T10:38:09Z</time>
      </trkpt>
      <trkpt lat="44.46575" lon="6.54917">
        <ele>1946</ele>
        <time>2020-02-23T10:38:13Z</time>
      </trkpt>
      <trkpt lat="44.46572" lon="6.54919">
        <ele>1946</ele>
        <time>2020-02-23T10:38:18Z</time>
      </trkpt>
      <trkpt lat="44.46569" lon="6.54921">
        <ele>1947</ele>
        <time>2020-02-23T10:38:22Z</time>
      </trkpt>
      <trkpt lat="44.46567" lon="6.54923">
        <ele>1948</ele>
        <time>2020-02-23T10:38:30Z</time>
      </trkpt>
      <trkpt lat="44.46561" lon="6.5493">
        <ele>1949</ele>
        <time>2020-02-23T10:38:47Z</time>
      </trkpt>
      <trkpt lat="44.46559" lon="6.54933">
        <ele>1949</ele>
        <time>2020-02-23T10:38:49Z</time>
      </trkpt>
      <trkpt lat="44.46557" lon="6.54938">
        <ele>1949</ele>
        <time>2020-02-23T10:38:56Z</time>
      </trkpt>
      <trkpt lat="44.46555" lon="6.54941">
        <ele>1950</ele>
        <time>2020-02-23T10:38:58Z</time>
      </trkpt>
      <trkpt lat="44.46546" lon="6.54957">
        <ele>1952</ele>
        <time>2020-02-23T10:39:12Z</time>
      </trkpt>
      <trkpt lat="44.46541" lon="6.54965">
        <ele>1954</ele>
        <time>2020-02-23T10:39:19Z</time>
      </trkpt>
      <trkpt lat="44.46539" lon="6.54969">
        <ele>1954</ele>
        <time>2020-02-23T10:39:24Z</time>
      </trkpt>
      <trkpt lat="44.46537" lon="6.54985">
        <ele>1956</ele>
        <time>2020-02-23T10:39:37Z</time>
      </trkpt>
      <trkpt lat="44.46541" lon="6.54989">
        <ele>1959</ele>
        <time>2020-02-23T10:39:40Z</time>
      </trkpt>
      <trkpt lat="44.46541" lon="6.54994">
        <ele>1960</ele>
        <time>2020-02-23T10:39:43Z</time>
      </trkpt>
      <trkpt lat="44.46541" lon="6.54999">
        <ele>1961</ele>
        <time>2020-02-23T10:39:47Z</time>
      </trkpt>
      <trkpt lat="44.46539" lon="6.55004">
        <ele>1961</ele>
        <time>2020-02-23T10:39:52Z</time>
      </trkpt>
      <trkpt lat="44.46537" lon="6.5501">
        <ele>1964</ele>
        <time>2020-02-23T10:39:59Z</time>
      </trkpt>
      <trkpt lat="44.46533" lon="6.5502">
        <ele>1967</ele>
        <time>2020-02-23T10:40:10Z</time>
      </trkpt>
      <trkpt lat="44.46533" lon="6.55025">
        <ele>1967</ele>
        <time>2020-02-23T10:40:14Z</time>
      </trkpt>
      <trkpt lat="44.46529" lon="6.55034">
        <ele>1968</ele>
        <time>2020-02-23T10:40:23Z</time>
      </trkpt>
      <trkpt lat="44.46527" lon="6.55038">
        <ele>1968</ele>
        <time>2020-02-23T10:40:26Z</time>
      </trkpt>
      <trkpt lat="44.46527" lon="6.55043">
        <ele>1969</ele>
        <time>2020-02-23T10:40:31Z</time>
      </trkpt>
      <trkpt lat="44.46526" lon="6.55052">
        <ele>1970</ele>
        <time>2020-02-23T10:40:49Z</time>
      </trkpt>
      <trkpt lat="44.46525" lon="6.55057">
        <ele>1970</ele>
        <time>2020-02-23T10:40:51Z</time>
      </trkpt>
      <trkpt lat="44.46525" lon="6.55066">
        <ele>1970</ele>
        <time>2020-02-23T10:40:57Z</time>
      </trkpt>
      <trkpt lat="44.46523" lon="6.55069">
        <ele>1971</ele>
        <time>2020-02-23T10:41:02Z</time>
      </trkpt>
      <trkpt lat="44.46521" lon="6.55073">
        <ele>1971</ele>
        <time>2020-02-23T10:41:05Z</time>
      </trkpt>
      <trkpt lat="44.46519" lon="6.55078">
        <ele>1972</ele>
        <time>2020-02-23T10:41:09Z</time>
      </trkpt>
      <trkpt lat="44.46519" lon="6.55082">
        <ele>1973</ele>
        <time>2020-02-23T10:41:12Z</time>
      </trkpt>
      <trkpt lat="44.46519" lon="6.55087">
        <ele>1974</ele>
        <time>2020-02-23T10:41:19Z</time>
      </trkpt>
      <trkpt lat="44.46519" lon="6.55098">
        <ele>1977</ele>
        <time>2020-02-23T10:41:32Z</time>
      </trkpt>
      <trkpt lat="44.46518" lon="6.55103">
        <ele>1980</ele>
        <time>2020-02-23T10:41:35Z</time>
      </trkpt>
      <trkpt lat="44.46519" lon="6.5511">
        <ele>1981</ele>
        <time>2020-02-23T10:41:37Z</time>
      </trkpt>
      <trkpt lat="44.46517" lon="6.55114">
        <ele>1983</ele>
        <time>2020-02-23T10:41:42Z</time>
      </trkpt>
      <trkpt lat="44.46517" lon="6.55119">
        <ele>1984</ele>
        <time>2020-02-23T10:41:57Z</time>
      </trkpt>
      <trkpt lat="44.46516" lon="6.55125">
        <ele>1984</ele>
        <time>2020-02-23T10:42:00Z</time>
      </trkpt>
      <trkpt lat="44.46513" lon="6.55128">
        <ele>1985</ele>
        <time>2020-02-23T10:42:05Z</time>
      </trkpt>
      <trkpt lat="44.46512" lon="6.55134">
        <ele>1986</ele>
        <time>2020-02-23T10:42:13Z</time>
      </trkpt>
      <trkpt lat="44.4651" lon="6.55137">
        <ele>1986</ele>
        <time>2020-02-23T10:42:17Z</time>
      </trkpt>
      <trkpt lat="44.46508" lon="6.55141">
        <ele>1986</ele>
        <time>2020-02-23T10:42:23Z</time>
      </trkpt>
      <trkpt lat="44.46506" lon="6.55143">
        <ele>1987</ele>
        <time>2020-02-23T10:42:31Z</time>
      </trkpt>
      <trkpt lat="44.46502" lon="6.55156">
        <ele>1988</ele>
        <time>2020-02-23T10:42:47Z</time>
      </trkpt>
      <trkpt lat="44.46502" lon="6.55161">
        <ele>1989</ele>
        <time>2020-02-23T10:42:51Z</time>
      </trkpt>
      <trkpt lat="44.465" lon="6.55166">
        <ele>1989</ele>
        <time>2020-02-23T10:42:54Z</time>
      </trkpt>
      <trkpt lat="44.46499" lon="6.5517">
        <ele>1991</ele>
        <time>2020-02-23T10:42:58Z</time>
      </trkpt>
      <trkpt lat="44.46498" lon="6.55178">
        <ele>1993</ele>
        <time>2020-02-23T10:43:02Z</time>
      </trkpt>
      <trkpt lat="44.46491" lon="6.55196">
        <ele>1997</ele>
        <time>2020-02-23T10:43:25Z</time>
      </trkpt>
      <trkpt lat="44.46489" lon="6.55201">
        <ele>1998</ele>
        <time>2020-02-23T10:43:28Z</time>
      </trkpt>
      <trkpt lat="44.46488" lon="6.55208">
        <ele>2001</ele>
        <time>2020-02-23T10:43:31Z</time>
      </trkpt>
      <trkpt lat="44.46486" lon="6.55212">
        <ele>2003</ele>
        <time>2020-02-23T10:43:37Z</time>
      </trkpt>
      <trkpt lat="44.46483" lon="6.55221">
        <ele>2005</ele>
        <time>2020-02-23T10:43:58Z</time>
      </trkpt>
      <trkpt lat="44.46482" lon="6.55225">
        <ele>2005</ele>
        <time>2020-02-23T10:44:00Z</time>
      </trkpt>
      <trkpt lat="44.4648" lon="6.55229">
        <ele>2005</ele>
        <time>2020-02-23T10:44:03Z</time>
      </trkpt>
      <trkpt lat="44.4648" lon="6.55238">
        <ele>2005</ele>
        <time>2020-02-23T10:44:10Z</time>
      </trkpt>
      <trkpt lat="44.4648" lon="6.55243">
        <ele>2005</ele>
        <time>2020-02-23T10:44:13Z</time>
      </trkpt>
      <trkpt lat="44.46477" lon="6.55252">
        <ele>2005</ele>
        <time>2020-02-23T10:44:19Z</time>
      </trkpt>
      <trkpt lat="44.46478" lon="6.55256">
        <ele>2004</ele>
        <time>2020-02-23T10:44:23Z</time>
      </trkpt>
      <trkpt lat="44.46481" lon="6.55266">
        <ele>2006</ele>
        <time>2020-02-23T10:44:35Z</time>
      </trkpt>
      <trkpt lat="44.46482" lon="6.55272">
        <ele>2008</ele>
        <time>2020-02-23T10:44:42Z</time>
      </trkpt>
      <trkpt lat="44.46482" lon="6.55276">
        <ele>2009</ele>
        <time>2020-02-23T10:44:45Z</time>
      </trkpt>
      <trkpt lat="44.46481" lon="6.55284">
        <ele>2011</ele>
        <time>2020-02-23T10:44:55Z</time>
      </trkpt>
      <trkpt lat="44.46479" lon="6.55287">
        <ele>2012</ele>
        <time>2020-02-23T10:44:58Z</time>
      </trkpt>
      <trkpt lat="44.46477" lon="6.55288">
        <ele>2013</ele>
        <time>2020-02-23T10:45:01Z</time>
      </trkpt>
      <trkpt lat="44.46475" lon="6.55291">
        <ele>2013</ele>
        <time>2020-02-23T10:45:04Z</time>
      </trkpt>
      <trkpt lat="44.46472" lon="6.55292">
        <ele>2017</ele>
        <time>2020-02-23T10:45:12Z</time>
      </trkpt>
      <trkpt lat="44.46469" lon="6.55293">
        <ele>2018</ele>
        <time>2020-02-23T10:45:17Z</time>
      </trkpt>
      <trkpt lat="44.46463" lon="6.553">
        <ele>2020</ele>
        <time>2020-02-23T10:45:30Z</time>
      </trkpt>
      <trkpt lat="44.46457" lon="6.55306">
        <ele>2024</ele>
        <time>2020-02-23T10:45:38Z</time>
      </trkpt>
      <trkpt lat="44.46455" lon="6.55308">
        <ele>2024</ele>
        <time>2020-02-23T10:45:42Z</time>
      </trkpt>
      <trkpt lat="44.46453" lon="6.55311">
        <ele>2024</ele>
        <time>2020-02-23T10:45:45Z</time>
      </trkpt>
      <trkpt lat="44.46451" lon="6.55315">
        <ele>2025</ele>
        <time>2020-02-23T10:45:49Z</time>
      </trkpt>
      <trkpt lat="44.46449" lon="6.55318">
        <ele>2026</ele>
        <time>2020-02-23T10:45:52Z</time>
      </trkpt>
      <trkpt lat="44.46447" lon="6.55323">
        <ele>2027</ele>
        <time>2020-02-23T10:45:58Z</time>
      </trkpt>
      <trkpt lat="44.46444" lon="6.55327">
        <ele>2029</ele>
        <time>2020-02-23T10:46:03Z</time>
      </trkpt>
      <trkpt lat="44.46442" lon="6.5533">
        <ele>2030</ele>
        <time>2020-02-23T10:46:06Z</time>
      </trkpt>
      <trkpt lat="44.46439" lon="6.55334">
        <ele>2031</ele>
        <time>2020-02-23T10:46:13Z</time>
      </trkpt>
      <trkpt lat="44.46435" lon="6.55338">
        <ele>2031</ele>
        <time>2020-02-23T10:46:21Z</time>
      </trkpt>
      <trkpt lat="44.46434" lon="6.55343">
        <ele>2032</ele>
        <time>2020-02-23T10:46:24Z</time>
      </trkpt>
      <trkpt lat="44.4643" lon="6.5535">
        <ele>2036</ele>
        <time>2020-02-23T10:46:33Z</time>
      </trkpt>
      <trkpt lat="44.46429" lon="6.55354">
        <ele>2037</ele>
        <time>2020-02-23T10:46:36Z</time>
      </trkpt>
      <trkpt lat="44.46425" lon="6.55357">
        <ele>2037</ele>
        <time>2020-02-23T10:46:47Z</time>
      </trkpt>
      <trkpt lat="44.46419" lon="6.55365">
        <ele>2038</ele>
        <time>2020-02-23T10:46:58Z</time>
      </trkpt>
      <trkpt lat="44.46417" lon="6.55367">
        <ele>2038</ele>
        <time>2020-02-23T10:47:01Z</time>
      </trkpt>
      <trkpt lat="44.46412" lon="6.55374">
        <ele>2038</ele>
        <time>2020-02-23T10:47:09Z</time>
      </trkpt>
      <trkpt lat="44.46409" lon="6.55375">
        <ele>2040</ele>
        <time>2020-02-23T10:47:15Z</time>
      </trkpt>
      <trkpt lat="44.46404" lon="6.55381">
        <ele>2043</ele>
        <time>2020-02-23T10:47:23Z</time>
      </trkpt>
      <trkpt lat="44.46402" lon="6.55384">
        <ele>2043</ele>
        <time>2020-02-23T10:47:26Z</time>
      </trkpt>
      <trkpt lat="44.46395" lon="6.55388">
        <ele>2046</ele>
        <time>2020-02-23T10:47:36Z</time>
      </trkpt>
      <trkpt lat="44.4639" lon="6.55395">
        <ele>2047</ele>
        <time>2020-02-23T10:47:46Z</time>
      </trkpt>
      <trkpt lat="44.46388" lon="6.55399">
        <ele>2047</ele>
        <time>2020-02-23T10:47:49Z</time>
      </trkpt>
      <trkpt lat="44.46387" lon="6.55402">
        <ele>2047</ele>
        <time>2020-02-23T10:47:53Z</time>
      </trkpt>
      <trkpt lat="44.46385" lon="6.55405">
        <ele>2048</ele>
        <time>2020-02-23T10:47:56Z</time>
      </trkpt>
      <trkpt lat="44.46384" lon="6.55408">
        <ele>2048</ele>
        <time>2020-02-23T10:48:00Z</time>
      </trkpt>
      <trkpt lat="44.46381" lon="6.55414">
        <ele>2049</ele>
        <time>2020-02-23T10:48:08Z</time>
      </trkpt>
      <trkpt lat="44.46378" lon="6.55417">
        <ele>2050</ele>
        <time>2020-02-23T10:48:13Z</time>
      </trkpt>
      <trkpt lat="44.46373" lon="6.55421">
        <ele>2051</ele>
        <time>2020-02-23T10:48:19Z</time>
      </trkpt>
      <trkpt lat="44.46372" lon="6.55424">
        <ele>2051</ele>
        <time>2020-02-23T10:48:23Z</time>
      </trkpt>
      <trkpt lat="44.4637" lon="6.55427">
        <ele>2050</ele>
        <time>2020-02-23T10:48:26Z</time>
      </trkpt>
      <trkpt lat="44.46367" lon="6.55429">
        <ele>2051</ele>
        <time>2020-02-23T10:48:30Z</time>
      </trkpt>
      <trkpt lat="44.46362" lon="6.55434">
        <ele>2053</ele>
        <time>2020-02-23T10:48:39Z</time>
      </trkpt>
      <trkpt lat="44.46345" lon="6.55462">
        <ele>2057</ele>
        <time>2020-02-23T10:49:11Z</time>
      </trkpt>
      <trkpt lat="44.46343" lon="6.55465">
        <ele>2057</ele>
        <time>2020-02-23T10:49:15Z</time>
      </trkpt>
      <trkpt lat="44.46341" lon="6.55468">
        <ele>2058</ele>
        <time>2020-02-23T10:49:20Z</time>
      </trkpt>
      <trkpt lat="44.4634" lon="6.5547">
        <ele>2061</ele>
        <time>2020-02-23T10:49:26Z</time>
      </trkpt>
      <trkpt lat="44.46338" lon="6.55472">
        <ele>2062</ele>
        <time>2020-02-23T10:49:29Z</time>
      </trkpt>
      <trkpt lat="44.46335" lon="6.55474">
        <ele>2064</ele>
        <time>2020-02-23T10:49:33Z</time>
      </trkpt>
      <trkpt lat="44.46333" lon="6.55478">
        <ele>2064</ele>
        <time>2020-02-23T10:49:37Z</time>
      </trkpt>
      <trkpt lat="44.46329" lon="6.55483">
        <ele>2065</ele>
        <time>2020-02-23T10:49:47Z</time>
      </trkpt>
      <trkpt lat="44.46327" lon="6.55485">
        <ele>2066</ele>
        <time>2020-02-23T10:49:51Z</time>
      </trkpt>
      <trkpt lat="44.46324" lon="6.5549">
        <ele>2067</ele>
        <time>2020-02-23T10:49:59Z</time>
      </trkpt>
      <trkpt lat="44.46319" lon="6.55494">
        <ele>2069</ele>
        <time>2020-02-23T10:50:06Z</time>
      </trkpt>
      <trkpt lat="44.46317" lon="6.55495">
        <ele>2069</ele>
        <time>2020-02-23T10:50:11Z</time>
      </trkpt>
      <trkpt lat="44.46315" lon="6.55496">
        <ele>2070</ele>
        <time>2020-02-23T10:50:15Z</time>
      </trkpt>
      <trkpt lat="44.4631" lon="6.55497">
        <ele>2071</ele>
        <time>2020-02-23T10:50:23Z</time>
      </trkpt>
      <trkpt lat="44.46308" lon="6.555">
        <ele>2072</ele>
        <time>2020-02-23T10:50:26Z</time>
      </trkpt>
      <trkpt lat="44.46302" lon="6.55506">
        <ele>2074</ele>
        <time>2020-02-23T10:50:38Z</time>
      </trkpt>
      <trkpt lat="44.46299" lon="6.55507">
        <ele>2076</ele>
        <time>2020-02-23T10:50:42Z</time>
      </trkpt>
      <trkpt lat="44.46298" lon="6.5551">
        <ele>2077</ele>
        <time>2020-02-23T10:50:46Z</time>
      </trkpt>
      <trkpt lat="44.46293" lon="6.55514">
        <ele>2078</ele>
        <time>2020-02-23T10:50:54Z</time>
      </trkpt>
      <trkpt lat="44.46291" lon="6.55514">
        <ele>2080</ele>
        <time>2020-02-23T10:50:58Z</time>
      </trkpt>
      <trkpt lat="44.46288" lon="6.55516">
        <ele>2082</ele>
        <time>2020-02-23T10:51:03Z</time>
      </trkpt>
      <trkpt lat="44.46284" lon="6.55518">
        <ele>2082</ele>
        <time>2020-02-23T10:51:13Z</time>
      </trkpt>
      <trkpt lat="44.46282" lon="6.55518">
        <ele>2083</ele>
        <time>2020-02-23T10:51:16Z</time>
      </trkpt>
      <trkpt lat="44.46281" lon="6.55517">
        <ele>2084</ele>
        <time>2020-02-23T10:51:19Z</time>
      </trkpt>
      <trkpt lat="44.46278" lon="6.55518">
        <ele>2083</ele>
        <time>2020-02-23T10:51:22Z</time>
      </trkpt>
      <trkpt lat="44.46276" lon="6.55518">
        <ele>2083</ele>
        <time>2020-02-23T10:51:25Z</time>
      </trkpt>
      <trkpt lat="44.46272" lon="6.55516">
        <ele>2083</ele>
        <time>2020-02-23T10:51:32Z</time>
      </trkpt>
      <trkpt lat="44.4627" lon="6.55512">
        <ele>2083</ele>
        <time>2020-02-23T10:51:37Z</time>
      </trkpt>
      <trkpt lat="44.46264" lon="6.55507">
        <ele>2082</ele>
        <time>2020-02-23T10:51:45Z</time>
      </trkpt>
      <trkpt lat="44.46258" lon="6.55499">
        <ele>2082</ele>
        <time>2020-02-23T10:51:53Z</time>
      </trkpt>
      <trkpt lat="44.46248" lon="6.55488">
        <ele>2081</ele>
        <time>2020-02-23T10:52:05Z</time>
      </trkpt>
      <trkpt lat="44.46244" lon="6.55484">
        <ele>2082</ele>
        <time>2020-02-23T10:52:10Z</time>
      </trkpt>
      <trkpt lat="44.4624" lon="6.5548">
        <ele>2082</ele>
        <time>2020-02-23T10:52:15Z</time>
      </trkpt>
      <trkpt lat="44.46237" lon="6.55478">
        <ele>2083</ele>
        <time>2020-02-23T10:52:18Z</time>
      </trkpt>
      <trkpt lat="44.46232" lon="6.55472">
        <ele>2083</ele>
        <time>2020-02-23T10:52:24Z</time>
      </trkpt>
      <trkpt lat="44.4623" lon="6.5547">
        <ele>2083</ele>
        <time>2020-02-23T10:52:28Z</time>
      </trkpt>
      <trkpt lat="44.4622" lon="6.55463">
        <ele>2086</ele>
        <time>2020-02-23T10:52:39Z</time>
      </trkpt>
      <trkpt lat="44.4621" lon="6.5546">
        <ele>2087</ele>
        <time>2020-02-23T10:52:51Z</time>
      </trkpt>
      <trkpt lat="44.46203" lon="6.55455">
        <ele>2088</ele>
        <time>2020-02-23T10:53:00Z</time>
      </trkpt>
      <trkpt lat="44.46193" lon="6.55452">
        <ele>2089</ele>
        <time>2020-02-23T10:53:12Z</time>
      </trkpt>
      <trkpt lat="44.46191" lon="6.5545">
        <ele>2090</ele>
        <time>2020-02-23T10:53:15Z</time>
      </trkpt>
      <trkpt lat="44.46188" lon="6.55444">
        <ele>2089</ele>
        <time>2020-02-23T10:53:24Z</time>
      </trkpt>
      <trkpt lat="44.46182" lon="6.55438">
        <ele>2091</ele>
        <time>2020-02-23T10:53:37Z</time>
      </trkpt>
      <trkpt lat="44.4616" lon="6.55425">
        <ele>2097</ele>
        <time>2020-02-23T10:54:08Z</time>
      </trkpt>
      <trkpt lat="44.46155" lon="6.55423">
        <ele>2099</ele>
        <time>2020-02-23T10:54:15Z</time>
      </trkpt>
      <trkpt lat="44.46152" lon="6.55424">
        <ele>2099</ele>
        <time>2020-02-23T10:54:19Z</time>
      </trkpt>
      <trkpt lat="44.4615" lon="6.55422">
        <ele>2099</ele>
        <time>2020-02-23T10:54:22Z</time>
      </trkpt>
      <trkpt lat="44.46148" lon="6.5542">
        <ele>2099</ele>
        <time>2020-02-23T10:54:25Z</time>
      </trkpt>
      <trkpt lat="44.46146" lon="6.55419">
        <ele>2100</ele>
        <time>2020-02-23T10:54:28Z</time>
      </trkpt>
      <trkpt lat="44.46141" lon="6.55417">
        <ele>2101</ele>
        <time>2020-02-23T10:54:36Z</time>
      </trkpt>
      <trkpt lat="44.46133" lon="6.55415">
        <ele>2102</ele>
        <time>2020-02-23T10:54:46Z</time>
      </trkpt>
      <trkpt lat="44.46131" lon="6.55415">
        <ele>2102</ele>
        <time>2020-02-23T10:54:50Z</time>
      </trkpt>
      <trkpt lat="44.46128" lon="6.55414">
        <ele>2103</ele>
        <time>2020-02-23T10:54:54Z</time>
      </trkpt>
      <trkpt lat="44.46125" lon="6.55411">
        <ele>2104</ele>
        <time>2020-02-23T10:54:57Z</time>
      </trkpt>
      <trkpt lat="44.46118" lon="6.55411">
        <ele>2106</ele>
        <time>2020-02-23T10:55:08Z</time>
      </trkpt>
      <trkpt lat="44.46115" lon="6.55411">
        <ele>2107</ele>
        <time>2020-02-23T10:55:11Z</time>
      </trkpt>
      <trkpt lat="44.46113" lon="6.55411">
        <ele>2107</ele>
        <time>2020-02-23T10:55:13Z</time>
      </trkpt>
      <trkpt lat="44.46099" lon="6.55408">
        <ele>2111</ele>
        <time>2020-02-23T10:55:31Z</time>
      </trkpt>
      <trkpt lat="44.46097" lon="6.55407">
        <ele>2111</ele>
        <time>2020-02-23T10:55:33Z</time>
      </trkpt>
      <trkpt lat="44.46083" lon="6.55399">
        <ele>2114</ele>
        <time>2020-02-23T10:55:55Z</time>
      </trkpt>
      <trkpt lat="44.46067" lon="6.55392">
        <ele>2116</ele>
        <time>2020-02-23T10:56:13Z</time>
      </trkpt>
      <trkpt lat="44.4606" lon="6.55391">
        <ele>2118</ele>
        <time>2020-02-23T10:56:20Z</time>
      </trkpt>
      <trkpt lat="44.46055" lon="6.5539">
        <ele>2118</ele>
        <time>2020-02-23T10:56:26Z</time>
      </trkpt>
      <trkpt lat="44.46049" lon="6.55392">
        <ele>2119</ele>
        <time>2020-02-23T10:56:34Z</time>
      </trkpt>
      <trkpt lat="44.46044" lon="6.55392">
        <ele>2119</ele>
        <time>2020-02-23T10:56:40Z</time>
      </trkpt>
      <trkpt lat="44.46042" lon="6.55394">
        <ele>2120</ele>
        <time>2020-02-23T10:56:43Z</time>
      </trkpt>
      <trkpt lat="44.4604" lon="6.55393">
        <ele>2120</ele>
        <time>2020-02-23T10:56:46Z</time>
      </trkpt>
      <trkpt lat="44.46037" lon="6.55394">
        <ele>2120</ele>
        <time>2020-02-23T10:56:48Z</time>
      </trkpt>
      <trkpt lat="44.46035" lon="6.55394">
        <ele>2120</ele>
        <time>2020-02-23T10:56:51Z</time>
      </trkpt>
      <trkpt lat="44.46032" lon="6.55393">
        <ele>2121</ele>
        <time>2020-02-23T10:56:56Z</time>
      </trkpt>
      <trkpt lat="44.4603" lon="6.55393">
        <ele>2122</ele>
        <time>2020-02-23T10:57:00Z</time>
      </trkpt>
      <trkpt lat="44.46027" lon="6.55395">
        <ele>2123</ele>
        <time>2020-02-23T10:57:05Z</time>
      </trkpt>
      <trkpt lat="44.46025" lon="6.55396">
        <ele>2125</ele>
        <time>2020-02-23T10:57:09Z</time>
      </trkpt>
      <trkpt lat="44.46019" lon="6.55396">
        <ele>2127</ele>
        <time>2020-02-23T10:57:16Z</time>
      </trkpt>
      <trkpt lat="44.46" lon="6.5541">
        <ele>2130</ele>
        <time>2020-02-23T10:57:41Z</time>
      </trkpt>
      <trkpt lat="44.45996" lon="6.55412">
        <ele>2130</ele>
        <time>2020-02-23T10:57:43Z</time>
      </trkpt>
      <trkpt lat="44.45986" lon="6.55422">
        <ele>2125</ele>
        <time>2020-02-23T10:57:48Z</time>
      </trkpt>
      <trkpt lat="44.45985" lon="6.55416">
        <ele>2121</ele>
        <time>2020-02-23T10:57:52Z</time>
      </trkpt>
      <trkpt lat="44.45981" lon="6.55415">
        <ele>2123</ele>
        <time>2020-02-23T10:57:56Z</time>
      </trkpt>
      <trkpt lat="44.45979" lon="6.55417">
        <ele>2127</ele>
        <time>2020-02-23T10:58:00Z</time>
      </trkpt>
      <trkpt lat="44.45977" lon="6.55417">
        <ele>2128</ele>
        <time>2020-02-23T10:58:06Z</time>
      </trkpt>
      <trkpt lat="44.45974" lon="6.55416">
        <ele>2129</ele>
        <time>2020-02-23T10:58:09Z</time>
      </trkpt>
      <trkpt lat="44.45972" lon="6.55416">
        <ele>2130</ele>
        <time>2020-02-23T10:58:13Z</time>
      </trkpt>
      <trkpt lat="44.45968" lon="6.55418">
        <ele>2131</ele>
        <time>2020-02-23T10:58:20Z</time>
      </trkpt>
      <trkpt lat="44.45957" lon="6.55415">
        <ele>2130</ele>
        <time>2020-02-23T10:58:25Z</time>
      </trkpt>
      <trkpt lat="44.45956" lon="6.55417">
        <ele>2133</ele>
        <time>2020-02-23T10:58:37Z</time>
      </trkpt>
      <trkpt lat="44.45954" lon="6.55419">
        <ele>2135</ele>
        <time>2020-02-23T10:58:43Z</time>
      </trkpt>
      <trkpt lat="44.45951" lon="6.5542">
        <ele>2138</ele>
        <time>2020-02-23T10:58:46Z</time>
      </trkpt>
      <trkpt lat="44.45949" lon="6.5542">
        <ele>2139</ele>
        <time>2020-02-23T10:58:53Z</time>
      </trkpt>
      <trkpt lat="44.45944" lon="6.5542">
        <ele>2140</ele>
        <time>2020-02-23T10:58:59Z</time>
      </trkpt>
      <trkpt lat="44.45942" lon="6.55422">
        <ele>2140</ele>
        <time>2020-02-23T10:59:03Z</time>
      </trkpt>
      <trkpt lat="44.4594" lon="6.55424">
        <ele>2141</ele>
        <time>2020-02-23T10:59:07Z</time>
      </trkpt>
      <trkpt lat="44.45938" lon="6.55424">
        <ele>2142</ele>
        <time>2020-02-23T10:59:10Z</time>
      </trkpt>
      <trkpt lat="44.45934" lon="6.55423">
        <ele>2143</ele>
        <time>2020-02-23T10:59:18Z</time>
      </trkpt>
      <trkpt lat="44.4593" lon="6.55425">
        <ele>2144</ele>
        <time>2020-02-23T10:59:24Z</time>
      </trkpt>
      <trkpt lat="44.45927" lon="6.55426">
        <ele>2145</ele>
        <time>2020-02-23T10:59:28Z</time>
      </trkpt>
      <trkpt lat="44.45925" lon="6.55429">
        <ele>2145</ele>
        <time>2020-02-23T10:59:31Z</time>
      </trkpt>
      <trkpt lat="44.45925" lon="6.55433">
        <ele>2144</ele>
        <time>2020-02-23T10:59:36Z</time>
      </trkpt>
      <trkpt lat="44.45923" lon="6.55434">
        <ele>2145</ele>
        <time>2020-02-23T10:59:39Z</time>
      </trkpt>
      <trkpt lat="44.45921" lon="6.55432">
        <ele>2145</ele>
        <time>2020-02-23T10:59:46Z</time>
      </trkpt>
      <trkpt lat="44.45919" lon="6.55428">
        <ele>2146</ele>
        <time>2020-02-23T10:59:50Z</time>
      </trkpt>
      <trkpt lat="44.45916" lon="6.55425">
        <ele>2147</ele>
        <time>2020-02-23T11:00:00Z</time>
      </trkpt>
      <trkpt lat="44.45913" lon="6.55424">
        <ele>2147</ele>
        <time>2020-02-23T11:00:04Z</time>
      </trkpt>
      <trkpt lat="44.45912" lon="6.55423">
        <ele>2147</ele>
        <time>2020-02-23T11:00:08Z</time>
      </trkpt>
      <trkpt lat="44.4591" lon="6.55418">
        <ele>2149</ele>
        <time>2020-02-23T11:00:14Z</time>
      </trkpt>
      <trkpt lat="44.45908" lon="6.55417">
        <ele>2150</ele>
        <time>2020-02-23T11:00:17Z</time>
      </trkpt>
      <trkpt lat="44.45907" lon="6.55416">
        <ele>2151</ele>
        <time>2020-02-23T11:00:19Z</time>
      </trkpt>
      <trkpt lat="44.45905" lon="6.55414">
        <ele>2151</ele>
        <time>2020-02-23T11:00:22Z</time>
      </trkpt>
      <trkpt lat="44.45904" lon="6.55413">
        <ele>2151</ele>
        <time>2020-02-23T11:00:25Z</time>
      </trkpt>
      <trkpt lat="44.45903" lon="6.55411">
        <ele>2152</ele>
        <time>2020-02-23T11:00:31Z</time>
      </trkpt>
      <trkpt lat="44.45901" lon="6.55409">
        <ele>2153</ele>
        <time>2020-02-23T11:00:35Z</time>
      </trkpt>
      <trkpt lat="44.45898" lon="6.55409">
        <ele>2156</ele>
        <time>2020-02-23T11:00:39Z</time>
      </trkpt>
      <trkpt lat="44.45897" lon="6.55407">
        <ele>2156</ele>
        <time>2020-02-23T11:00:42Z</time>
      </trkpt>
      <trkpt lat="44.45895" lon="6.55406">
        <ele>2157</ele>
        <time>2020-02-23T11:00:45Z</time>
      </trkpt>
      <trkpt lat="44.45893" lon="6.55406">
        <ele>2157</ele>
        <time>2020-02-23T11:00:48Z</time>
      </trkpt>
      <trkpt lat="44.45892" lon="6.55404">
        <ele>2157</ele>
        <time>2020-02-23T11:00:51Z</time>
      </trkpt>
      <trkpt lat="44.4589" lon="6.55403">
        <ele>2157</ele>
        <time>2020-02-23T11:00:54Z</time>
      </trkpt>
      <trkpt lat="44.45888" lon="6.55404">
        <ele>2158</ele>
        <time>2020-02-23T11:00:56Z</time>
      </trkpt>
      <trkpt lat="44.45887" lon="6.55406">
        <ele>2158</ele>
        <time>2020-02-23T11:00:59Z</time>
      </trkpt>
      <trkpt lat="44.45887" lon="6.55409">
        <ele>2159</ele>
        <time>2020-02-23T11:01:01Z</time>
      </trkpt>
      <trkpt lat="44.45886" lon="6.55412">
        <ele>2160</ele>
        <time>2020-02-23T11:01:04Z</time>
      </trkpt>
      <trkpt lat="44.45884" lon="6.55414">
        <ele>2161</ele>
        <time>2020-02-23T11:01:07Z</time>
      </trkpt>
      <trkpt lat="44.45882" lon="6.55413">
        <ele>2162</ele>
        <time>2020-02-23T11:01:13Z</time>
      </trkpt>
      <trkpt lat="44.45881" lon="6.55411">
        <ele>2161</ele>
        <time>2020-02-23T11:01:15Z</time>
      </trkpt>
      <trkpt lat="44.45864" lon="6.55402">
        <ele>2164</ele>
        <time>2020-02-23T11:01:40Z</time>
      </trkpt>
      <trkpt lat="44.45861" lon="6.55403">
        <ele>2164</ele>
        <time>2020-02-23T11:01:43Z</time>
      </trkpt>
      <trkpt lat="44.4586" lon="6.55399">
        <ele>2165</ele>
        <time>2020-02-23T11:01:46Z</time>
      </trkpt>
      <trkpt lat="44.4585" lon="6.55398">
        <ele>2169</ele>
        <time>2020-02-23T11:02:01Z</time>
      </trkpt>
      <trkpt lat="44.45848" lon="6.55396">
        <ele>2169</ele>
        <time>2020-02-23T11:02:04Z</time>
      </trkpt>
      <trkpt lat="44.45846" lon="6.55398">
        <ele>2169</ele>
        <time>2020-02-23T11:02:08Z</time>
      </trkpt>
      <trkpt lat="44.45844" lon="6.55397">
        <ele>2169</ele>
        <time>2020-02-23T11:02:11Z</time>
      </trkpt>
      <trkpt lat="44.45841" lon="6.55397">
        <ele>2167</ele>
        <time>2020-02-23T11:02:21Z</time>
      </trkpt>
      <trkpt lat="44.45838" lon="6.55394">
        <ele>2168</ele>
        <time>2020-02-23T11:02:28Z</time>
      </trkpt>
      <trkpt lat="44.45831" lon="6.55394">
        <ele>2171</ele>
        <time>2020-02-23T11:02:40Z</time>
      </trkpt>
      <trkpt lat="44.45828" lon="6.55393">
        <ele>2171</ele>
        <time>2020-02-23T11:02:47Z</time>
      </trkpt>
      <trkpt lat="44.45826" lon="6.55393">
        <ele>2171</ele>
        <time>2020-02-23T11:02:50Z</time>
      </trkpt>
      <trkpt lat="44.45824" lon="6.55393">
        <ele>2171</ele>
        <time>2020-02-23T11:02:54Z</time>
      </trkpt>
      <trkpt lat="44.45815" lon="6.55394">
        <ele>2175</ele>
        <time>2020-02-23T11:03:09Z</time>
      </trkpt>
      <trkpt lat="44.45811" lon="6.55393">
        <ele>2176</ele>
        <time>2020-02-23T11:03:16Z</time>
      </trkpt>
      <trkpt lat="44.45809" lon="6.55392">
        <ele>2176</ele>
        <time>2020-02-23T11:03:19Z</time>
      </trkpt>
      <trkpt lat="44.45807" lon="6.55392">
        <ele>2177</ele>
        <time>2020-02-23T11:03:23Z</time>
      </trkpt>
      <trkpt lat="44.45802" lon="6.55392">
        <ele>2179</ele>
        <time>2020-02-23T11:03:29Z</time>
      </trkpt>
      <trkpt lat="44.458" lon="6.55392">
        <ele>2180</ele>
        <time>2020-02-23T11:03:33Z</time>
      </trkpt>
      <trkpt lat="44.45798" lon="6.55391">
        <ele>2181</ele>
        <time>2020-02-23T11:03:38Z</time>
      </trkpt>
      <trkpt lat="44.45797" lon="6.55387">
        <ele>2183</ele>
        <time>2020-02-23T11:03:42Z</time>
      </trkpt>
      <trkpt lat="44.45794" lon="6.55374">
        <ele>2184</ele>
        <time>2020-02-23T11:04:04Z</time>
      </trkpt>
      <trkpt lat="44.45791" lon="6.55368">
        <ele>2184</ele>
        <time>2020-02-23T11:04:12Z</time>
      </trkpt>
      <trkpt lat="44.45791" lon="6.55366">
        <ele>2185</ele>
        <time>2020-02-23T11:04:20Z</time>
      </trkpt>
      <trkpt lat="44.45789" lon="6.55363">
        <ele>2187</ele>
        <time>2020-02-23T11:05:03Z</time>
      </trkpt>
      <trkpt lat="44.45779" lon="6.55339">
        <ele>2188</ele>
        <time>2020-02-23T11:05:30Z</time>
      </trkpt>
      <trkpt lat="44.45774" lon="6.55313">
        <ele>2193</ele>
        <time>2020-02-23T11:06:01Z</time>
      </trkpt>
      <trkpt lat="44.45774" lon="6.5531">
        <ele>2193</ele>
        <time>2020-02-23T11:06:05Z</time>
      </trkpt>
      <trkpt lat="44.45774" lon="6.55307">
        <ele>2194</ele>
        <time>2020-02-23T11:06:10Z</time>
      </trkpt>
      <trkpt lat="44.45773" lon="6.55304">
        <ele>2195</ele>
        <time>2020-02-23T11:06:13Z</time>
      </trkpt>
      <trkpt lat="44.45771" lon="6.55303">
        <ele>2196</ele>
        <time>2020-02-23T11:06:17Z</time>
      </trkpt>
      <trkpt lat="44.45769" lon="6.55305">
        <ele>2197</ele>
        <time>2020-02-23T11:06:22Z</time>
      </trkpt>
      <trkpt lat="44.45767" lon="6.55306">
        <ele>2199</ele>
        <time>2020-02-23T11:06:25Z</time>
      </trkpt>
      <trkpt lat="44.45765" lon="6.55309">
        <ele>2199</ele>
        <time>2020-02-23T11:06:29Z</time>
      </trkpt>
      <trkpt lat="44.45764" lon="6.5531">
        <ele>2201</ele>
        <time>2020-02-23T11:06:32Z</time>
      </trkpt>
      <trkpt lat="44.45759" lon="6.55314">
        <ele>2203</ele>
        <time>2020-02-23T11:06:41Z</time>
      </trkpt>
      <trkpt lat="44.45757" lon="6.55315">
        <ele>2206</ele>
        <time>2020-02-23T11:06:44Z</time>
      </trkpt>
      <trkpt lat="44.45755" lon="6.55315">
        <ele>2207</ele>
        <time>2020-02-23T11:06:48Z</time>
      </trkpt>
      <trkpt lat="44.45753" lon="6.55318">
        <ele>2209</ele>
        <time>2020-02-23T11:06:53Z</time>
      </trkpt>
      <trkpt lat="44.45749" lon="6.55319">
        <ele>2209</ele>
        <time>2020-02-23T11:06:56Z</time>
      </trkpt>
      <trkpt lat="44.45747" lon="6.55321">
        <ele>2209</ele>
        <time>2020-02-23T11:07:00Z</time>
      </trkpt>
      <trkpt lat="44.45745" lon="6.55322">
        <ele>2208</ele>
        <time>2020-02-23T11:07:03Z</time>
      </trkpt>
      <trkpt lat="44.45738" lon="6.55314">
        <ele>2207</ele>
        <time>2020-02-23T11:07:17Z</time>
      </trkpt>
      <trkpt lat="44.45736" lon="6.55313">
        <ele>2208</ele>
        <time>2020-02-23T11:07:21Z</time>
      </trkpt>
      <trkpt lat="44.45734" lon="6.55314">
        <ele>2209</ele>
        <time>2020-02-23T11:07:24Z</time>
      </trkpt>
      <trkpt lat="44.45729" lon="6.55308">
        <ele>2210</ele>
        <time>2020-02-23T11:07:33Z</time>
      </trkpt>
      <trkpt lat="44.45727" lon="6.55307">
        <ele>2210</ele>
        <time>2020-02-23T11:07:36Z</time>
      </trkpt>
      <trkpt lat="44.45726" lon="6.55305">
        <ele>2211</ele>
        <time>2020-02-23T11:07:39Z</time>
      </trkpt>
      <trkpt lat="44.45723" lon="6.55304">
        <ele>2211</ele>
        <time>2020-02-23T11:07:42Z</time>
      </trkpt>
      <trkpt lat="44.45721" lon="6.55302">
        <ele>2212</ele>
        <time>2020-02-23T11:07:45Z</time>
      </trkpt>
      <trkpt lat="44.45718" lon="6.55299">
        <ele>2213</ele>
        <time>2020-02-23T11:07:51Z</time>
      </trkpt>
      <trkpt lat="44.45716" lon="6.55297">
        <ele>2213</ele>
        <time>2020-02-23T11:07:53Z</time>
      </trkpt>
      <trkpt lat="44.45714" lon="6.55295">
        <ele>2213</ele>
        <time>2020-02-23T11:07:56Z</time>
      </trkpt>
      <trkpt lat="44.45711" lon="6.55295">
        <ele>2214</ele>
        <time>2020-02-23T11:07:59Z</time>
      </trkpt>
      <trkpt lat="44.45708" lon="6.55291">
        <ele>2215</ele>
        <time>2020-02-23T11:08:06Z</time>
      </trkpt>
      <trkpt lat="44.45706" lon="6.5529">
        <ele>2215</ele>
        <time>2020-02-23T11:08:08Z</time>
      </trkpt>
      <trkpt lat="44.45705" lon="6.55289">
        <ele>2216</ele>
        <time>2020-02-23T11:08:10Z</time>
      </trkpt>
      <trkpt lat="44.457" lon="6.55285">
        <ele>2217</ele>
        <time>2020-02-23T11:08:18Z</time>
      </trkpt>
      <trkpt lat="44.45696" lon="6.55287">
        <ele>2218</ele>
        <time>2020-02-23T11:08:21Z</time>
      </trkpt>
      <trkpt lat="44.45694" lon="6.55284">
        <ele>2218</ele>
        <time>2020-02-23T11:08:26Z</time>
      </trkpt>
      <trkpt lat="44.45693" lon="6.55282">
        <ele>2219</ele>
        <time>2020-02-23T11:08:31Z</time>
      </trkpt>
      <trkpt lat="44.4569" lon="6.5528">
        <ele>2219</ele>
        <time>2020-02-23T11:08:34Z</time>
      </trkpt>
      <trkpt lat="44.45688" lon="6.55277">
        <ele>2220</ele>
        <time>2020-02-23T11:08:38Z</time>
      </trkpt>
      <trkpt lat="44.45686" lon="6.55276">
        <ele>2220</ele>
        <time>2020-02-23T11:08:43Z</time>
      </trkpt>
      <trkpt lat="44.45682" lon="6.55269">
        <ele>2222</ele>
        <time>2020-02-23T11:08:52Z</time>
      </trkpt>
      <trkpt lat="44.45681" lon="6.55266">
        <ele>2222</ele>
        <time>2020-02-23T11:08:56Z</time>
      </trkpt>
      <trkpt lat="44.4568" lon="6.55263">
        <ele>2223</ele>
        <time>2020-02-23T11:08:59Z</time>
      </trkpt>
      <trkpt lat="44.4568" lon="6.5526">
        <ele>2223</ele>
        <time>2020-02-23T11:09:05Z</time>
      </trkpt>
      <trkpt lat="44.4568" lon="6.55253">
        <ele>2223</ele>
        <time>2020-02-23T11:09:09Z</time>
      </trkpt>
      <trkpt lat="44.45679" lon="6.5525">
        <ele>2223</ele>
        <time>2020-02-23T11:09:12Z</time>
      </trkpt>
      <trkpt lat="44.45677" lon="6.55247">
        <ele>2224</ele>
        <time>2020-02-23T11:09:15Z</time>
      </trkpt>
      <trkpt lat="44.45675" lon="6.55245">
        <ele>2224</ele>
        <time>2020-02-23T11:09:17Z</time>
      </trkpt>
      <trkpt lat="44.45675" lon="6.55242">
        <ele>2224</ele>
        <time>2020-02-23T11:09:19Z</time>
      </trkpt>
      <trkpt lat="44.45673" lon="6.5524">
        <ele>2224</ele>
        <time>2020-02-23T11:09:23Z</time>
      </trkpt>
      <trkpt lat="44.45672" lon="6.55238">
        <ele>2225</ele>
        <time>2020-02-23T11:09:25Z</time>
      </trkpt>
      <trkpt lat="44.4567" lon="6.55235">
        <ele>2225</ele>
        <time>2020-02-23T11:09:29Z</time>
      </trkpt>
      <trkpt lat="44.45671" lon="6.5523">
        <ele>2226</ele>
        <time>2020-02-23T11:09:36Z</time>
      </trkpt>
      <trkpt lat="44.45667" lon="6.55226">
        <ele>2227</ele>
        <time>2020-02-23T11:09:39Z</time>
      </trkpt>
      <trkpt lat="44.45666" lon="6.55223">
        <ele>2228</ele>
        <time>2020-02-23T11:09:42Z</time>
      </trkpt>
      <trkpt lat="44.45665" lon="6.55217">
        <ele>2231</ele>
        <time>2020-02-23T11:09:46Z</time>
      </trkpt>
      <trkpt lat="44.45662" lon="6.55213">
        <ele>2233</ele>
        <time>2020-02-23T11:09:49Z</time>
      </trkpt>
      <trkpt lat="44.45662" lon="6.55209">
        <ele>2232</ele>
        <time>2020-02-23T11:09:52Z</time>
      </trkpt>
      <trkpt lat="44.4566" lon="6.55206">
        <ele>2232</ele>
        <time>2020-02-23T11:09:54Z</time>
      </trkpt>
      <trkpt lat="44.45657" lon="6.552">
        <ele>2232</ele>
        <time>2020-02-23T11:10:01Z</time>
      </trkpt>
      <trkpt lat="44.45656" lon="6.55198">
        <ele>2231</ele>
        <time>2020-02-23T11:10:03Z</time>
      </trkpt>
      <trkpt lat="44.45654" lon="6.55196">
        <ele>2231</ele>
        <time>2020-02-23T11:10:06Z</time>
      </trkpt>
      <trkpt lat="44.45652" lon="6.55195">
        <ele>2232</ele>
        <time>2020-02-23T11:10:08Z</time>
      </trkpt>
      <trkpt lat="44.45645" lon="6.55191">
        <ele>2231</ele>
        <time>2020-02-23T11:10:18Z</time>
      </trkpt>
      <trkpt lat="44.45642" lon="6.55189">
        <ele>2233</ele>
        <time>2020-02-23T11:10:21Z</time>
      </trkpt>
      <trkpt lat="44.4563" lon="6.55184">
        <ele>2234</ele>
        <time>2020-02-23T11:10:35Z</time>
      </trkpt>
      <trkpt lat="44.45629" lon="6.55182">
        <ele>2234</ele>
        <time>2020-02-23T11:10:37Z</time>
      </trkpt>
      <trkpt lat="44.45627" lon="6.55181">
        <ele>2234</ele>
        <time>2020-02-23T11:10:40Z</time>
      </trkpt>
      <trkpt lat="44.45625" lon="6.5518">
        <ele>2234</ele>
        <time>2020-02-23T11:10:42Z</time>
      </trkpt>
      <trkpt lat="44.45624" lon="6.5518">
        <ele>2234</ele>
        <time>2020-02-23T11:10:45Z</time>
      </trkpt>
      <trkpt lat="44.45609" lon="6.55172">
        <ele>2235</ele>
        <time>2020-02-23T11:11:02Z</time>
      </trkpt>
      <trkpt lat="44.45607" lon="6.55171">
        <ele>2235</ele>
        <time>2020-02-23T11:11:04Z</time>
      </trkpt>
      <trkpt lat="44.45605" lon="6.55171">
        <ele>2235</ele>
        <time>2020-02-23T11:11:07Z</time>
      </trkpt>
      <trkpt lat="44.45594" lon="6.55165">
        <ele>2237</ele>
        <time>2020-02-23T11:11:19Z</time>
      </trkpt>
      <trkpt lat="44.45592" lon="6.55165">
        <ele>2237</ele>
        <time>2020-02-23T11:11:21Z</time>
      </trkpt>
      <trkpt lat="44.4559" lon="6.55164">
        <ele>2237</ele>
        <time>2020-02-23T11:11:24Z</time>
      </trkpt>
      <trkpt lat="44.45583" lon="6.55159">
        <ele>2240</ele>
        <time>2020-02-23T11:11:33Z</time>
      </trkpt>
      <trkpt lat="44.4558" lon="6.55157">
        <ele>2241</ele>
        <time>2020-02-23T11:11:36Z</time>
      </trkpt>
      <trkpt lat="44.45579" lon="6.55156">
        <ele>2242</ele>
        <time>2020-02-23T11:11:39Z</time>
      </trkpt>
      <trkpt lat="44.45573" lon="6.55153">
        <ele>2243</ele>
        <time>2020-02-23T11:11:47Z</time>
      </trkpt>
      <trkpt lat="44.4557" lon="6.55151">
        <ele>2244</ele>
        <time>2020-02-23T11:11:50Z</time>
      </trkpt>
      <trkpt lat="44.45568" lon="6.55149">
        <ele>2244</ele>
        <time>2020-02-23T11:11:52Z</time>
      </trkpt>
      <trkpt lat="44.45565" lon="6.55148">
        <ele>2243</ele>
        <time>2020-02-23T11:11:56Z</time>
      </trkpt>
      <trkpt lat="44.45562" lon="6.55147">
        <ele>2243</ele>
        <time>2020-02-23T11:11:59Z</time>
      </trkpt>
      <trkpt lat="44.45561" lon="6.55144">
        <ele>2243</ele>
        <time>2020-02-23T11:12:05Z</time>
      </trkpt>
      <trkpt lat="44.45559" lon="6.55141">
        <ele>2243</ele>
        <time>2020-02-23T11:12:07Z</time>
      </trkpt>
      <trkpt lat="44.45547" lon="6.5513">
        <ele>2244</ele>
        <time>2020-02-23T11:12:26Z</time>
      </trkpt>
      <trkpt lat="44.45545" lon="6.55128">
        <ele>2244</ele>
        <time>2020-02-23T11:12:28Z</time>
      </trkpt>
      <trkpt lat="44.45541" lon="6.55123">
        <ele>2245</ele>
        <time>2020-02-23T11:12:35Z</time>
      </trkpt>
      <trkpt lat="44.4553" lon="6.55116">
        <ele>2246</ele>
        <time>2020-02-23T11:12:52Z</time>
      </trkpt>
      <trkpt lat="44.45527" lon="6.55116">
        <ele>2246</ele>
        <time>2020-02-23T11:12:54Z</time>
      </trkpt>
      <trkpt lat="44.4552" lon="6.55112">
        <ele>2248</ele>
        <time>2020-02-23T11:13:09Z</time>
      </trkpt>
      <trkpt lat="44.45518" lon="6.55111">
        <ele>2248</ele>
        <time>2020-02-23T11:13:11Z</time>
      </trkpt>
      <trkpt lat="44.45516" lon="6.55109">
        <ele>2249</ele>
        <time>2020-02-23T11:13:13Z</time>
      </trkpt>
      <trkpt lat="44.45513" lon="6.5511">
        <ele>2249</ele>
        <time>2020-02-23T11:13:16Z</time>
      </trkpt>
      <trkpt lat="44.45511" lon="6.55109">
        <ele>2251</ele>
        <time>2020-02-23T11:13:18Z</time>
      </trkpt>
      <trkpt lat="44.45502" lon="6.55107">
        <ele>2253</ele>
        <time>2020-02-23T11:13:29Z</time>
      </trkpt>
      <trkpt lat="44.455" lon="6.55106">
        <ele>2253</ele>
        <time>2020-02-23T11:13:31Z</time>
      </trkpt>
      <trkpt lat="44.45499" lon="6.55103">
        <ele>2254</ele>
        <time>2020-02-23T11:13:44Z</time>
      </trkpt>
      <trkpt lat="44.45493" lon="6.55103">
        <ele>2255</ele>
        <time>2020-02-23T11:13:52Z</time>
      </trkpt>
      <trkpt lat="44.45491" lon="6.55102">
        <ele>2255</ele>
        <time>2020-02-23T11:13:55Z</time>
      </trkpt>
      <trkpt lat="44.45486" lon="6.55098">
        <ele>2259</ele>
        <time>2020-02-23T11:14:04Z</time>
      </trkpt>
      <trkpt lat="44.45483" lon="6.55099">
        <ele>2259</ele>
        <time>2020-02-23T11:14:08Z</time>
      </trkpt>
      <trkpt lat="44.45481" lon="6.55098">
        <ele>2259</ele>
        <time>2020-02-23T11:14:12Z</time>
      </trkpt>
      <trkpt lat="44.45479" lon="6.55097">
        <ele>2260</ele>
        <time>2020-02-23T11:14:14Z</time>
      </trkpt>
      <trkpt lat="44.45477" lon="6.55095">
        <ele>2261</ele>
        <time>2020-02-23T11:14:17Z</time>
      </trkpt>
      <trkpt lat="44.45476" lon="6.55093">
        <ele>2261</ele>
        <time>2020-02-23T11:14:19Z</time>
      </trkpt>
      <trkpt lat="44.45474" lon="6.55092">
        <ele>2261</ele>
        <time>2020-02-23T11:14:21Z</time>
      </trkpt>
      <trkpt lat="44.45471" lon="6.55092">
        <ele>2261</ele>
        <time>2020-02-23T11:14:25Z</time>
      </trkpt>
      <trkpt lat="44.45461" lon="6.55085">
        <ele>2265</ele>
        <time>2020-02-23T11:14:44Z</time>
      </trkpt>
      <trkpt lat="44.45459" lon="6.55083">
        <ele>2265</ele>
        <time>2020-02-23T11:14:46Z</time>
      </trkpt>
      <trkpt lat="44.45457" lon="6.55077">
        <ele>2265</ele>
        <time>2020-02-23T11:14:52Z</time>
      </trkpt>
      <trkpt lat="44.45456" lon="6.55075">
        <ele>2265</ele>
        <time>2020-02-23T11:14:55Z</time>
      </trkpt>
      <trkpt lat="44.45453" lon="6.55072">
        <ele>2265</ele>
        <time>2020-02-23T11:14:59Z</time>
      </trkpt>
      <trkpt lat="44.45452" lon="6.55068">
        <ele>2264</ele>
        <time>2020-02-23T11:15:03Z</time>
      </trkpt>
      <trkpt lat="44.45452" lon="6.55065">
        <ele>2264</ele>
        <time>2020-02-23T11:15:07Z</time>
      </trkpt>
      <trkpt lat="44.45451" lon="6.55064">
        <ele>2264</ele>
        <time>2020-02-23T11:15:11Z</time>
      </trkpt>
      <trkpt lat="44.4545" lon="6.55062">
        <ele>2266</ele>
        <time>2020-02-23T11:15:14Z</time>
      </trkpt>
      <trkpt lat="44.45448" lon="6.5506">
        <ele>2267</ele>
        <time>2020-02-23T11:15:17Z</time>
      </trkpt>
      <trkpt lat="44.45446" lon="6.5506">
        <ele>2268</ele>
        <time>2020-02-23T11:15:20Z</time>
      </trkpt>
      <trkpt lat="44.45444" lon="6.5506">
        <ele>2269</ele>
        <time>2020-02-23T11:15:22Z</time>
      </trkpt>
      <trkpt lat="44.4544" lon="6.55059">
        <ele>2270</ele>
        <time>2020-02-23T11:15:29Z</time>
      </trkpt>
      <trkpt lat="44.45437" lon="6.55061">
        <ele>2271</ele>
        <time>2020-02-23T11:15:34Z</time>
      </trkpt>
      <trkpt lat="44.45432" lon="6.55069">
        <ele>2276</ele>
        <time>2020-02-23T11:15:47Z</time>
      </trkpt>
      <trkpt lat="44.45426" lon="6.55072">
        <ele>2278</ele>
        <time>2020-02-23T11:15:58Z</time>
      </trkpt>
      <trkpt lat="44.45424" lon="6.55074">
        <ele>2279</ele>
        <time>2020-02-23T11:16:01Z</time>
      </trkpt>
      <trkpt lat="44.45421" lon="6.55076">
        <ele>2279</ele>
        <time>2020-02-23T11:16:05Z</time>
      </trkpt>
      <trkpt lat="44.4542" lon="6.55078">
        <ele>2279</ele>
        <time>2020-02-23T11:16:08Z</time>
      </trkpt>
      <trkpt lat="44.45417" lon="6.5508">
        <ele>2280</ele>
        <time>2020-02-23T11:16:12Z</time>
      </trkpt>
      <trkpt lat="44.45414" lon="6.55083">
        <ele>2281</ele>
        <time>2020-02-23T11:16:19Z</time>
      </trkpt>
      <trkpt lat="44.45412" lon="6.55086">
        <ele>2281</ele>
        <time>2020-02-23T11:16:24Z</time>
      </trkpt>
      <trkpt lat="44.4541" lon="6.55088">
        <ele>2281</ele>
        <time>2020-02-23T11:16:28Z</time>
      </trkpt>
      <trkpt lat="44.45409" lon="6.55091">
        <ele>2284</ele>
        <time>2020-02-23T11:16:33Z</time>
      </trkpt>
      <trkpt lat="44.45407" lon="6.55094">
        <ele>2284</ele>
        <time>2020-02-23T11:16:37Z</time>
      </trkpt>
      <trkpt lat="44.45405" lon="6.55093">
        <ele>2286</ele>
        <time>2020-02-23T11:16:46Z</time>
      </trkpt>
      <trkpt lat="44.45404" lon="6.55091">
        <ele>2285</ele>
        <time>2020-02-23T11:16:51Z</time>
      </trkpt>
      <trkpt lat="44.45403" lon="6.55089">
        <ele>2286</ele>
        <time>2020-02-23T11:16:54Z</time>
      </trkpt>
      <trkpt lat="44.45402" lon="6.55083">
        <ele>2287</ele>
        <time>2020-02-23T11:17:02Z</time>
      </trkpt>
      <trkpt lat="44.45396" lon="6.55065">
        <ele>2288</ele>
        <time>2020-02-23T11:17:26Z</time>
      </trkpt>
      <trkpt lat="44.45395" lon="6.55061">
        <ele>2289</ele>
        <time>2020-02-23T11:17:30Z</time>
      </trkpt>
      <trkpt lat="44.45395" lon="6.55055">
        <ele>2290</ele>
        <time>2020-02-23T11:17:38Z</time>
      </trkpt>
      <trkpt lat="44.45393" lon="6.55054">
        <ele>2291</ele>
        <time>2020-02-23T11:17:42Z</time>
      </trkpt>
      <trkpt lat="44.45391" lon="6.55055">
        <ele>2293</ele>
        <time>2020-02-23T11:17:47Z</time>
      </trkpt>
      <trkpt lat="44.4539" lon="6.55057">
        <ele>2294</ele>
        <time>2020-02-23T11:17:51Z</time>
      </trkpt>
      <trkpt lat="44.45382" lon="6.55063">
        <ele>2298</ele>
        <time>2020-02-23T11:18:07Z</time>
      </trkpt>
      <trkpt lat="44.45379" lon="6.55066">
        <ele>2300</ele>
        <time>2020-02-23T11:18:12Z</time>
      </trkpt>
      <trkpt lat="44.45377" lon="6.55066">
        <ele>2301</ele>
        <time>2020-02-23T11:18:17Z</time>
      </trkpt>
      <trkpt lat="44.45373" lon="6.55065">
        <ele>2302</ele>
        <time>2020-02-23T11:18:23Z</time>
      </trkpt>
      <trkpt lat="44.45371" lon="6.55062">
        <ele>2301</ele>
        <time>2020-02-23T11:18:27Z</time>
      </trkpt>
      <trkpt lat="44.45367" lon="6.55062">
        <ele>2302</ele>
        <time>2020-02-23T11:18:35Z</time>
      </trkpt>
      <trkpt lat="44.45365" lon="6.55059">
        <ele>2306</ele>
        <time>2020-02-23T11:18:43Z</time>
      </trkpt>
      <trkpt lat="44.4536" lon="6.5506">
        <ele>2306</ele>
        <time>2020-02-23T11:18:49Z</time>
      </trkpt>
      <trkpt lat="44.45358" lon="6.55058">
        <ele>2306</ele>
        <time>2020-02-23T11:18:54Z</time>
      </trkpt>
      <trkpt lat="44.45356" lon="6.55058">
        <ele>2307</ele>
        <time>2020-02-23T11:19:00Z</time>
      </trkpt>
      <trkpt lat="44.45355" lon="6.55057">
        <ele>2307</ele>
        <time>2020-02-23T11:19:56Z</time>
      </trkpt>
      <trkpt lat="44.45352" lon="6.55053">
        <ele>2307</ele>
        <time>2020-02-23T11:20:03Z</time>
      </trkpt>
      <trkpt lat="44.45341" lon="6.5505">
        <ele>2309</ele>
        <time>2020-02-23T11:20:19Z</time>
      </trkpt>
      <trkpt lat="44.45338" lon="6.55049">
        <ele>2311</ele>
        <time>2020-02-23T11:20:22Z</time>
      </trkpt>
      <trkpt lat="44.45329" lon="6.55043">
        <ele>2314</ele>
        <time>2020-02-23T11:20:39Z</time>
      </trkpt>
      <trkpt lat="44.45327" lon="6.55041">
        <ele>2315</ele>
        <time>2020-02-23T11:20:42Z</time>
      </trkpt>
      <trkpt lat="44.45322" lon="6.55039">
        <ele>2319</ele>
        <time>2020-02-23T11:20:49Z</time>
      </trkpt>
      <trkpt lat="44.45312" lon="6.55032">
        <ele>2317</ele>
        <time>2020-02-23T11:21:02Z</time>
      </trkpt>
      <trkpt lat="44.4531" lon="6.55029">
        <ele>2317</ele>
        <time>2020-02-23T11:21:05Z</time>
      </trkpt>
      <trkpt lat="44.45309" lon="6.55028">
        <ele>2316</ele>
        <time>2020-02-23T11:21:07Z</time>
      </trkpt>
      <trkpt lat="44.45303" lon="6.55025">
        <ele>2317</ele>
        <time>2020-02-23T11:21:14Z</time>
      </trkpt>
      <trkpt lat="44.45301" lon="6.55026">
        <ele>2321</ele>
        <time>2020-02-23T11:21:18Z</time>
      </trkpt>
      <trkpt lat="44.45298" lon="6.55026">
        <ele>2322</ele>
        <time>2020-02-23T11:21:23Z</time>
      </trkpt>
      <trkpt lat="44.45295" lon="6.55026">
        <ele>2321</ele>
        <time>2020-02-23T11:21:27Z</time>
      </trkpt>
      <trkpt lat="44.45293" lon="6.55027">
        <ele>2321</ele>
        <time>2020-02-23T11:21:32Z</time>
      </trkpt>
      <trkpt lat="44.45291" lon="6.55026">
        <ele>2321</ele>
        <time>2020-02-23T11:21:34Z</time>
      </trkpt>
      <trkpt lat="44.45287" lon="6.55027">
        <ele>2322</ele>
        <time>2020-02-23T11:21:39Z</time>
      </trkpt>
      <trkpt lat="44.45274" lon="6.55029">
        <ele>2325</ele>
        <time>2020-02-23T11:21:58Z</time>
      </trkpt>
      <trkpt lat="44.45273" lon="6.55028">
        <ele>2327</ele>
        <time>2020-02-23T11:22:00Z</time>
      </trkpt>
      <trkpt lat="44.4527" lon="6.5503">
        <ele>2329</ele>
        <time>2020-02-23T11:22:03Z</time>
      </trkpt>
      <trkpt lat="44.45259" lon="6.55034">
        <ele>2332</ele>
        <time>2020-02-23T11:22:23Z</time>
      </trkpt>
      <trkpt lat="44.45257" lon="6.55037">
        <ele>2333</ele>
        <time>2020-02-23T11:22:31Z</time>
      </trkpt>
      <trkpt lat="44.45254" lon="6.55036">
        <ele>2334</ele>
        <time>2020-02-23T11:22:33Z</time>
      </trkpt>
      <trkpt lat="44.45246" lon="6.55035">
        <ele>2335</ele>
        <time>2020-02-23T11:22:42Z</time>
      </trkpt>
      <trkpt lat="44.45244" lon="6.55037">
        <ele>2335</ele>
        <time>2020-02-23T11:22:45Z</time>
      </trkpt>
      <trkpt lat="44.45241" lon="6.55036">
        <ele>2335</ele>
        <time>2020-02-23T11:22:48Z</time>
      </trkpt>
      <trkpt lat="44.45237" lon="6.55038">
        <ele>2336</ele>
        <time>2020-02-23T11:22:53Z</time>
      </trkpt>
      <trkpt lat="44.45235" lon="6.55038">
        <ele>2336</ele>
        <time>2020-02-23T11:22:56Z</time>
      </trkpt>
      <trkpt lat="44.45234" lon="6.55043">
        <ele>2337</ele>
        <time>2020-02-23T11:22:59Z</time>
      </trkpt>
      <trkpt lat="44.45231" lon="6.5504">
        <ele>2338</ele>
        <time>2020-02-23T11:23:01Z</time>
      </trkpt>
      <trkpt lat="44.45229" lon="6.55039">
        <ele>2338</ele>
        <time>2020-02-23T11:23:04Z</time>
      </trkpt>
      <trkpt lat="44.45227" lon="6.55042">
        <ele>2338</ele>
        <time>2020-02-23T11:23:08Z</time>
      </trkpt>
      <trkpt lat="44.45224" lon="6.55043">
        <ele>2337</ele>
        <time>2020-02-23T11:23:12Z</time>
      </trkpt>
      <trkpt lat="44.45217" lon="6.55042">
        <ele>2337</ele>
        <time>2020-02-23T11:23:20Z</time>
      </trkpt>
      <trkpt lat="44.45214" lon="6.55042">
        <ele>2337</ele>
        <time>2020-02-23T11:23:23Z</time>
      </trkpt>
      <trkpt lat="44.45212" lon="6.55043">
        <ele>2338</ele>
        <time>2020-02-23T11:23:25Z</time>
      </trkpt>
      <trkpt lat="44.45209" lon="6.55044">
        <ele>2339</ele>
        <time>2020-02-23T11:23:29Z</time>
      </trkpt>
      <trkpt lat="44.45206" lon="6.55046">
        <ele>2343</ele>
        <time>2020-02-23T11:23:32Z</time>
      </trkpt>
      <trkpt lat="44.45203" lon="6.55047">
        <ele>2343</ele>
        <time>2020-02-23T11:23:34Z</time>
      </trkpt>
      <trkpt lat="44.45202" lon="6.55045">
        <ele>2343</ele>
        <time>2020-02-23T11:23:36Z</time>
      </trkpt>
      <trkpt lat="44.452" lon="6.55043">
        <ele>2342</ele>
        <time>2020-02-23T11:23:39Z</time>
      </trkpt>
      <trkpt lat="44.45198" lon="6.55042">
        <ele>2343</ele>
        <time>2020-02-23T11:23:44Z</time>
      </trkpt>
      <trkpt lat="44.45193" lon="6.55038">
        <ele>2345</ele>
        <time>2020-02-23T11:23:51Z</time>
      </trkpt>
      <trkpt lat="44.45189" lon="6.55038">
        <ele>2344</ele>
        <time>2020-02-23T11:23:55Z</time>
      </trkpt>
      <trkpt lat="44.45186" lon="6.55038">
        <ele>2343</ele>
        <time>2020-02-23T11:23:58Z</time>
      </trkpt>
      <trkpt lat="44.45183" lon="6.55036">
        <ele>2344</ele>
        <time>2020-02-23T11:24:03Z</time>
      </trkpt>
      <trkpt lat="44.45179" lon="6.55036">
        <ele>2346</ele>
        <time>2020-02-23T11:24:07Z</time>
      </trkpt>
      <trkpt lat="44.45177" lon="6.55035">
        <ele>2347</ele>
        <time>2020-02-23T11:24:11Z</time>
      </trkpt>
      <trkpt lat="44.45171" lon="6.55037">
        <ele>2349</ele>
        <time>2020-02-23T11:24:23Z</time>
      </trkpt>
      <trkpt lat="44.45168" lon="6.55035">
        <ele>2349</ele>
        <time>2020-02-23T11:24:26Z</time>
      </trkpt>
      <trkpt lat="44.45166" lon="6.55035">
        <ele>2349</ele>
        <time>2020-02-23T11:24:29Z</time>
      </trkpt>
      <trkpt lat="44.45145" lon="6.55032">
        <ele>2351</ele>
        <time>2020-02-23T11:24:59Z</time>
      </trkpt>
      <trkpt lat="44.45143" lon="6.55032">
        <ele>2350</ele>
        <time>2020-02-23T11:25:02Z</time>
      </trkpt>
      <trkpt lat="44.45138" lon="6.55032">
        <ele>2350</ele>
        <time>2020-02-23T11:25:10Z</time>
      </trkpt>
      <trkpt lat="44.45134" lon="6.55032">
        <ele>2351</ele>
        <time>2020-02-23T11:25:15Z</time>
      </trkpt>
      <trkpt lat="44.45129" lon="6.55031">
        <ele>2353</ele>
        <time>2020-02-23T11:25:20Z</time>
      </trkpt>
      <trkpt lat="44.45125" lon="6.5503">
        <ele>2355</ele>
        <time>2020-02-23T11:25:22Z</time>
      </trkpt>
      <trkpt lat="44.45122" lon="6.55032">
        <ele>2355</ele>
        <time>2020-02-23T11:25:26Z</time>
      </trkpt>
      <trkpt lat="44.45121" lon="6.5503">
        <ele>2354</ele>
        <time>2020-02-23T11:25:31Z</time>
      </trkpt>
      <trkpt lat="44.45117" lon="6.5503">
        <ele>2354</ele>
        <time>2020-02-23T11:25:36Z</time>
      </trkpt>
      <trkpt lat="44.45115" lon="6.55029">
        <ele>2354</ele>
        <time>2020-02-23T11:25:43Z</time>
      </trkpt>
      <trkpt lat="44.45113" lon="6.55027">
        <ele>2354</ele>
        <time>2020-02-23T11:25:46Z</time>
      </trkpt>
      <trkpt lat="44.45111" lon="6.55025">
        <ele>2354</ele>
        <time>2020-02-23T11:25:51Z</time>
      </trkpt>
      <trkpt lat="44.45109" lon="6.55025">
        <ele>2355</ele>
        <time>2020-02-23T11:25:55Z</time>
      </trkpt>
      <trkpt lat="44.45106" lon="6.55023">
        <ele>2357</ele>
        <time>2020-02-23T11:26:03Z</time>
      </trkpt>
      <trkpt lat="44.45097" lon="6.55023">
        <ele>2360</ele>
        <time>2020-02-23T11:26:15Z</time>
      </trkpt>
      <trkpt lat="44.45094" lon="6.55022">
        <ele>2361</ele>
        <time>2020-02-23T11:26:19Z</time>
      </trkpt>
      <trkpt lat="44.45092" lon="6.55027">
        <ele>2362</ele>
        <time>2020-02-23T11:26:24Z</time>
      </trkpt>
      <trkpt lat="44.45089" lon="6.55027">
        <ele>2364</ele>
        <time>2020-02-23T11:26:27Z</time>
      </trkpt>
      <trkpt lat="44.45083" lon="6.55022">
        <ele>2365</ele>
        <time>2020-02-23T11:26:38Z</time>
      </trkpt>
      <trkpt lat="44.45081" lon="6.55022">
        <ele>2365</ele>
        <time>2020-02-23T11:26:40Z</time>
      </trkpt>
      <trkpt lat="44.45079" lon="6.55022">
        <ele>2365</ele>
        <time>2020-02-23T11:26:44Z</time>
      </trkpt>
      <trkpt lat="44.45075" lon="6.55022">
        <ele>2367</ele>
        <time>2020-02-23T11:26:49Z</time>
      </trkpt>
      <trkpt lat="44.45073" lon="6.5502">
        <ele>2368</ele>
        <time>2020-02-23T11:26:52Z</time>
      </trkpt>
      <trkpt lat="44.45065" lon="6.5502">
        <ele>2368</ele>
        <time>2020-02-23T11:27:02Z</time>
      </trkpt>
      <trkpt lat="44.45063" lon="6.55022">
        <ele>2368</ele>
        <time>2020-02-23T11:27:05Z</time>
      </trkpt>
      <trkpt lat="44.45061" lon="6.5502">
        <ele>2368</ele>
        <time>2020-02-23T11:27:09Z</time>
      </trkpt>
      <trkpt lat="44.45059" lon="6.55023">
        <ele>2371</ele>
        <time>2020-02-23T11:27:17Z</time>
      </trkpt>
      <trkpt lat="44.45056" lon="6.55022">
        <ele>2372</ele>
        <time>2020-02-23T11:27:20Z</time>
      </trkpt>
      <trkpt lat="44.45054" lon="6.5502">
        <ele>2372</ele>
        <time>2020-02-23T11:27:22Z</time>
      </trkpt>
      <trkpt lat="44.45052" lon="6.55019">
        <ele>2372</ele>
        <time>2020-02-23T11:27:27Z</time>
      </trkpt>
      <trkpt lat="44.4505" lon="6.55019">
        <ele>2372</ele>
        <time>2020-02-23T11:27:30Z</time>
      </trkpt>
      <trkpt lat="44.45048" lon="6.55018">
        <ele>2372</ele>
        <time>2020-02-23T11:27:35Z</time>
      </trkpt>
      <trkpt lat="44.45046" lon="6.55019">
        <ele>2373</ele>
        <time>2020-02-23T11:27:39Z</time>
      </trkpt>
      <trkpt lat="44.45043" lon="6.5502">
        <ele>2374</ele>
        <time>2020-02-23T11:27:49Z</time>
      </trkpt>
      <trkpt lat="44.45041" lon="6.55017">
        <ele>2374</ele>
        <time>2020-02-23T11:27:51Z</time>
      </trkpt>
      <trkpt lat="44.45034" lon="6.55014">
        <ele>2378</ele>
        <time>2020-02-23T11:27:58Z</time>
      </trkpt>
      <trkpt lat="44.45032" lon="6.55012">
        <ele>2381</ele>
        <time>2020-02-23T11:28:06Z</time>
      </trkpt>
      <trkpt lat="44.45027" lon="6.5501">
        <ele>2381</ele>
        <time>2020-02-23T11:28:12Z</time>
      </trkpt>
      <trkpt lat="44.45026" lon="6.55006">
        <ele>2381</ele>
        <time>2020-02-23T11:28:15Z</time>
      </trkpt>
      <trkpt lat="44.45023" lon="6.55004">
        <ele>2380</ele>
        <time>2020-02-23T11:28:18Z</time>
      </trkpt>
      <trkpt lat="44.45016" lon="6.55003">
        <ele>2381</ele>
        <time>2020-02-23T11:28:23Z</time>
      </trkpt>
      <trkpt lat="44.45014" lon="6.55003">
        <ele>2382</ele>
        <time>2020-02-23T11:28:32Z</time>
      </trkpt>
      <trkpt lat="44.45011" lon="6.55008">
        <ele>2382</ele>
        <time>2020-02-23T11:28:41Z</time>
      </trkpt>
      <trkpt lat="44.45011" lon="6.5501">
        <ele>2382</ele>
        <time>2020-02-23T11:28:43Z</time>
      </trkpt>
      <trkpt lat="44.45009" lon="6.55014">
        <ele>2383</ele>
        <time>2020-02-23T11:28:46Z</time>
      </trkpt>
      <trkpt lat="44.45008" lon="6.55017">
        <ele>2385</ele>
        <time>2020-02-23T11:28:50Z</time>
      </trkpt>
      <trkpt lat="44.45008" lon="6.5502">
        <ele>2386</ele>
        <time>2020-02-23T11:28:53Z</time>
      </trkpt>
      <trkpt lat="44.45006" lon="6.55026">
        <ele>2390</ele>
        <time>2020-02-23T11:28:58Z</time>
      </trkpt>
      <trkpt lat="44.45008" lon="6.55028">
        <ele>2389</ele>
        <time>2020-02-23T11:29:08Z</time>
      </trkpt>
      <trkpt lat="44.45007" lon="6.5503">
        <ele>2390</ele>
        <time>2020-02-23T11:29:21Z</time>
      </trkpt>
      <trkpt lat="44.45005" lon="6.5504">
        <ele>2393</ele>
        <time>2020-02-23T11:29:26Z</time>
      </trkpt>
      <trkpt lat="44.45002" lon="6.55041">
        <ele>2394</ele>
        <time>2020-02-23T11:29:28Z</time>
      </trkpt>
      <trkpt lat="44.45004" lon="6.55046">
        <ele>2396</ele>
        <time>2020-02-23T11:29:37Z</time>
      </trkpt>
      <trkpt lat="44.45005" lon="6.55049">
        <ele>2397</ele>
        <time>2020-02-23T11:29:40Z</time>
      </trkpt>
      <trkpt lat="44.45005" lon="6.55053">
        <ele>2397</ele>
        <time>2020-02-23T11:29:46Z</time>
      </trkpt>
      <trkpt lat="44.45004" lon="6.55056">
        <ele>2399</ele>
        <time>2020-02-23T11:29:50Z</time>
      </trkpt>
      <trkpt lat="44.45006" lon="6.55058">
        <ele>2399</ele>
        <time>2020-02-23T11:29:58Z</time>
      </trkpt>
      <trkpt lat="44.45006" lon="6.5506">
        <ele>2399</ele>
        <time>2020-02-23T11:30:01Z</time>
      </trkpt>
      <trkpt lat="44.45006" lon="6.55064">
        <ele>2401</ele>
        <time>2020-02-23T11:30:05Z</time>
      </trkpt>
      <trkpt lat="44.45004" lon="6.55065">
        <ele>2404</ele>
        <time>2020-02-23T11:30:07Z</time>
      </trkpt>
      <trkpt lat="44.45002" lon="6.55068">
        <ele>2404</ele>
        <time>2020-02-23T11:30:24Z</time>
      </trkpt>
      <trkpt lat="44.44995" lon="6.55071">
        <ele>2403</ele>
        <time>2020-02-23T11:30:30Z</time>
      </trkpt>
      <trkpt lat="44.44993" lon="6.55072">
        <ele>2403</ele>
        <time>2020-02-23T11:30:32Z</time>
      </trkpt>
      <trkpt lat="44.44991" lon="6.55071">
        <ele>2403</ele>
        <time>2020-02-23T11:30:38Z</time>
      </trkpt>
      <trkpt lat="44.44989" lon="6.55072">
        <ele>2403</ele>
        <time>2020-02-23T11:30:43Z</time>
      </trkpt>
      <trkpt lat="44.44984" lon="6.5507">
        <ele>2405</ele>
        <time>2020-02-23T11:31:02Z</time>
      </trkpt>
      <trkpt lat="44.44982" lon="6.5507">
        <ele>2406</ele>
        <time>2020-02-23T11:31:05Z</time>
      </trkpt>
      <trkpt lat="44.4498" lon="6.55071">
        <ele>2407</ele>
        <time>2020-02-23T11:31:08Z</time>
      </trkpt>
      <trkpt lat="44.44978" lon="6.55073">
        <ele>2407</ele>
        <time>2020-02-23T11:31:09Z</time>
      </trkpt>
      <trkpt lat="44.44977" lon="6.5507">
        <ele>2407</ele>
        <time>2020-02-23T11:31:15Z</time>
      </trkpt>
      <trkpt lat="44.44976" lon="6.55068">
        <ele>2408</ele>
        <time>2020-02-23T11:31:19Z</time>
      </trkpt>
      <trkpt lat="44.44973" lon="6.5507">
        <ele>2409</ele>
        <time>2020-02-23T11:31:28Z</time>
      </trkpt>
      <trkpt lat="44.44967" lon="6.55073">
        <ele>2412</ele>
        <time>2020-02-23T11:31:30Z</time>
      </trkpt>
      <trkpt lat="44.44967" lon="6.55064">
        <ele>2413</ele>
        <time>2020-02-23T11:31:38Z</time>
      </trkpt>
      <trkpt lat="44.44965" lon="6.55062">
        <ele>2413</ele>
        <time>2020-02-23T11:31:48Z</time>
      </trkpt>
      <trkpt lat="44.44964" lon="6.55059">
        <ele>2413</ele>
        <time>2020-02-23T11:31:50Z</time>
      </trkpt>
      <trkpt lat="44.44963" lon="6.55057">
        <ele>2413</ele>
        <time>2020-02-23T11:31:54Z</time>
      </trkpt>
      <trkpt lat="44.4496" lon="6.55054">
        <ele>2417</ele>
        <time>2020-02-23T11:31:58Z</time>
      </trkpt>
      <trkpt lat="44.44958" lon="6.55051">
        <ele>2417</ele>
        <time>2020-02-23T11:32:02Z</time>
      </trkpt>
      <trkpt lat="44.44956" lon="6.55052">
        <ele>2417</ele>
        <time>2020-02-23T11:32:06Z</time>
      </trkpt>
      <trkpt lat="44.44954" lon="6.55051">
        <ele>2418</ele>
        <time>2020-02-23T11:32:09Z</time>
      </trkpt>
      <trkpt lat="44.44953" lon="6.55048">
        <ele>2419</ele>
        <time>2020-02-23T11:32:19Z</time>
      </trkpt>
      <trkpt lat="44.4495" lon="6.55048">
        <ele>2420</ele>
        <time>2020-02-23T11:32:21Z</time>
      </trkpt>
      <trkpt lat="44.44948" lon="6.55047">
        <ele>2420</ele>
        <time>2020-02-23T11:32:25Z</time>
      </trkpt>
      <trkpt lat="44.44946" lon="6.55046">
        <ele>2421</ele>
        <time>2020-02-23T11:32:29Z</time>
      </trkpt>
      <trkpt lat="44.44943" lon="6.55042">
        <ele>2422</ele>
        <time>2020-02-23T11:32:35Z</time>
      </trkpt>
      <trkpt lat="44.4494" lon="6.5504">
        <ele>2423</ele>
        <time>2020-02-23T11:32:41Z</time>
      </trkpt>
      <trkpt lat="44.44938" lon="6.55042">
        <ele>2424</ele>
        <time>2020-02-23T11:32:45Z</time>
      </trkpt>
      <trkpt lat="44.44935" lon="6.55041">
        <ele>2424</ele>
        <time>2020-02-23T11:32:48Z</time>
      </trkpt>
      <trkpt lat="44.44933" lon="6.55042">
        <ele>2425</ele>
        <time>2020-02-23T11:32:50Z</time>
      </trkpt>
      <trkpt lat="44.44931" lon="6.55043">
        <ele>2425</ele>
        <time>2020-02-23T11:32:57Z</time>
      </trkpt>
      <trkpt lat="44.44927" lon="6.55043">
        <ele>2426</ele>
        <time>2020-02-23T11:33:02Z</time>
      </trkpt>
      <trkpt lat="44.44925" lon="6.55043">
        <ele>2426</ele>
        <time>2020-02-23T11:33:03Z</time>
      </trkpt>
      <trkpt lat="44.44921" lon="6.55044">
        <ele>2426</ele>
        <time>2020-02-23T11:33:12Z</time>
      </trkpt>
      <trkpt lat="44.44918" lon="6.55043">
        <ele>2427</ele>
        <time>2020-02-23T11:33:15Z</time>
      </trkpt>
      <trkpt lat="44.44917" lon="6.5504">
        <ele>2427</ele>
        <time>2020-02-23T11:33:17Z</time>
      </trkpt>
      <trkpt lat="44.44914" lon="6.55038">
        <ele>2430</ele>
        <time>2020-02-23T11:33:19Z</time>
      </trkpt>
      <trkpt lat="44.44913" lon="6.55034">
        <ele>2430</ele>
        <time>2020-02-23T11:33:21Z</time>
      </trkpt>
      <trkpt lat="44.44908" lon="6.55035">
        <ele>2432</ele>
        <time>2020-02-23T11:33:32Z</time>
      </trkpt>
      <trkpt lat="44.449" lon="6.55035">
        <ele>2432</ele>
        <time>2020-02-23T11:33:43Z</time>
      </trkpt>
      <trkpt lat="44.44898" lon="6.55035">
        <ele>2433</ele>
        <time>2020-02-23T11:33:48Z</time>
      </trkpt>
      <trkpt lat="44.44897" lon="6.55037">
        <ele>2433</ele>
        <time>2020-02-23T11:33:49Z</time>
      </trkpt>
      <trkpt lat="44.44894" lon="6.55039">
        <ele>2433</ele>
        <time>2020-02-23T11:33:52Z</time>
      </trkpt>
      <trkpt lat="44.44893" lon="6.55038">
        <ele>2433</ele>
        <time>2020-02-23T11:33:58Z</time>
      </trkpt>
      <trkpt lat="44.44893" lon="6.55036">
        <ele>2434</ele>
        <time>2020-02-23T11:34:02Z</time>
      </trkpt>
      <trkpt lat="44.44891" lon="6.55035">
        <ele>2436</ele>
        <time>2020-02-23T11:34:10Z</time>
      </trkpt>
      <trkpt lat="44.44889" lon="6.55034">
        <ele>2437</ele>
        <time>2020-02-23T11:34:14Z</time>
      </trkpt>
      <trkpt lat="44.44887" lon="6.55033">
        <ele>2437</ele>
        <time>2020-02-23T11:34:19Z</time>
      </trkpt>
      <trkpt lat="44.44885" lon="6.55031">
        <ele>2439</ele>
        <time>2020-02-23T11:34:23Z</time>
      </trkpt>
      <trkpt lat="44.44881" lon="6.55031">
        <ele>2442</ele>
        <time>2020-02-23T11:34:30Z</time>
      </trkpt>
      <trkpt lat="44.4488" lon="6.55029">
        <ele>2443</ele>
        <time>2020-02-23T11:34:38Z</time>
      </trkpt>
      <trkpt lat="44.44878" lon="6.55029">
        <ele>2443</ele>
        <time>2020-02-23T11:34:43Z</time>
      </trkpt>
      <trkpt lat="44.44875" lon="6.5503">
        <ele>2444</ele>
        <time>2020-02-23T11:34:52Z</time>
      </trkpt>
      <trkpt lat="44.44873" lon="6.55025">
        <ele>2447</ele>
        <time>2020-02-23T11:34:58Z</time>
      </trkpt>
      <trkpt lat="44.44868" lon="6.55024">
        <ele>2446</ele>
        <time>2020-02-23T11:35:06Z</time>
      </trkpt>
      <trkpt lat="44.44864" lon="6.55025">
        <ele>2447</ele>
        <time>2020-02-23T11:35:14Z</time>
      </trkpt>
      <trkpt lat="44.44862" lon="6.55027">
        <ele>2447</ele>
        <time>2020-02-23T11:35:17Z</time>
      </trkpt>
      <trkpt lat="44.44861" lon="6.5503">
        <ele>2447</ele>
        <time>2020-02-23T11:35:18Z</time>
      </trkpt>
      <trkpt lat="44.44858" lon="6.55027">
        <ele>2448</ele>
        <time>2020-02-23T11:35:27Z</time>
      </trkpt>
      <trkpt lat="44.44856" lon="6.55026">
        <ele>2448</ele>
        <time>2020-02-23T11:35:33Z</time>
      </trkpt>
      <trkpt lat="44.44854" lon="6.55025">
        <ele>2449</ele>
        <time>2020-02-23T11:35:39Z</time>
      </trkpt>
      <trkpt lat="44.44852" lon="6.55023">
        <ele>2449</ele>
        <time>2020-02-23T11:35:45Z</time>
      </trkpt>
      <trkpt lat="44.4485" lon="6.55021">
        <ele>2451</ele>
        <time>2020-02-23T11:35:51Z</time>
      </trkpt>
      <trkpt lat="44.44848" lon="6.5502">
        <ele>2451</ele>
        <time>2020-02-23T11:35:53Z</time>
      </trkpt>
      <trkpt lat="44.44844" lon="6.55019">
        <ele>2453</ele>
        <time>2020-02-23T11:36:04Z</time>
      </trkpt>
      <trkpt lat="44.44844" lon="6.55014">
        <ele>2456</ele>
        <time>2020-02-23T11:36:08Z</time>
      </trkpt>
      <trkpt lat="44.44841" lon="6.55014">
        <ele>2458</ele>
        <time>2020-02-23T11:36:10Z</time>
      </trkpt>
      <trkpt lat="44.44838" lon="6.55015">
        <ele>2458</ele>
        <time>2020-02-23T11:36:12Z</time>
      </trkpt>
      <trkpt lat="44.44836" lon="6.55014">
        <ele>2459</ele>
        <time>2020-02-23T11:36:24Z</time>
      </trkpt>
      <trkpt lat="44.44829" lon="6.55016">
        <ele>2465</ele>
        <time>2020-02-23T11:36:28Z</time>
      </trkpt>
      <trkpt lat="44.44825" lon="6.55014">
        <ele>2465</ele>
        <time>2020-02-23T11:36:30Z</time>
      </trkpt>
      <trkpt lat="44.44823" lon="6.55011">
        <ele>2464</ele>
        <time>2020-02-23T11:36:38Z</time>
      </trkpt>
      <trkpt lat="44.44821" lon="6.55012">
        <ele>2464</ele>
        <time>2020-02-23T11:36:42Z</time>
      </trkpt>
      <trkpt lat="44.44819" lon="6.5501">
        <ele>2464</ele>
        <time>2020-02-23T11:36:54Z</time>
      </trkpt>
      <trkpt lat="44.44818" lon="6.5501">
        <ele>2463</ele>
        <time>2020-02-23T11:36:58Z</time>
      </trkpt>
      <trkpt lat="44.44815" lon="6.55009">
        <ele>2464</ele>
        <time>2020-02-23T11:37:09Z</time>
      </trkpt>
      <trkpt lat="44.44813" lon="6.55006">
        <ele>2466</ele>
        <time>2020-02-23T11:37:11Z</time>
      </trkpt>
      <trkpt lat="44.4481" lon="6.55006">
        <ele>2467</ele>
        <time>2020-02-23T11:37:14Z</time>
      </trkpt>
      <trkpt lat="44.44808" lon="6.55006">
        <ele>2468</ele>
        <time>2020-02-23T11:37:16Z</time>
      </trkpt>
      <trkpt lat="44.44807" lon="6.55006">
        <ele>2468</ele>
        <time>2020-02-23T11:37:30Z</time>
      </trkpt>
      <trkpt lat="44.44805" lon="6.55003">
        <ele>2469</ele>
        <time>2020-02-23T11:37:35Z</time>
      </trkpt>
      <trkpt lat="44.44802" lon="6.55002">
        <ele>2471</ele>
        <time>2020-02-23T11:37:38Z</time>
      </trkpt>
      <trkpt lat="44.448" lon="6.55">
        <ele>2472</ele>
        <time>2020-02-23T11:37:45Z</time>
      </trkpt>
      <trkpt lat="44.44798" lon="6.55001">
        <ele>2473</ele>
        <time>2020-02-23T11:37:47Z</time>
      </trkpt>
      <trkpt lat="44.44797" lon="6.54999">
        <ele>2474</ele>
        <time>2020-02-23T11:37:50Z</time>
      </trkpt>
      <trkpt lat="44.44795" lon="6.54998">
        <ele>2474</ele>
        <time>2020-02-23T11:37:55Z</time>
      </trkpt>
      <trkpt lat="44.44793" lon="6.54997">
        <ele>2474</ele>
        <time>2020-02-23T11:37:59Z</time>
      </trkpt>
      <trkpt lat="44.44792" lon="6.54995">
        <ele>2474</ele>
        <time>2020-02-23T11:38:02Z</time>
      </trkpt>
      <trkpt lat="44.44789" lon="6.54992">
        <ele>2474</ele>
        <time>2020-02-23T11:38:07Z</time>
      </trkpt>
      <trkpt lat="44.44788" lon="6.5499">
        <ele>2474</ele>
        <time>2020-02-23T11:38:10Z</time>
      </trkpt>
      <trkpt lat="44.44786" lon="6.54988">
        <ele>2475</ele>
        <time>2020-02-23T11:38:14Z</time>
      </trkpt>
      <trkpt lat="44.44784" lon="6.54986">
        <ele>2475</ele>
        <time>2020-02-23T11:38:22Z</time>
      </trkpt>
      <trkpt lat="44.44778" lon="6.54987">
        <ele>2476</ele>
        <time>2020-02-23T11:38:31Z</time>
      </trkpt>
      <trkpt lat="44.44778" lon="6.54983">
        <ele>2477</ele>
        <time>2020-02-23T11:38:34Z</time>
      </trkpt>
      <trkpt lat="44.44776" lon="6.54984">
        <ele>2478</ele>
        <time>2020-02-23T11:38:38Z</time>
      </trkpt>
      <trkpt lat="44.44776" lon="6.5498">
        <ele>2479</ele>
        <time>2020-02-23T11:38:42Z</time>
      </trkpt>
      <trkpt lat="44.44776" lon="6.54977">
        <ele>2479</ele>
        <time>2020-02-23T11:38:45Z</time>
      </trkpt>
      <trkpt lat="44.44774" lon="6.54972">
        <ele>2480</ele>
        <time>2020-02-23T11:38:57Z</time>
      </trkpt>
      <trkpt lat="44.44772" lon="6.54977">
        <ele>2480</ele>
        <time>2020-02-23T11:39:11Z</time>
      </trkpt>
      <trkpt lat="44.44774" lon="6.54981">
        <ele>2481</ele>
        <time>2020-02-23T11:39:14Z</time>
      </trkpt>
      <trkpt lat="44.44771" lon="6.54983">
        <ele>2485</ele>
        <time>2020-02-23T11:39:18Z</time>
      </trkpt>
      <trkpt lat="44.4477" lon="6.54985">
        <ele>2487</ele>
        <time>2020-02-23T11:39:23Z</time>
      </trkpt>
      <trkpt lat="44.4477" lon="6.54989">
        <ele>2489</ele>
        <time>2020-02-23T11:39:26Z</time>
      </trkpt>
      <trkpt lat="44.44771" lon="6.54992">
        <ele>2491</ele>
        <time>2020-02-23T11:39:27Z</time>
      </trkpt>
      <trkpt lat="44.44771" lon="6.54996">
        <ele>2492</ele>
        <time>2020-02-23T11:39:35Z</time>
      </trkpt>
      <trkpt lat="44.44769" lon="6.54996">
        <ele>2491</ele>
        <time>2020-02-23T11:39:37Z</time>
      </trkpt>
      <trkpt lat="44.44769" lon="6.54995">
        <ele>2492</ele>
        <time>2020-02-23T11:39:48Z</time>
      </trkpt>
      <trkpt lat="44.44766" lon="6.54994">
        <ele>2492</ele>
        <time>2020-02-23T11:39:51Z</time>
      </trkpt>
      <trkpt lat="44.44764" lon="6.54991">
        <ele>2494</ele>
        <time>2020-02-23T11:39:58Z</time>
      </trkpt>
      <trkpt lat="44.44761" lon="6.5499">
        <ele>2494</ele>
        <time>2020-02-23T11:40:01Z</time>
      </trkpt>
      <trkpt lat="44.44761" lon="6.54987">
        <ele>2494</ele>
        <time>2020-02-23T11:40:09Z</time>
      </trkpt>
      <trkpt lat="44.44758" lon="6.54986">
        <ele>2494</ele>
        <time>2020-02-23T11:40:11Z</time>
      </trkpt>
      <trkpt lat="44.44755" lon="6.54984">
        <ele>2493</ele>
        <time>2020-02-23T11:40:16Z</time>
      </trkpt>
      <trkpt lat="44.44754" lon="6.54983">
        <ele>2493</ele>
        <time>2020-02-23T11:40:22Z</time>
      </trkpt>
      <trkpt lat="44.44753" lon="6.54991">
        <ele>2495</ele>
        <time>2020-02-23T11:40:35Z</time>
      </trkpt>
      <trkpt lat="44.44752" lon="6.54994">
        <ele>2496</ele>
        <time>2020-02-23T11:40:37Z</time>
      </trkpt>
      <trkpt lat="44.44751" lon="6.55012">
        <ele>2504</ele>
        <time>2020-02-23T11:41:07Z</time>
      </trkpt>
      <trkpt lat="44.44751" lon="6.55015">
        <ele>2504</ele>
        <time>2020-02-23T11:41:11Z</time>
      </trkpt>
      <trkpt lat="44.44754" lon="6.55017">
        <ele>2506</ele>
        <time>2020-02-23T11:41:16Z</time>
      </trkpt>
      <trkpt lat="44.44751" lon="6.55026">
        <ele>2507</ele>
        <time>2020-02-23T11:41:27Z</time>
      </trkpt>
      <trkpt lat="44.44751" lon="6.55029">
        <ele>2507</ele>
        <time>2020-02-23T11:41:31Z</time>
      </trkpt>
      <trkpt lat="44.44748" lon="6.5503">
        <ele>2510</ele>
        <time>2020-02-23T11:41:39Z</time>
      </trkpt>
      <trkpt lat="44.44748" lon="6.55027">
        <ele>2510</ele>
        <time>2020-02-23T11:41:42Z</time>
      </trkpt>
      <trkpt lat="44.44747" lon="6.55025">
        <ele>2509</ele>
        <time>2020-02-23T11:41:47Z</time>
      </trkpt>
      <trkpt lat="44.44742" lon="6.55021">
        <ele>2510</ele>
        <time>2020-02-23T11:41:58Z</time>
      </trkpt>
      <trkpt lat="44.44739" lon="6.55019">
        <ele>2512</ele>
        <time>2020-02-23T11:42:02Z</time>
      </trkpt>
      <trkpt lat="44.44731" lon="6.55019">
        <ele>2515</ele>
        <time>2020-02-23T11:42:09Z</time>
      </trkpt>
      <trkpt lat="44.44728" lon="6.55017">
        <ele>2514</ele>
        <time>2020-02-23T11:42:11Z</time>
      </trkpt>
      <trkpt lat="44.44729" lon="6.55014">
        <ele>2514</ele>
        <time>2020-02-23T11:42:16Z</time>
      </trkpt>
      <trkpt lat="44.44728" lon="6.55012">
        <ele>2512</ele>
        <time>2020-02-23T11:42:21Z</time>
      </trkpt>
      <trkpt lat="44.44725" lon="6.55022">
        <ele>2514</ele>
        <time>2020-02-23T11:42:44Z</time>
      </trkpt>
      <trkpt lat="44.44725" lon="6.55026">
        <ele>2515</ele>
        <time>2020-02-23T11:42:47Z</time>
      </trkpt>
      <trkpt lat="44.4472" lon="6.55033">
        <ele>2518</ele>
        <time>2020-02-23T11:43:00Z</time>
      </trkpt>
      <trkpt lat="44.44722" lon="6.55035">
        <ele>2519</ele>
        <time>2020-02-23T11:43:06Z</time>
      </trkpt>
      <trkpt lat="44.4472" lon="6.55038">
        <ele>2522</ele>
        <time>2020-02-23T11:43:08Z</time>
      </trkpt>
      <trkpt lat="44.44719" lon="6.55043">
        <ele>2523</ele>
        <time>2020-02-23T11:43:13Z</time>
      </trkpt>
      <trkpt lat="44.44712" lon="6.55033">
        <ele>2524</ele>
        <time>2020-02-23T11:43:24Z</time>
      </trkpt>
      <trkpt lat="44.44709" lon="6.55033">
        <ele>2526</ele>
        <time>2020-02-23T11:43:26Z</time>
      </trkpt>
      <trkpt lat="44.44709" lon="6.5503">
        <ele>2525</ele>
        <time>2020-02-23T11:43:31Z</time>
      </trkpt>
      <trkpt lat="44.44708" lon="6.55027">
        <ele>2525</ele>
        <time>2020-02-23T11:43:34Z</time>
      </trkpt>
      <trkpt lat="44.44708" lon="6.55021">
        <ele>2525</ele>
        <time>2020-02-23T11:43:43Z</time>
      </trkpt>
      <trkpt lat="44.44708" lon="6.55016">
        <ele>2525</ele>
        <time>2020-02-23T11:43:46Z</time>
      </trkpt>
      <trkpt lat="44.44709" lon="6.55012">
        <ele>2528</ele>
        <time>2020-02-23T11:43:49Z</time>
      </trkpt>
      <trkpt lat="44.44706" lon="6.55004">
        <ele>2530</ele>
        <time>2020-02-23T11:43:57Z</time>
      </trkpt>
      <trkpt lat="44.44705" lon="6.55001">
        <ele>2530</ele>
        <time>2020-02-23T11:43:59Z</time>
      </trkpt>
      <trkpt lat="44.44702" lon="6.54993">
        <ele>2528</ele>
        <time>2020-02-23T11:44:07Z</time>
      </trkpt>
      <trkpt lat="44.44701" lon="6.54986">
        <ele>2528</ele>
        <time>2020-02-23T11:44:11Z</time>
      </trkpt>
      <trkpt lat="44.44698" lon="6.54982">
        <ele>2530</ele>
        <time>2020-02-23T11:44:13Z</time>
      </trkpt>
      <trkpt lat="44.44696" lon="6.54983">
        <ele>2530</ele>
        <time>2020-02-23T11:44:58Z</time>
      </trkpt>
      <trkpt lat="44.44698" lon="6.54985">
        <ele>2535</ele>
        <time>2020-02-23T11:45:20Z</time>
      </trkpt>
      <trkpt lat="44.44699" lon="6.54984">
        <ele>2535</ele>
        <time>2020-02-23T11:46:16Z</time>
      </trkpt>
      <trkpt lat="44.44698" lon="6.54981">
        <ele>2535</ele>
        <time>2020-02-23T11:47:25Z</time>
      </trkpt>
      <trkpt lat="44.44696" lon="6.54976">
        <ele>2534</ele>
        <time>2020-02-23T11:47:27Z</time>
      </trkpt>
      <trkpt lat="44.44694" lon="6.54967">
        <ele>2532</ele>
        <time>2020-02-23T11:47:34Z</time>
      </trkpt>
      <trkpt lat="44.44694" lon="6.54964">
        <ele>2531</ele>
        <time>2020-02-23T11:47:40Z</time>
      </trkpt>
      <trkpt lat="44.44694" lon="6.5496">
        <ele>2530</ele>
        <time>2020-02-23T11:47:43Z</time>
      </trkpt>
      <trkpt lat="44.44693" lon="6.54956">
        <ele>2529</ele>
        <time>2020-02-23T11:47:47Z</time>
      </trkpt>
      <trkpt lat="44.44689" lon="6.54938">
        <ele>2530</ele>
        <time>2020-02-23T11:48:10Z</time>
      </trkpt>
      <trkpt lat="44.44688" lon="6.54936">
        <ele>2530</ele>
        <time>2020-02-23T11:48:12Z</time>
      </trkpt>
      <trkpt lat="44.44686" lon="6.54931">
        <ele>2531</ele>
        <time>2020-02-23T11:48:17Z</time>
      </trkpt>
      <trkpt lat="44.44686" lon="6.54929">
        <ele>2531</ele>
        <time>2020-02-23T11:48:19Z</time>
      </trkpt>
      <trkpt lat="44.44683" lon="6.5492">
        <ele>2532</ele>
        <time>2020-02-23T11:48:29Z</time>
      </trkpt>
      <trkpt lat="44.44683" lon="6.54914">
        <ele>2532</ele>
        <time>2020-02-23T11:48:33Z</time>
      </trkpt>
      <trkpt lat="44.44682" lon="6.54912">
        <ele>2532</ele>
        <time>2020-02-23T11:48:36Z</time>
      </trkpt>
      <trkpt lat="44.44683" lon="6.54909">
        <ele>2532</ele>
        <time>2020-02-23T11:48:39Z</time>
      </trkpt>
      <trkpt lat="44.44683" lon="6.54905">
        <ele>2533</ele>
        <time>2020-02-23T11:48:41Z</time>
      </trkpt>
      <trkpt lat="44.44681" lon="6.54902">
        <ele>2533</ele>
        <time>2020-02-23T11:48:45Z</time>
      </trkpt>
      <trkpt lat="44.44681" lon="6.54898">
        <ele>2534</ele>
        <time>2020-02-23T11:48:48Z</time>
      </trkpt>
      <trkpt lat="44.44681" lon="6.54894">
        <ele>2535</ele>
        <time>2020-02-23T11:48:54Z</time>
      </trkpt>
      <trkpt lat="44.44683" lon="6.54892">
        <ele>2535</ele>
        <time>2020-02-23T11:48:58Z</time>
      </trkpt>
      <trkpt lat="44.44682" lon="6.54886">
        <ele>2537</ele>
        <time>2020-02-23T11:49:01Z</time>
      </trkpt>
      <trkpt lat="44.44686" lon="6.54877">
        <ele>2543</ele>
        <time>2020-02-23T11:49:25Z</time>
      </trkpt>
      <trkpt lat="44.44688" lon="6.54874">
        <ele>2543</ele>
        <time>2020-02-23T11:49:28Z</time>
      </trkpt>
      <trkpt lat="44.44684" lon="6.54873">
        <ele>2544</ele>
        <time>2020-02-23T11:49:31Z</time>
      </trkpt>
      <trkpt lat="44.44683" lon="6.5487">
        <ele>2546</ele>
        <time>2020-02-23T11:49:36Z</time>
      </trkpt>
      <trkpt lat="44.44682" lon="6.54868">
        <ele>2547</ele>
        <time>2020-02-23T11:49:39Z</time>
      </trkpt>
      <trkpt lat="44.4468" lon="6.54865">
        <ele>2547</ele>
        <time>2020-02-23T11:49:45Z</time>
      </trkpt>
      <trkpt lat="44.44678" lon="6.54863">
        <ele>2547</ele>
        <time>2020-02-23T11:49:57Z</time>
      </trkpt>
      <trkpt lat="44.44677" lon="6.54861">
        <ele>2548</ele>
        <time>2020-02-23T11:49:59Z</time>
      </trkpt>
      <trkpt lat="44.44677" lon="6.54856">
        <ele>2548</ele>
        <time>2020-02-23T11:50:12Z</time>
      </trkpt>
      <trkpt lat="44.44675" lon="6.54854">
        <ele>2549</ele>
        <time>2020-02-23T11:50:15Z</time>
      </trkpt>
      <trkpt lat="44.44674" lon="6.54852">
        <ele>2549</ele>
        <time>2020-02-23T11:50:20Z</time>
      </trkpt>
      <trkpt lat="44.44673" lon="6.54849">
        <ele>2549</ele>
        <time>2020-02-23T11:50:25Z</time>
      </trkpt>
      <trkpt lat="44.44672" lon="6.54846">
        <ele>2550</ele>
        <time>2020-02-23T11:51:46Z</time>
      </trkpt>
      <trkpt lat="44.44668" lon="6.54842">
        <ele>2551</ele>
        <time>2020-02-23T11:51:55Z</time>
      </trkpt>
      <trkpt lat="44.44663" lon="6.54845">
        <ele>2554</ele>
        <time>2020-02-23T11:52:11Z</time>
      </trkpt>
      <trkpt lat="44.44659" lon="6.5484">
        <ele>2554</ele>
        <time>2020-02-23T11:52:36Z</time>
      </trkpt>
      <trkpt lat="44.44657" lon="6.54835">
        <ele>2558</ele>
        <time>2020-02-23T11:52:55Z</time>
      </trkpt>
      <trkpt lat="44.44663" lon="6.54832">
        <ele>2559</ele>
        <time>2020-02-23T11:53:10Z</time>
      </trkpt>
      <trkpt lat="44.44667" lon="6.54829">
        <ele>2561</ele>
        <time>2020-02-23T11:53:17Z</time>
      </trkpt>
      <trkpt lat="44.4467" lon="6.54829">
        <ele>2563</ele>
        <time>2020-02-23T11:53:29Z</time>
      </trkpt>
      <trkpt lat="44.44669" lon="6.54826">
        <ele>2563</ele>
        <time>2020-02-23T11:53:35Z</time>
      </trkpt>
      <trkpt lat="44.44667" lon="6.54822">
        <ele>2563</ele>
        <time>2020-02-23T11:53:44Z</time>
      </trkpt>
      <trkpt lat="44.44665" lon="6.5482">
        <ele>2563</ele>
        <time>2020-02-23T11:53:47Z</time>
      </trkpt>
      <trkpt lat="44.44662" lon="6.54817">
        <ele>2565</ele>
        <time>2020-02-23T11:53:54Z</time>
      </trkpt>
      <trkpt lat="44.44659" lon="6.54816">
        <ele>2566</ele>
        <time>2020-02-23T11:53:57Z</time>
      </trkpt>
      <trkpt lat="44.44657" lon="6.54814">
        <ele>2569</ele>
        <time>2020-02-23T11:54:01Z</time>
      </trkpt>
      <trkpt lat="44.44657" lon="6.5481">
        <ele>2569</ele>
        <time>2020-02-23T11:54:04Z</time>
      </trkpt>
      <trkpt lat="44.44655" lon="6.54806">
        <ele>2571</ele>
        <time>2020-02-23T11:54:10Z</time>
      </trkpt>
      <trkpt lat="44.44656" lon="6.54803">
        <ele>2572</ele>
        <time>2020-02-23T11:54:19Z</time>
      </trkpt>
      <trkpt lat="44.4466" lon="6.54802">
        <ele>2572</ele>
        <time>2020-02-23T11:54:27Z</time>
      </trkpt>
      <trkpt lat="44.44669" lon="6.54797">
        <ele>2572</ele>
        <time>2020-02-23T11:54:42Z</time>
      </trkpt>
      <trkpt lat="44.4467" lon="6.54796">
        <ele>2572</ele>
        <time>2020-02-23T11:54:46Z</time>
      </trkpt>
      <trkpt lat="44.44679" lon="6.54796">
        <ele>2575</ele>
        <time>2020-02-23T11:54:59Z</time>
      </trkpt>
      <trkpt lat="44.44684" lon="6.54793">
        <ele>2576</ele>
        <time>2020-02-23T11:55:07Z</time>
      </trkpt>
      <trkpt lat="44.44682" lon="6.54792">
        <ele>2577</ele>
        <time>2020-02-23T11:55:13Z</time>
      </trkpt>
      <trkpt lat="44.44679" lon="6.54789">
        <ele>2577</ele>
        <time>2020-02-23T11:55:17Z</time>
      </trkpt>
      <trkpt lat="44.44677" lon="6.54787">
        <ele>2577</ele>
        <time>2020-02-23T11:55:20Z</time>
      </trkpt>
      <trkpt lat="44.44674" lon="6.54783">
        <ele>2578</ele>
        <time>2020-02-23T11:55:28Z</time>
      </trkpt>
      <trkpt lat="44.44673" lon="6.5478">
        <ele>2579</ele>
        <time>2020-02-23T11:55:32Z</time>
      </trkpt>
      <trkpt lat="44.44671" lon="6.54779">
        <ele>2579</ele>
        <time>2020-02-23T11:55:36Z</time>
      </trkpt>
      <trkpt lat="44.44668" lon="6.54775">
        <ele>2579</ele>
        <time>2020-02-23T11:55:43Z</time>
      </trkpt>
      <trkpt lat="44.44668" lon="6.54772">
        <ele>2581</ele>
        <time>2020-02-23T11:55:48Z</time>
      </trkpt>
      <trkpt lat="44.44666" lon="6.5477">
        <ele>2581</ele>
        <time>2020-02-23T11:55:52Z</time>
      </trkpt>
      <trkpt lat="44.44665" lon="6.54766">
        <ele>2583</ele>
        <time>2020-02-23T11:55:58Z</time>
      </trkpt>
      <trkpt lat="44.44664" lon="6.54765">
        <ele>2583</ele>
        <time>2020-02-23T11:56:00Z</time>
      </trkpt>
      <trkpt lat="44.44663" lon="6.54761">
        <ele>2584</ele>
        <time>2020-02-23T11:56:07Z</time>
      </trkpt>
      <trkpt lat="44.44662" lon="6.54755">
        <ele>2585</ele>
        <time>2020-02-23T11:56:15Z</time>
      </trkpt>
      <trkpt lat="44.44662" lon="6.54753">
        <ele>2587</ele>
        <time>2020-02-23T11:56:18Z</time>
      </trkpt>
      <trkpt lat="44.4466" lon="6.54751">
        <ele>2587</ele>
        <time>2020-02-23T11:56:22Z</time>
      </trkpt>
      <trkpt lat="44.44662" lon="6.54748">
        <ele>2587</ele>
        <time>2020-02-23T11:56:28Z</time>
      </trkpt>
      <trkpt lat="44.44675" lon="6.54742">
        <ele>2594</ele>
        <time>2020-02-23T11:56:58Z</time>
      </trkpt>
      <trkpt lat="44.44678" lon="6.54739">
        <ele>2594</ele>
        <time>2020-02-23T11:57:03Z</time>
      </trkpt>
      <trkpt lat="44.4468" lon="6.54733">
        <ele>2596</ele>
        <time>2020-02-23T11:57:11Z</time>
      </trkpt>
      <trkpt lat="44.44681" lon="6.5473">
        <ele>2596</ele>
        <time>2020-02-23T11:57:15Z</time>
      </trkpt>
      <trkpt lat="44.44682" lon="6.54727">
        <ele>2596</ele>
        <time>2020-02-23T11:57:19Z</time>
      </trkpt>
      <trkpt lat="44.44684" lon="6.5472">
        <ele>2596</ele>
        <time>2020-02-23T11:57:25Z</time>
      </trkpt>
      <trkpt lat="44.44686" lon="6.54718">
        <ele>2597</ele>
        <time>2020-02-23T11:57:30Z</time>
      </trkpt>
      <trkpt lat="44.44688" lon="6.54713">
        <ele>2599</ele>
        <time>2020-02-23T11:57:34Z</time>
      </trkpt>
      <trkpt lat="44.44687" lon="6.5471">
        <ele>2599</ele>
        <time>2020-02-23T11:57:37Z</time>
      </trkpt>
      <trkpt lat="44.44688" lon="6.54707">
        <ele>2599</ele>
        <time>2020-02-23T11:57:43Z</time>
      </trkpt>
      <trkpt lat="44.44688" lon="6.54701">
        <ele>2599</ele>
        <time>2020-02-23T11:57:49Z</time>
      </trkpt>
      <trkpt lat="44.44689" lon="6.54696">
        <ele>2599</ele>
        <time>2020-02-23T11:57:55Z</time>
      </trkpt>
      <trkpt lat="44.44689" lon="6.54692">
        <ele>2600</ele>
        <time>2020-02-23T11:57:59Z</time>
      </trkpt>
      <trkpt lat="44.44689" lon="6.54683">
        <ele>2602</ele>
        <time>2020-02-23T11:58:09Z</time>
      </trkpt>
      <trkpt lat="44.44691" lon="6.54681">
        <ele>2603</ele>
        <time>2020-02-23T11:58:13Z</time>
      </trkpt>
      <trkpt lat="44.44691" lon="6.54677">
        <ele>2603</ele>
        <time>2020-02-23T11:58:18Z</time>
      </trkpt>
      <trkpt lat="44.44692" lon="6.54674">
        <ele>2604</ele>
        <time>2020-02-23T11:58:25Z</time>
      </trkpt>
      <trkpt lat="44.44694" lon="6.54671">
        <ele>2605</ele>
        <time>2020-02-23T11:58:29Z</time>
      </trkpt>
      <trkpt lat="44.44696" lon="6.54668">
        <ele>2605</ele>
        <time>2020-02-23T11:58:32Z</time>
      </trkpt>
      <trkpt lat="44.447" lon="6.54665">
        <ele>2607</ele>
        <time>2020-02-23T11:58:38Z</time>
      </trkpt>
      <trkpt lat="44.44704" lon="6.54661">
        <ele>2608</ele>
        <time>2020-02-23T11:58:43Z</time>
      </trkpt>
      <trkpt lat="44.44706" lon="6.54658">
        <ele>2608</ele>
        <time>2020-02-23T11:58:47Z</time>
      </trkpt>
      <trkpt lat="44.44708" lon="6.54656">
        <ele>2608</ele>
        <time>2020-02-23T11:58:51Z</time>
      </trkpt>
      <trkpt lat="44.4471" lon="6.54653">
        <ele>2609</ele>
        <time>2020-02-23T11:58:56Z</time>
      </trkpt>
      <trkpt lat="44.44711" lon="6.5465">
        <ele>2609</ele>
        <time>2020-02-23T11:58:59Z</time>
      </trkpt>
      <trkpt lat="44.44713" lon="6.54648">
        <ele>2610</ele>
        <time>2020-02-23T11:59:04Z</time>
      </trkpt>
      <trkpt lat="44.44721" lon="6.54638">
        <ele>2611</ele>
        <time>2020-02-23T11:59:18Z</time>
      </trkpt>
      <trkpt lat="44.44724" lon="6.54636">
        <ele>2612</ele>
        <time>2020-02-23T11:59:21Z</time>
      </trkpt>
      <trkpt lat="44.44726" lon="6.54633">
        <ele>2616</ele>
        <time>2020-02-23T11:59:25Z</time>
      </trkpt>
      <trkpt lat="44.44727" lon="6.54629">
        <ele>2617</ele>
        <time>2020-02-23T11:59:28Z</time>
      </trkpt>
      <trkpt lat="44.44731" lon="6.54628">
        <ele>2617</ele>
        <time>2020-02-23T11:59:30Z</time>
      </trkpt>
      <trkpt lat="44.44731" lon="6.54623">
        <ele>2615</ele>
        <time>2020-02-23T11:59:34Z</time>
      </trkpt>
      <trkpt lat="44.4473" lon="6.5462">
        <ele>2614</ele>
        <time>2020-02-23T11:59:37Z</time>
      </trkpt>
      <trkpt lat="44.4473" lon="6.54616">
        <ele>2614</ele>
        <time>2020-02-23T11:59:40Z</time>
      </trkpt>
      <trkpt lat="44.44731" lon="6.54609">
        <ele>2614</ele>
        <time>2020-02-23T11:59:47Z</time>
      </trkpt>
      <trkpt lat="44.44731" lon="6.54602">
        <ele>2615</ele>
        <time>2020-02-23T11:59:53Z</time>
      </trkpt>
      <trkpt lat="44.44732" lon="6.54597">
        <ele>2617</ele>
        <time>2020-02-23T11:59:58Z</time>
      </trkpt>
      <trkpt lat="44.44737" lon="6.54592">
        <ele>2618</ele>
        <time>2020-02-23T12:00:03Z</time>
      </trkpt>
      <trkpt lat="44.44738" lon="6.54589">
        <ele>2620</ele>
        <time>2020-02-23T12:00:06Z</time>
      </trkpt>
      <trkpt lat="44.44738" lon="6.54585">
        <ele>2621</ele>
        <time>2020-02-23T12:00:10Z</time>
      </trkpt>
      <trkpt lat="44.44737" lon="6.54582">
        <ele>2622</ele>
        <time>2020-02-23T12:00:14Z</time>
      </trkpt>
      <trkpt lat="44.44738" lon="6.54578">
        <ele>2623</ele>
        <time>2020-02-23T12:00:18Z</time>
      </trkpt>
      <trkpt lat="44.44739" lon="6.54576">
        <ele>2623</ele>
        <time>2020-02-23T12:00:20Z</time>
      </trkpt>
      <trkpt lat="44.4474" lon="6.54573">
        <ele>2624</ele>
        <time>2020-02-23T12:00:24Z</time>
      </trkpt>
      <trkpt lat="44.44745" lon="6.54563">
        <ele>2627</ele>
        <time>2020-02-23T12:00:34Z</time>
      </trkpt>
      <trkpt lat="44.44744" lon="6.54557">
        <ele>2629</ele>
        <time>2020-02-23T12:00:36Z</time>
      </trkpt>
      <trkpt lat="44.44747" lon="6.54559">
        <ele>2630</ele>
        <time>2020-02-23T12:00:40Z</time>
      </trkpt>
      <trkpt lat="44.44748" lon="6.54557">
        <ele>2628</ele>
        <time>2020-02-23T12:00:43Z</time>
      </trkpt>
      <trkpt lat="44.44749" lon="6.54554">
        <ele>2627</ele>
        <time>2020-02-23T12:00:46Z</time>
      </trkpt>
      <trkpt lat="44.44753" lon="6.5455">
        <ele>2626</ele>
        <time>2020-02-23T12:00:51Z</time>
      </trkpt>
      <trkpt lat="44.44752" lon="6.54547">
        <ele>2627</ele>
        <time>2020-02-23T12:00:53Z</time>
      </trkpt>
      <trkpt lat="44.44763" lon="6.54527">
        <ele>2628</ele>
        <time>2020-02-23T12:01:15Z</time>
      </trkpt>
      <trkpt lat="44.44765" lon="6.54519">
        <ele>2627</ele>
        <time>2020-02-23T12:01:23Z</time>
      </trkpt>
      <trkpt lat="44.44765" lon="6.54515">
        <ele>2627</ele>
        <time>2020-02-23T12:01:26Z</time>
      </trkpt>
      <trkpt lat="44.44767" lon="6.54509">
        <ele>2627</ele>
        <time>2020-02-23T12:01:31Z</time>
      </trkpt>
      <trkpt lat="44.44767" lon="6.54501">
        <ele>2632</ele>
        <time>2020-02-23T12:01:37Z</time>
      </trkpt>
      <trkpt lat="44.44769" lon="6.54498">
        <ele>2631</ele>
        <time>2020-02-23T12:01:41Z</time>
      </trkpt>
      <trkpt lat="44.44767" lon="6.54495">
        <ele>2631</ele>
        <time>2020-02-23T12:01:43Z</time>
      </trkpt>
      <trkpt lat="44.44765" lon="6.54492">
        <ele>2631</ele>
        <time>2020-02-23T12:01:46Z</time>
      </trkpt>
      <trkpt lat="44.44766" lon="6.5449">
        <ele>2630</ele>
        <time>2020-02-23T12:01:50Z</time>
      </trkpt>
      <trkpt lat="44.44765" lon="6.54487">
        <ele>2631</ele>
        <time>2020-02-23T12:01:54Z</time>
      </trkpt>
      <trkpt lat="44.44766" lon="6.54481">
        <ele>2631</ele>
        <time>2020-02-23T12:02:01Z</time>
      </trkpt>
      <trkpt lat="44.44765" lon="6.54479">
        <ele>2631</ele>
        <time>2020-02-23T12:02:04Z</time>
      </trkpt>
      <trkpt lat="44.44767" lon="6.54473">
        <ele>2632</ele>
        <time>2020-02-23T12:02:10Z</time>
      </trkpt>
      <trkpt lat="44.44768" lon="6.5447">
        <ele>2632</ele>
        <time>2020-02-23T12:02:13Z</time>
      </trkpt>
      <trkpt lat="44.44767" lon="6.54468">
        <ele>2632</ele>
        <time>2020-02-23T12:02:17Z</time>
      </trkpt>
      <trkpt lat="44.44768" lon="6.54464">
        <ele>2633</ele>
        <time>2020-02-23T12:02:25Z</time>
      </trkpt>
      <trkpt lat="44.44769" lon="6.54459">
        <ele>2634</ele>
        <time>2020-02-23T12:02:32Z</time>
      </trkpt>
      <trkpt lat="44.4477" lon="6.54457">
        <ele>2634</ele>
        <time>2020-02-23T12:02:34Z</time>
      </trkpt>
      <trkpt lat="44.44772" lon="6.54455">
        <ele>2636</ele>
        <time>2020-02-23T12:02:37Z</time>
      </trkpt>
      <trkpt lat="44.44773" lon="6.54445">
        <ele>2637</ele>
        <time>2020-02-23T12:02:47Z</time>
      </trkpt>
      <trkpt lat="44.44773" lon="6.54442">
        <ele>2637</ele>
        <time>2020-02-23T12:02:51Z</time>
      </trkpt>
      <trkpt lat="44.44774" lon="6.5444">
        <ele>2637</ele>
        <time>2020-02-23T12:02:53Z</time>
      </trkpt>
      <trkpt lat="44.44776" lon="6.54438">
        <ele>2637</ele>
        <time>2020-02-23T12:02:56Z</time>
      </trkpt>
      <trkpt lat="44.44777" lon="6.54433">
        <ele>2637</ele>
        <time>2020-02-23T12:03:03Z</time>
      </trkpt>
      <trkpt lat="44.44778" lon="6.54431">
        <ele>2638</ele>
        <time>2020-02-23T12:03:06Z</time>
      </trkpt>
      <trkpt lat="44.44779" lon="6.54427">
        <ele>2639</ele>
        <time>2020-02-23T12:03:11Z</time>
      </trkpt>
      <trkpt lat="44.44781" lon="6.54424">
        <ele>2639</ele>
        <time>2020-02-23T12:03:14Z</time>
      </trkpt>
      <trkpt lat="44.44783" lon="6.54422">
        <ele>2639</ele>
        <time>2020-02-23T12:03:16Z</time>
      </trkpt>
      <trkpt lat="44.44786" lon="6.54418">
        <ele>2639</ele>
        <time>2020-02-23T12:03:21Z</time>
      </trkpt>
      <trkpt lat="44.44789" lon="6.54412">
        <ele>2638</ele>
        <time>2020-02-23T12:03:28Z</time>
      </trkpt>
      <trkpt lat="44.4479" lon="6.54408">
        <ele>2637</ele>
        <time>2020-02-23T12:03:32Z</time>
      </trkpt>
      <trkpt lat="44.44792" lon="6.54407">
        <ele>2638</ele>
        <time>2020-02-23T12:03:33Z</time>
      </trkpt>
      <trkpt lat="44.44796" lon="6.54401">
        <ele>2641</ele>
        <time>2020-02-23T12:03:38Z</time>
      </trkpt>
      <trkpt lat="44.44798" lon="6.54397">
        <ele>2642</ele>
        <time>2020-02-23T12:03:40Z</time>
      </trkpt>
      <trkpt lat="44.44799" lon="6.54395">
        <ele>2641</ele>
        <time>2020-02-23T12:03:49Z</time>
      </trkpt>
      <trkpt lat="44.44804" lon="6.54382">
        <ele>2641</ele>
        <time>2020-02-23T12:03:58Z</time>
      </trkpt>
      <trkpt lat="44.44808" lon="6.54365">
        <ele>2639</ele>
        <time>2020-02-23T12:04:10Z</time>
      </trkpt>
      <trkpt lat="44.4481" lon="6.5436">
        <ele>2639</ele>
        <time>2020-02-23T12:04:14Z</time>
      </trkpt>
      <trkpt lat="44.4481" lon="6.54357">
        <ele>2639</ele>
        <time>2020-02-23T12:04:16Z</time>
      </trkpt>
      <trkpt lat="44.44811" lon="6.54351">
        <ele>2639</ele>
        <time>2020-02-23T12:04:22Z</time>
      </trkpt>
      <trkpt lat="44.44811" lon="6.54343">
        <ele>2639</ele>
        <time>2020-02-23T12:04:28Z</time>
      </trkpt>
      <trkpt lat="44.44813" lon="6.5434">
        <ele>2640</ele>
        <time>2020-02-23T12:04:33Z</time>
      </trkpt>
      <trkpt lat="44.44814" lon="6.54329">
        <ele>2643</ele>
        <time>2020-02-23T12:04:42Z</time>
      </trkpt>
      <trkpt lat="44.44817" lon="6.54324">
        <ele>2642</ele>
        <time>2020-02-23T12:04:49Z</time>
      </trkpt>
      <trkpt lat="44.44817" lon="6.5432">
        <ele>2642</ele>
        <time>2020-02-23T12:04:56Z</time>
      </trkpt>
      <trkpt lat="44.44818" lon="6.54317">
        <ele>2643</ele>
        <time>2020-02-23T12:05:02Z</time>
      </trkpt>
      <trkpt lat="44.44821" lon="6.54309">
        <ele>2644</ele>
        <time>2020-02-23T12:05:15Z</time>
      </trkpt>
      <trkpt lat="44.44821" lon="6.54305">
        <ele>2645</ele>
        <time>2020-02-23T12:05:24Z</time>
      </trkpt>
      <trkpt lat="44.44823" lon="6.54304">
        <ele>2646</ele>
        <time>2020-02-23T12:05:28Z</time>
      </trkpt>
      <trkpt lat="44.44826" lon="6.54303">
        <ele>2649</ele>
        <time>2020-02-23T12:05:34Z</time>
      </trkpt>
      <trkpt lat="44.44828" lon="6.54301">
        <ele>2650</ele>
        <time>2020-02-23T12:05:38Z</time>
      </trkpt>
      <trkpt lat="44.44827" lon="6.54299">
        <ele>2651</ele>
        <time>2020-02-23T12:05:47Z</time>
      </trkpt>
      <trkpt lat="44.44826" lon="6.543">
        <ele>2655</ele>
        <time>2020-02-23T12:06:01Z</time>
      </trkpt>
      <trkpt lat="44.44828" lon="6.54297">
        <ele>2657</ele>
        <time>2020-02-23T12:06:15Z</time>
      </trkpt>
      <trkpt lat="44.44827" lon="6.54291">
        <ele>2657</ele>
        <time>2020-02-23T12:06:28Z</time>
      </trkpt>
      <trkpt lat="44.44834" lon="6.54291">
        <ele>2658</ele>
        <time>2020-02-23T12:06:35Z</time>
      </trkpt>
      <trkpt lat="44.44836" lon="6.54289">
        <ele>2660</ele>
        <time>2020-02-23T12:06:40Z</time>
      </trkpt>
      <trkpt lat="44.44837" lon="6.54287">
        <ele>2660</ele>
        <time>2020-02-23T12:06:49Z</time>
      </trkpt>
      <trkpt lat="44.44841" lon="6.54285">
        <ele>2659</ele>
        <time>2020-02-23T12:06:58Z</time>
      </trkpt>
      <trkpt lat="44.4484" lon="6.54283">
        <ele>2659</ele>
        <time>2020-02-23T12:07:05Z</time>
      </trkpt>
      <trkpt lat="44.44844" lon="6.54278">
        <ele>2660</ele>
        <time>2020-02-23T12:07:14Z</time>
      </trkpt>
      <trkpt lat="44.44845" lon="6.54276">
        <ele>2660</ele>
        <time>2020-02-23T12:07:18Z</time>
      </trkpt>
      <trkpt lat="44.44847" lon="6.54274">
        <ele>2661</ele>
        <time>2020-02-23T12:07:28Z</time>
      </trkpt>
      <trkpt lat="44.44847" lon="6.54271">
        <ele>2661</ele>
        <time>2020-02-23T12:07:32Z</time>
      </trkpt>
      <trkpt lat="44.44849" lon="6.54269">
        <ele>2662</ele>
        <time>2020-02-23T12:07:36Z</time>
      </trkpt>
      <trkpt lat="44.44854" lon="6.54265">
        <ele>2664</ele>
        <time>2020-02-23T12:07:48Z</time>
      </trkpt>
      <trkpt lat="44.44856" lon="6.54263">
        <ele>2665</ele>
        <time>2020-02-23T12:07:52Z</time>
      </trkpt>
      <trkpt lat="44.44857" lon="6.5426">
        <ele>2666</ele>
        <time>2020-02-23T12:07:58Z</time>
      </trkpt>
      <trkpt lat="44.44859" lon="6.54258">
        <ele>2667</ele>
        <time>2020-02-23T12:08:01Z</time>
      </trkpt>
      <trkpt lat="44.44864" lon="6.54253">
        <ele>2668</ele>
        <time>2020-02-23T12:08:18Z</time>
      </trkpt>
      <trkpt lat="44.44866" lon="6.5425">
        <ele>2669</ele>
        <time>2020-02-23T12:08:21Z</time>
      </trkpt>
      <trkpt lat="44.4487" lon="6.54246">
        <ele>2671</ele>
        <time>2020-02-23T12:08:45Z</time>
      </trkpt>
      <trkpt lat="44.44871" lon="6.54243">
        <ele>2671</ele>
        <time>2020-02-23T12:08:50Z</time>
      </trkpt>
      <trkpt lat="44.44872" lon="6.5424">
        <ele>2672</ele>
        <time>2020-02-23T12:08:54Z</time>
      </trkpt>
      <trkpt lat="44.44874" lon="6.54237">
        <ele>2673</ele>
        <time>2020-02-23T12:09:01Z</time>
      </trkpt>
      <trkpt lat="44.44876" lon="6.54234">
        <ele>2674</ele>
        <time>2020-02-23T12:09:06Z</time>
      </trkpt>
      <trkpt lat="44.44878" lon="6.54233">
        <ele>2674</ele>
        <time>2020-02-23T12:09:10Z</time>
      </trkpt>
      <trkpt lat="44.44882" lon="6.54234">
        <ele>2675</ele>
        <time>2020-02-23T12:09:16Z</time>
      </trkpt>
      <trkpt lat="44.44891" lon="6.54233">
        <ele>2678</ele>
        <time>2020-02-23T12:09:30Z</time>
      </trkpt>
      <trkpt lat="44.44889" lon="6.5423">
        <ele>2681</ele>
        <time>2020-02-23T12:09:53Z</time>
      </trkpt>
      <trkpt lat="44.44891" lon="6.54226">
        <ele>2685</ele>
        <time>2020-02-23T12:10:06Z</time>
      </trkpt>
      <trkpt lat="44.44893" lon="6.54225">
        <ele>2686</ele>
        <time>2020-02-23T12:10:12Z</time>
      </trkpt>
      <trkpt lat="44.44897" lon="6.54221">
        <ele>2685</ele>
        <time>2020-02-23T12:10:25Z</time>
      </trkpt>
      <trkpt lat="44.44899" lon="6.54219">
        <ele>2685</ele>
        <time>2020-02-23T12:10:30Z</time>
      </trkpt>
      <trkpt lat="44.44905" lon="6.54216">
        <ele>2685</ele>
        <time>2020-02-23T12:10:41Z</time>
      </trkpt>
      <trkpt lat="44.44907" lon="6.54214">
        <ele>2684</ele>
        <time>2020-02-23T12:10:48Z</time>
      </trkpt>
      <trkpt lat="44.44908" lon="6.54211">
        <ele>2686</ele>
        <time>2020-02-23T12:10:57Z</time>
      </trkpt>
      <trkpt lat="44.4491" lon="6.54209">
        <ele>2687</ele>
        <time>2020-02-23T12:11:04Z</time>
      </trkpt>
      <trkpt lat="44.44912" lon="6.54207">
        <ele>2688</ele>
        <time>2020-02-23T12:11:07Z</time>
      </trkpt>
      <trkpt lat="44.44914" lon="6.54205">
        <ele>2688</ele>
        <time>2020-02-23T12:11:13Z</time>
      </trkpt>
      <trkpt lat="44.44916" lon="6.54205">
        <ele>2690</ele>
        <time>2020-02-23T12:11:19Z</time>
      </trkpt>
      <trkpt lat="44.44918" lon="6.54201">
        <ele>2692</ele>
        <time>2020-02-23T12:11:28Z</time>
      </trkpt>
      <trkpt lat="44.44926" lon="6.54196">
        <ele>2698</ele>
        <time>2020-02-23T12:11:52Z</time>
      </trkpt>
      <trkpt lat="44.44929" lon="6.54192">
        <ele>2700</ele>
        <time>2020-02-23T12:12:01Z</time>
      </trkpt>
      <trkpt lat="44.44931" lon="6.54192">
        <ele>2701</ele>
        <time>2020-02-23T12:12:07Z</time>
      </trkpt>
      <trkpt lat="44.44934" lon="6.54187">
        <ele>2703</ele>
        <time>2020-02-23T12:12:29Z</time>
      </trkpt>
      <trkpt lat="44.44937" lon="6.54185">
        <ele>2704</ele>
        <time>2020-02-23T12:12:35Z</time>
      </trkpt>
      <trkpt lat="44.44939" lon="6.54181">
        <ele>2710</ele>
        <time>2020-02-23T12:12:41Z</time>
      </trkpt>
      <trkpt lat="44.44943" lon="6.54175">
        <ele>2710</ele>
        <time>2020-02-23T12:12:53Z</time>
      </trkpt>
      <trkpt lat="44.44943" lon="6.54171">
        <ele>2710</ele>
        <time>2020-02-23T12:12:57Z</time>
      </trkpt>
      <trkpt lat="44.44945" lon="6.54168">
        <ele>2712</ele>
        <time>2020-02-23T12:13:05Z</time>
      </trkpt>
      <trkpt lat="44.44948" lon="6.54162">
        <ele>2712</ele>
        <time>2020-02-23T12:13:25Z</time>
      </trkpt>
      <trkpt lat="44.44952" lon="6.5416">
        <ele>2713</ele>
        <time>2020-02-23T12:13:35Z</time>
      </trkpt>
      <trkpt lat="44.44951" lon="6.54156">
        <ele>2717</ele>
        <time>2020-02-23T12:13:44Z</time>
      </trkpt>
      <trkpt lat="44.44954" lon="6.54155">
        <ele>2718</ele>
        <time>2020-02-23T12:13:52Z</time>
      </trkpt>
      <trkpt lat="44.44962" lon="6.54148">
        <ele>2722</ele>
        <time>2020-02-23T12:14:15Z</time>
      </trkpt>
      <trkpt lat="44.44963" lon="6.54145">
        <ele>2721</ele>
        <time>2020-02-23T12:14:20Z</time>
      </trkpt>
      <trkpt lat="44.44964" lon="6.54143">
        <ele>2722</ele>
        <time>2020-02-23T12:14:26Z</time>
      </trkpt>
      <trkpt lat="44.44967" lon="6.54141">
        <ele>2724</ele>
        <time>2020-02-23T12:14:36Z</time>
      </trkpt>
      <trkpt lat="44.44971" lon="6.5414">
        <ele>2726</ele>
        <time>2020-02-23T12:14:38Z</time>
      </trkpt>
      <trkpt lat="44.44971" lon="6.54137">
        <ele>2728</ele>
        <time>2020-02-23T12:15:03Z</time>
      </trkpt>
      <trkpt lat="44.44971" lon="6.54132">
        <ele>2728</ele>
        <time>2020-02-23T12:15:05Z</time>
      </trkpt>
      <trkpt lat="44.44973" lon="6.54134">
        <ele>2729</ele>
        <time>2020-02-23T12:15:20Z</time>
      </trkpt>
      <trkpt lat="44.44975" lon="6.54138">
        <ele>2731</ele>
        <time>2020-02-23T12:15:28Z</time>
      </trkpt>
      <trkpt lat="44.44977" lon="6.54136">
        <ele>2732</ele>
        <time>2020-02-23T12:15:34Z</time>
      </trkpt>
      <trkpt lat="44.44979" lon="6.54134">
        <ele>2731</ele>
        <time>2020-02-23T12:15:39Z</time>
      </trkpt>
      <trkpt lat="44.44981" lon="6.54134">
        <ele>2731</ele>
        <time>2020-02-23T12:15:51Z</time>
      </trkpt>
      <trkpt lat="44.44983" lon="6.54134">
        <ele>2732</ele>
        <time>2020-02-23T12:15:57Z</time>
      </trkpt>
      <trkpt lat="44.44985" lon="6.54135">
        <ele>2733</ele>
        <time>2020-02-23T12:16:05Z</time>
      </trkpt>
      <trkpt lat="44.44987" lon="6.54135">
        <ele>2737</ele>
        <time>2020-02-23T12:16:17Z</time>
      </trkpt>
      <trkpt lat="44.44987" lon="6.54135">
        <ele>2738</ele>
        <time>2020-02-23T12:16:42Z</time>
      </trkpt>
      <trkpt lat="44.44989" lon="6.54136">
        <ele>2738</ele>
        <time>2020-02-23T12:16:54Z</time>
      </trkpt>
      <trkpt lat="44.45" lon="6.54132">
        <ele>2737</ele>
        <time>2020-02-23T12:17:06Z</time>
      </trkpt>
      <trkpt lat="44.45002" lon="6.54132">
        <ele>2737</ele>
        <time>2020-02-23T12:17:11Z</time>
      </trkpt>
      <trkpt lat="44.45004" lon="6.54131">
        <ele>2738</ele>
        <time>2020-02-23T12:17:13Z</time>
      </trkpt>
      <trkpt lat="44.45009" lon="6.54128">
        <ele>2738</ele>
        <time>2020-02-23T12:17:21Z</time>
      </trkpt>
      <trkpt lat="44.45014" lon="6.54128">
        <ele>2739</ele>
        <time>2020-02-23T12:17:25Z</time>
      </trkpt>
      <trkpt lat="44.45018" lon="6.54125">
        <ele>2740</ele>
        <time>2020-02-23T12:17:30Z</time>
      </trkpt>
      <trkpt lat="44.4502" lon="6.54123">
        <ele>2740</ele>
        <time>2020-02-23T12:17:33Z</time>
      </trkpt>
      <trkpt lat="44.45022" lon="6.54121">
        <ele>2740</ele>
        <time>2020-02-23T12:17:35Z</time>
      </trkpt>
      <trkpt lat="44.45024" lon="6.54119">
        <ele>2739</ele>
        <time>2020-02-23T12:17:38Z</time>
      </trkpt>
      <trkpt lat="44.45028" lon="6.54117">
        <ele>2739</ele>
        <time>2020-02-23T12:17:46Z</time>
      </trkpt>
      <trkpt lat="44.45035" lon="6.54109">
        <ele>2742</ele>
        <time>2020-02-23T12:18:03Z</time>
      </trkpt>
      <trkpt lat="44.4504" lon="6.54105">
        <ele>2743</ele>
        <time>2020-02-23T12:18:17Z</time>
      </trkpt>
      <trkpt lat="44.45042" lon="6.54103">
        <ele>2744</ele>
        <time>2020-02-23T12:18:22Z</time>
      </trkpt>
      <trkpt lat="44.45045" lon="6.54102">
        <ele>2744</ele>
        <time>2020-02-23T12:18:27Z</time>
      </trkpt>
      <trkpt lat="44.45047" lon="6.54104">
        <ele>2744</ele>
        <time>2020-02-23T12:18:29Z</time>
      </trkpt>
      <trkpt lat="44.45048" lon="6.54104">
        <ele>2745</ele>
        <time>2020-02-23T12:18:32Z</time>
      </trkpt>
      <trkpt lat="44.45057" lon="6.541">
        <ele>2747</ele>
        <time>2020-02-23T12:18:49Z</time>
      </trkpt>
      <trkpt lat="44.45059" lon="6.541">
        <ele>2747</ele>
        <time>2020-02-23T12:18:53Z</time>
      </trkpt>
      <trkpt lat="44.45062" lon="6.54101">
        <ele>2748</ele>
        <time>2020-02-23T12:18:55Z</time>
      </trkpt>
      <trkpt lat="44.45073" lon="6.54096">
        <ele>2753</ele>
        <time>2020-02-23T12:19:16Z</time>
      </trkpt>
      <trkpt lat="44.45081" lon="6.54091">
        <ele>2756</ele>
        <time>2020-02-23T12:19:29Z</time>
      </trkpt>
      <trkpt lat="44.45085" lon="6.54085">
        <ele>2757</ele>
        <time>2020-02-23T12:19:34Z</time>
      </trkpt>
      <trkpt lat="44.45087" lon="6.54091">
        <ele>2758</ele>
        <time>2020-02-23T12:19:46Z</time>
      </trkpt>
      <trkpt lat="44.45087" lon="6.54096">
        <ele>2757</ele>
        <time>2020-02-23T12:19:51Z</time>
      </trkpt>
      <trkpt lat="44.45086" lon="6.541">
        <ele>2757</ele>
        <time>2020-02-23T12:19:53Z</time>
      </trkpt>
      <trkpt lat="44.45086" lon="6.54102">
        <ele>2757</ele>
        <time>2020-02-23T12:19:56Z</time>
      </trkpt>
      <trkpt lat="44.45088" lon="6.54103">
        <ele>2757</ele>
        <time>2020-02-23T12:20:13Z</time>
      </trkpt>
      <trkpt lat="44.45087" lon="6.54107">
        <ele>2759</ele>
        <time>2020-02-23T12:20:35Z</time>
      </trkpt>
      <trkpt lat="44.45085" lon="6.54104">
        <ele>2758</ele>
        <time>2020-02-23T12:20:43Z</time>
      </trkpt>
      <trkpt lat="44.45088" lon="6.54103">
        <ele>2758</ele>
        <time>2020-02-23T12:21:24Z</time>
      </trkpt>
      <trkpt lat="44.45088" lon="6.54106">
        <ele>2759</ele>
        <time>2020-02-23T12:23:07Z</time>
      </trkpt>
      <trkpt lat="44.45088" lon="6.54106">
        <ele>2760</ele>
        <time>2020-02-23T12:24:04Z</time>
      </trkpt>
      <trkpt lat="44.45085" lon="6.54105">
        <ele>2760</ele>
        <time>2020-02-23T12:24:33Z</time>
      </trkpt>
      <trkpt lat="44.45087" lon="6.54104">
        <ele>2760</ele>
        <time>2020-02-23T12:27:01Z</time>
      </trkpt>
      <trkpt lat="44.4509" lon="6.54104">
        <ele>2760</ele>
        <time>2020-02-23T12:27:22Z</time>
      </trkpt>
      <trkpt lat="44.45095" lon="6.541">
        <ele>2759</ele>
        <time>2020-02-23T12:27:24Z</time>
      </trkpt>
      <trkpt lat="44.45099" lon="6.54098">
        <ele>2758</ele>
        <time>2020-02-23T12:27:25Z</time>
      </trkpt>
      <trkpt lat="44.45103" lon="6.541">
        <ele>2757</ele>
        <time>2020-02-23T12:27:26Z</time>
      </trkpt>
      <trkpt lat="44.45107" lon="6.54105">
        <ele>2756</ele>
        <time>2020-02-23T12:27:27Z</time>
      </trkpt>
      <trkpt lat="44.45112" lon="6.54108">
        <ele>2755</ele>
        <time>2020-02-23T12:27:28Z</time>
      </trkpt>
      <trkpt lat="44.45117" lon="6.54106">
        <ele>2754</ele>
        <time>2020-02-23T12:27:29Z</time>
      </trkpt>
      <trkpt lat="44.4512" lon="6.5411">
        <ele>2753</ele>
        <time>2020-02-23T12:27:31Z</time>
      </trkpt>
      <trkpt lat="44.45123" lon="6.54108">
        <ele>2753</ele>
        <time>2020-02-23T12:27:34Z</time>
      </trkpt>
      <trkpt lat="44.45125" lon="6.54105">
        <ele>2753</ele>
        <time>2020-02-23T12:27:35Z</time>
      </trkpt>
      <trkpt lat="44.45128" lon="6.54109">
        <ele>2751</ele>
        <time>2020-02-23T12:27:37Z</time>
      </trkpt>
      <trkpt lat="44.45128" lon="6.54113">
        <ele>2751</ele>
        <time>2020-02-23T12:27:39Z</time>
      </trkpt>
      <trkpt lat="44.45131" lon="6.54118">
        <ele>2747</ele>
        <time>2020-02-23T12:27:45Z</time>
      </trkpt>
      <trkpt lat="44.45132" lon="6.54121">
        <ele>2745</ele>
        <time>2020-02-23T12:27:48Z</time>
      </trkpt>
      <trkpt lat="44.45128" lon="6.54124">
        <ele>2743</ele>
        <time>2020-02-23T12:28:13Z</time>
      </trkpt>
      <trkpt lat="44.45125" lon="6.54125">
        <ele>2743</ele>
        <time>2020-02-23T12:28:14Z</time>
      </trkpt>
      <trkpt lat="44.45123" lon="6.54128">
        <ele>2742</ele>
        <time>2020-02-23T12:28:15Z</time>
      </trkpt>
      <trkpt lat="44.45125" lon="6.54132">
        <ele>2741</ele>
        <time>2020-02-23T12:28:16Z</time>
      </trkpt>
      <trkpt lat="44.45133" lon="6.54136">
        <ele>2738</ele>
        <time>2020-02-23T12:28:18Z</time>
      </trkpt>
      <trkpt lat="44.45132" lon="6.54141">
        <ele>2737</ele>
        <time>2020-02-23T12:28:20Z</time>
      </trkpt>
      <trkpt lat="44.45133" lon="6.54147">
        <ele>2735</ele>
        <time>2020-02-23T12:28:21Z</time>
      </trkpt>
      <trkpt lat="44.45138" lon="6.54154">
        <ele>2730</ele>
        <time>2020-02-23T12:28:23Z</time>
      </trkpt>
      <trkpt lat="44.4514" lon="6.54164">
        <ele>2723</ele>
        <time>2020-02-23T12:28:26Z</time>
      </trkpt>
      <trkpt lat="44.45137" lon="6.5417">
        <ele>2721</ele>
        <time>2020-02-23T12:28:28Z</time>
      </trkpt>
      <trkpt lat="44.45139" lon="6.54179">
        <ele>2716</ele>
        <time>2020-02-23T12:28:30Z</time>
      </trkpt>
      <trkpt lat="44.45136" lon="6.54182">
        <ele>2714</ele>
        <time>2020-02-23T12:28:32Z</time>
      </trkpt>
      <trkpt lat="44.45135" lon="6.54187">
        <ele>2711</ele>
        <time>2020-02-23T12:28:33Z</time>
      </trkpt>
      <trkpt lat="44.45139" lon="6.5419">
        <ele>2708</ele>
        <time>2020-02-23T12:28:34Z</time>
      </trkpt>
      <trkpt lat="44.45135" lon="6.54196">
        <ele>2702</ele>
        <time>2020-02-23T12:28:36Z</time>
      </trkpt>
      <trkpt lat="44.45136" lon="6.54202">
        <ele>2700</ele>
        <time>2020-02-23T12:28:37Z</time>
      </trkpt>
      <trkpt lat="44.4514" lon="6.54206">
        <ele>2697</ele>
        <time>2020-02-23T12:28:38Z</time>
      </trkpt>
      <trkpt lat="44.45148" lon="6.54217">
        <ele>2696</ele>
        <time>2020-02-23T12:28:40Z</time>
      </trkpt>
      <trkpt lat="44.4515" lon="6.54221">
        <ele>2693</ele>
        <time>2020-02-23T12:28:50Z</time>
      </trkpt>
      <trkpt lat="44.45152" lon="6.54223">
        <ele>2691</ele>
        <time>2020-02-23T12:28:51Z</time>
      </trkpt>
      <trkpt lat="44.45152" lon="6.54227">
        <ele>2689</ele>
        <time>2020-02-23T12:28:53Z</time>
      </trkpt>
      <trkpt lat="44.4516" lon="6.54249">
        <ele>2682</ele>
        <time>2020-02-23T12:28:56Z</time>
      </trkpt>
      <trkpt lat="44.45156" lon="6.5426">
        <ele>2669</ele>
        <time>2020-02-23T12:29:04Z</time>
      </trkpt>
      <trkpt lat="44.4516" lon="6.5427">
        <ele>2664</ele>
        <time>2020-02-23T12:29:06Z</time>
      </trkpt>
      <trkpt lat="44.45164" lon="6.54274">
        <ele>2662</ele>
        <time>2020-02-23T12:29:07Z</time>
      </trkpt>
      <trkpt lat="44.4515" lon="6.54285">
        <ele>2662</ele>
        <time>2020-02-23T12:29:10Z</time>
      </trkpt>
      <trkpt lat="44.45151" lon="6.54292">
        <ele>2661</ele>
        <time>2020-02-23T12:29:11Z</time>
      </trkpt>
      <trkpt lat="44.45155" lon="6.543">
        <ele>2660</ele>
        <time>2020-02-23T12:29:12Z</time>
      </trkpt>
      <trkpt lat="44.45153" lon="6.54307">
        <ele>2661</ele>
        <time>2020-02-23T12:29:13Z</time>
      </trkpt>
      <trkpt lat="44.4515" lon="6.54302">
        <ele>2661</ele>
        <time>2020-02-23T12:29:14Z</time>
      </trkpt>
      <trkpt lat="44.45145" lon="6.54295">
        <ele>2660</ele>
        <time>2020-02-23T12:29:15Z</time>
      </trkpt>
      <trkpt lat="44.45143" lon="6.54306">
        <ele>2655</ele>
        <time>2020-02-23T12:29:17Z</time>
      </trkpt>
      <trkpt lat="44.45144" lon="6.54314">
        <ele>2653</ele>
        <time>2020-02-23T12:29:18Z</time>
      </trkpt>
      <trkpt lat="44.4514" lon="6.54319">
        <ele>2649</ele>
        <time>2020-02-23T12:29:19Z</time>
      </trkpt>
      <trkpt lat="44.45131" lon="6.54315">
        <ele>2647</ele>
        <time>2020-02-23T12:29:20Z</time>
      </trkpt>
      <trkpt lat="44.45128" lon="6.54324">
        <ele>2640</ele>
        <time>2020-02-23T12:29:22Z</time>
      </trkpt>
      <trkpt lat="44.4513" lon="6.54343">
        <ele>2636</ele>
        <time>2020-02-23T12:29:24Z</time>
      </trkpt>
      <trkpt lat="44.45117" lon="6.5434">
        <ele>2631</ele>
        <time>2020-02-23T12:29:26Z</time>
      </trkpt>
      <trkpt lat="44.45114" lon="6.54348">
        <ele>2629</ele>
        <time>2020-02-23T12:29:28Z</time>
      </trkpt>
      <trkpt lat="44.45117" lon="6.54358">
        <ele>2625</ele>
        <time>2020-02-23T12:29:29Z</time>
      </trkpt>
      <trkpt lat="44.4512" lon="6.54367">
        <ele>2623</ele>
        <time>2020-02-23T12:29:30Z</time>
      </trkpt>
      <trkpt lat="44.45111" lon="6.54369">
        <ele>2621</ele>
        <time>2020-02-23T12:29:32Z</time>
      </trkpt>
      <trkpt lat="44.45107" lon="6.54385">
        <ele>2620</ele>
        <time>2020-02-23T12:29:34Z</time>
      </trkpt>
      <trkpt lat="44.45106" lon="6.54393">
        <ele>2619</ele>
        <time>2020-02-23T12:29:35Z</time>
      </trkpt>
      <trkpt lat="44.45078" lon="6.544">
        <ele>2605</ele>
        <time>2020-02-23T12:29:45Z</time>
      </trkpt>
      <trkpt lat="44.45073" lon="6.544">
        <ele>2604</ele>
        <time>2020-02-23T12:29:46Z</time>
      </trkpt>
      <trkpt lat="44.45069" lon="6.544">
        <ele>2601</ele>
        <time>2020-02-23T12:29:47Z</time>
      </trkpt>
      <trkpt lat="44.45067" lon="6.54396">
        <ele>2598</ele>
        <time>2020-02-23T12:29:48Z</time>
      </trkpt>
      <trkpt lat="44.45059" lon="6.54395">
        <ele>2592</ele>
        <time>2020-02-23T12:29:50Z</time>
      </trkpt>
      <trkpt lat="44.45056" lon="6.54393">
        <ele>2590</ele>
        <time>2020-02-23T12:29:51Z</time>
      </trkpt>
      <trkpt lat="44.45045" lon="6.54396">
        <ele>2579</ele>
        <time>2020-02-23T12:30:05Z</time>
      </trkpt>
      <trkpt lat="44.45037" lon="6.54397">
        <ele>2575</ele>
        <time>2020-02-23T12:30:07Z</time>
      </trkpt>
      <trkpt lat="44.45033" lon="6.54401">
        <ele>2574</ele>
        <time>2020-02-23T12:30:08Z</time>
      </trkpt>
      <trkpt lat="44.45035" lon="6.5441">
        <ele>2572</ele>
        <time>2020-02-23T12:30:09Z</time>
      </trkpt>
      <trkpt lat="44.4504" lon="6.54417">
        <ele>2568</ele>
        <time>2020-02-23T12:30:10Z</time>
      </trkpt>
      <trkpt lat="44.45037" lon="6.54424">
        <ele>2566</ele>
        <time>2020-02-23T12:30:11Z</time>
      </trkpt>
      <trkpt lat="44.4503" lon="6.54432">
        <ele>2563</ele>
        <time>2020-02-23T12:30:12Z</time>
      </trkpt>
      <trkpt lat="44.45029" lon="6.54442">
        <ele>2562</ele>
        <time>2020-02-23T12:30:13Z</time>
      </trkpt>
      <trkpt lat="44.45035" lon="6.5445">
        <ele>2558</ele>
        <time>2020-02-23T12:30:14Z</time>
      </trkpt>
      <trkpt lat="44.45038" lon="6.54463">
        <ele>2555</ele>
        <time>2020-02-23T12:30:15Z</time>
      </trkpt>
      <trkpt lat="44.45026" lon="6.54471">
        <ele>2554</ele>
        <time>2020-02-23T12:30:17Z</time>
      </trkpt>
      <trkpt lat="44.45016" lon="6.54483">
        <ele>2552</ele>
        <time>2020-02-23T12:30:18Z</time>
      </trkpt>
      <trkpt lat="44.45013" lon="6.54495">
        <ele>2551</ele>
        <time>2020-02-23T12:30:19Z</time>
      </trkpt>
      <trkpt lat="44.45017" lon="6.54506">
        <ele>2550</ele>
        <time>2020-02-23T12:30:20Z</time>
      </trkpt>
      <trkpt lat="44.45008" lon="6.54521">
        <ele>2547</ele>
        <time>2020-02-23T12:30:22Z</time>
      </trkpt>
      <trkpt lat="44.45009" lon="6.54531">
        <ele>2545</ele>
        <time>2020-02-23T12:30:23Z</time>
      </trkpt>
      <trkpt lat="44.45017" lon="6.54539">
        <ele>2542</ele>
        <time>2020-02-23T12:30:24Z</time>
      </trkpt>
      <trkpt lat="44.45024" lon="6.54546">
        <ele>2541</ele>
        <time>2020-02-23T12:30:25Z</time>
      </trkpt>
      <trkpt lat="44.4502" lon="6.54552">
        <ele>2539</ele>
        <time>2020-02-23T12:30:26Z</time>
      </trkpt>
      <trkpt lat="44.45012" lon="6.54559">
        <ele>2536</ele>
        <time>2020-02-23T12:30:27Z</time>
      </trkpt>
      <trkpt lat="44.45007" lon="6.54566">
        <ele>2533</ele>
        <time>2020-02-23T12:30:28Z</time>
      </trkpt>
      <trkpt lat="44.45012" lon="6.54575">
        <ele>2529</ele>
        <time>2020-02-23T12:30:29Z</time>
      </trkpt>
      <trkpt lat="44.45018" lon="6.54583">
        <ele>2526</ele>
        <time>2020-02-23T12:30:30Z</time>
      </trkpt>
      <trkpt lat="44.4502" lon="6.54593">
        <ele>2523</ele>
        <time>2020-02-23T12:30:31Z</time>
      </trkpt>
      <trkpt lat="44.4501" lon="6.54603">
        <ele>2522</ele>
        <time>2020-02-23T12:30:32Z</time>
      </trkpt>
      <trkpt lat="44.45002" lon="6.54612">
        <ele>2520</ele>
        <time>2020-02-23T12:30:33Z</time>
      </trkpt>
      <trkpt lat="44.45007" lon="6.54619">
        <ele>2517</ele>
        <time>2020-02-23T12:30:34Z</time>
      </trkpt>
      <trkpt lat="44.45016" lon="6.54627">
        <ele>2513</ele>
        <time>2020-02-23T12:30:35Z</time>
      </trkpt>
      <trkpt lat="44.45021" lon="6.54638">
        <ele>2510</ele>
        <time>2020-02-23T12:30:36Z</time>
      </trkpt>
      <trkpt lat="44.45016" lon="6.54649">
        <ele>2509</ele>
        <time>2020-02-23T12:30:37Z</time>
      </trkpt>
      <trkpt lat="44.45005" lon="6.54663">
        <ele>2507</ele>
        <time>2020-02-23T12:30:38Z</time>
      </trkpt>
      <trkpt lat="44.45007" lon="6.54671">
        <ele>2505</ele>
        <time>2020-02-23T12:30:39Z</time>
      </trkpt>
      <trkpt lat="44.4502" lon="6.54691">
        <ele>2498</ele>
        <time>2020-02-23T12:30:41Z</time>
      </trkpt>
      <trkpt lat="44.45018" lon="6.54703">
        <ele>2497</ele>
        <time>2020-02-23T12:30:42Z</time>
      </trkpt>
      <trkpt lat="44.45009" lon="6.54711">
        <ele>2495</ele>
        <time>2020-02-23T12:30:43Z</time>
      </trkpt>
      <trkpt lat="44.45001" lon="6.54722">
        <ele>2491</ele>
        <time>2020-02-23T12:30:44Z</time>
      </trkpt>
      <trkpt lat="44.45005" lon="6.54728">
        <ele>2487</ele>
        <time>2020-02-23T12:30:45Z</time>
      </trkpt>
      <trkpt lat="44.45012" lon="6.54734">
        <ele>2478</ele>
        <time>2020-02-23T12:30:46Z</time>
      </trkpt>
      <trkpt lat="44.45027" lon="6.54746">
        <ele>2468</ele>
        <time>2020-02-23T12:30:48Z</time>
      </trkpt>
      <trkpt lat="44.45024" lon="6.54757">
        <ele>2466</ele>
        <time>2020-02-23T12:30:49Z</time>
      </trkpt>
      <trkpt lat="44.45015" lon="6.54765">
        <ele>2464</ele>
        <time>2020-02-23T12:30:50Z</time>
      </trkpt>
      <trkpt lat="44.45013" lon="6.54775">
        <ele>2462</ele>
        <time>2020-02-23T12:30:51Z</time>
      </trkpt>
      <trkpt lat="44.45019" lon="6.54776">
        <ele>2457</ele>
        <time>2020-02-23T12:30:52Z</time>
      </trkpt>
      <trkpt lat="44.45025" lon="6.5478">
        <ele>2455</ele>
        <time>2020-02-23T12:30:53Z</time>
      </trkpt>
      <trkpt lat="44.45024" lon="6.54786">
        <ele>2447</ele>
        <time>2020-02-23T12:30:58Z</time>
      </trkpt>
      <trkpt lat="44.45021" lon="6.54785">
        <ele>2441</ele>
        <time>2020-02-23T12:34:50Z</time>
      </trkpt>
      <trkpt lat="44.44991" lon="6.54781">
        <ele>2445</ele>
        <time>2020-02-23T12:35:06Z</time>
      </trkpt>
      <trkpt lat="44.44976" lon="6.54779">
        <ele>2450</ele>
        <time>2020-02-23T12:35:08Z</time>
      </trkpt>
      <trkpt lat="44.44976" lon="6.54761">
        <ele>2453</ele>
        <time>2020-02-23T12:35:11Z</time>
      </trkpt>
      <trkpt lat="44.44992" lon="6.54757">
        <ele>2457</ele>
        <time>2020-02-23T12:35:22Z</time>
      </trkpt>
      <trkpt lat="44.44996" lon="6.54763">
        <ele>2456</ele>
        <time>2020-02-23T12:35:46Z</time>
      </trkpt>
      <trkpt lat="44.45" lon="6.54765">
        <ele>2457</ele>
        <time>2020-02-23T12:35:48Z</time>
      </trkpt>
      <trkpt lat="44.44986" lon="6.54784">
        <ele>2458</ele>
        <time>2020-02-23T12:37:21Z</time>
      </trkpt>
      <trkpt lat="44.44976" lon="6.54802">
        <ele>2463</ele>
        <time>2020-02-23T12:37:25Z</time>
      </trkpt>
      <trkpt lat="44.4498" lon="6.54827">
        <ele>2466</ele>
        <time>2020-02-23T12:37:27Z</time>
      </trkpt>
      <trkpt lat="44.4498" lon="6.54876">
        <ele>2470</ele>
        <time>2020-02-23T12:37:31Z</time>
      </trkpt>
      <trkpt lat="44.44994" lon="6.5489">
        <ele>2472</ele>
        <time>2020-02-23T12:37:33Z</time>
      </trkpt>
      <trkpt lat="44.44993" lon="6.54859">
        <ele>2473</ele>
        <time>2020-02-23T12:37:34Z</time>
      </trkpt>
      <trkpt lat="44.44986" lon="6.54843">
        <ele>2477</ele>
        <time>2020-02-23T12:37:40Z</time>
      </trkpt>
      <trkpt lat="44.45" lon="6.54834">
        <ele>2478</ele>
        <time>2020-02-23T12:37:42Z</time>
      </trkpt>
      <trkpt lat="44.44997" lon="6.54821">
        <ele>2483</ele>
        <time>2020-02-23T12:38:19Z</time>
      </trkpt>
      <trkpt lat="44.44998" lon="6.54811">
        <ele>2475</ele>
        <time>2020-02-23T12:38:33Z</time>
      </trkpt>
      <trkpt lat="44.4502" lon="6.54764">
        <ele>2488</ele>
        <time>2020-02-23T12:38:36Z</time>
      </trkpt>
      <trkpt lat="44.45017" lon="6.54796">
        <ele>2492</ele>
        <time>2020-02-23T12:38:37Z</time>
      </trkpt>
      <trkpt lat="44.45025" lon="6.54789">
        <ele>2448</ele>
        <time>2020-02-23T12:38:48Z</time>
      </trkpt>
      <trkpt lat="44.45017" lon="6.54831">
        <ele>2431</ele>
        <time>2020-02-23T12:38:53Z</time>
      </trkpt>
      <trkpt lat="44.45003" lon="6.54866">
        <ele>2436</ele>
        <time>2020-02-23T12:38:55Z</time>
      </trkpt>
      <trkpt lat="44.45" lon="6.54907">
        <ele>2461</ele>
        <time>2020-02-23T12:38:58Z</time>
      </trkpt>
      <trkpt lat="44.44983" lon="6.54904">
        <ele>2495</ele>
        <time>2020-02-23T12:39:04Z</time>
      </trkpt>
      <trkpt lat="44.44979" lon="6.54873">
        <ele>2527</ele>
        <time>2020-02-23T12:39:09Z</time>
      </trkpt>
      <trkpt lat="44.44981" lon="6.54853">
        <ele>2524</ele>
        <time>2020-02-23T12:39:12Z</time>
      </trkpt>
      <trkpt lat="44.44992" lon="6.54837">
        <ele>2523</ele>
        <time>2020-02-23T12:39:18Z</time>
      </trkpt>
      <trkpt lat="44.44997" lon="6.54829">
        <ele>2519</ele>
        <time>2020-02-23T12:39:21Z</time>
      </trkpt>
      <trkpt lat="44.45009" lon="6.54834">
        <ele>2508</ele>
        <time>2020-02-23T12:39:38Z</time>
      </trkpt>
      <trkpt lat="44.45053" lon="6.54878">
        <ele>2507</ele>
        <time>2020-02-23T12:39:41Z</time>
      </trkpt>
      <trkpt lat="44.45061" lon="6.54869">
        <ele>2501</ele>
        <time>2020-02-23T12:39:47Z</time>
      </trkpt>
      <trkpt lat="44.45069" lon="6.54849">
        <ele>2497</ele>
        <time>2020-02-23T12:39:51Z</time>
      </trkpt>
      <trkpt lat="44.45076" lon="6.54831">
        <ele>2496</ele>
        <time>2020-02-23T12:39:52Z</time>
      </trkpt>
      <trkpt lat="44.45076" lon="6.54825">
        <ele>2485</ele>
        <time>2020-02-23T12:39:56Z</time>
      </trkpt>
      <trkpt lat="44.45068" lon="6.5483">
        <ele>2483</ele>
        <time>2020-02-23T12:39:57Z</time>
      </trkpt>
      <trkpt lat="44.45059" lon="6.54828">
        <ele>2481</ele>
        <time>2020-02-23T12:39:59Z</time>
      </trkpt>
      <trkpt lat="44.45044" lon="6.54824">
        <ele>2477</ele>
        <time>2020-02-23T12:40:00Z</time>
      </trkpt>
      <trkpt lat="44.45031" lon="6.54816">
        <ele>2473</ele>
        <time>2020-02-23T12:40:08Z</time>
      </trkpt>
      <trkpt lat="44.45022" lon="6.54809">
        <ele>2466</ele>
        <time>2020-02-23T12:40:32Z</time>
      </trkpt>
      <trkpt lat="44.45016" lon="6.54803">
        <ele>2460</ele>
        <time>2020-02-23T12:40:34Z</time>
      </trkpt>
      <trkpt lat="44.45003" lon="6.54882">
        <ele>2424</ele>
        <time>2020-02-23T12:40:47Z</time>
      </trkpt>
      <trkpt lat="44.45003" lon="6.54888">
        <ele>2423</ele>
        <time>2020-02-23T12:40:48Z</time>
      </trkpt>
      <trkpt lat="44.4501" lon="6.54942">
        <ele>2412</ele>
        <time>2020-02-23T12:40:57Z</time>
      </trkpt>
      <trkpt lat="44.45008" lon="6.54973">
        <ele>2409</ele>
        <time>2020-02-23T12:41:01Z</time>
      </trkpt>
      <trkpt lat="44.45005" lon="6.54979">
        <ele>2409</ele>
        <time>2020-02-23T12:41:03Z</time>
      </trkpt>
      <trkpt lat="44.45005" lon="6.55028">
        <ele>2408</ele>
        <time>2020-02-23T12:41:09Z</time>
      </trkpt>
      <trkpt lat="44.45006" lon="6.55033">
        <ele>2407</ele>
        <time>2020-02-23T12:41:15Z</time>
      </trkpt>
      <trkpt lat="44.45009" lon="6.55028">
        <ele>2408</ele>
        <time>2020-02-23T12:41:19Z</time>
      </trkpt>
      <trkpt lat="44.45007" lon="6.55024">
        <ele>2409</ele>
        <time>2020-02-23T12:41:42Z</time>
      </trkpt>
      <trkpt lat="44.45013" lon="6.55018">
        <ele>2407</ele>
        <time>2020-02-23T12:41:51Z</time>
      </trkpt>
      <trkpt lat="44.45014" lon="6.55012">
        <ele>2406</ele>
        <time>2020-02-23T12:42:07Z</time>
      </trkpt>
      <trkpt lat="44.45017" lon="6.55009">
        <ele>2404</ele>
        <time>2020-02-23T12:42:45Z</time>
      </trkpt>
      <trkpt lat="44.45014" lon="6.5501">
        <ele>2393</ele>
        <time>2020-02-23T12:43:00Z</time>
      </trkpt>
      <trkpt lat="44.45015" lon="6.55016">
        <ele>2393</ele>
        <time>2020-02-23T12:43:09Z</time>
      </trkpt>
      <trkpt lat="44.45012" lon="6.55021">
        <ele>2386</ele>
        <time>2020-02-23T12:43:18Z</time>
      </trkpt>
      <trkpt lat="44.45012" lon="6.55016">
        <ele>2385</ele>
        <time>2020-02-23T12:43:45Z</time>
      </trkpt>
      <trkpt lat="44.45013" lon="6.54999">
        <ele>2385</ele>
        <time>2020-02-23T12:43:54Z</time>
      </trkpt>
      <trkpt lat="44.45021" lon="6.54986">
        <ele>2386</ele>
        <time>2020-02-23T12:43:55Z</time>
      </trkpt>
      <trkpt lat="44.45057" lon="6.54937">
        <ele>2388</ele>
        <time>2020-02-23T12:44:00Z</time>
      </trkpt>
      <trkpt lat="44.45068" lon="6.54931">
        <ele>2387</ele>
        <time>2020-02-23T12:44:01Z</time>
      </trkpt>
      <trkpt lat="44.45072" lon="6.54915">
        <ele>2385</ele>
        <time>2020-02-23T12:44:02Z</time>
      </trkpt>
      <trkpt lat="44.45067" lon="6.54895">
        <ele>2383</ele>
        <time>2020-02-23T12:44:04Z</time>
      </trkpt>
      <trkpt lat="44.45079" lon="6.54861">
        <ele>2384</ele>
        <time>2020-02-23T12:44:06Z</time>
      </trkpt>
      <trkpt lat="44.45072" lon="6.54866">
        <ele>2383</ele>
        <time>2020-02-23T12:44:07Z</time>
      </trkpt>
      <trkpt lat="44.45068" lon="6.5489">
        <ele>2381</ele>
        <time>2020-02-23T12:44:12Z</time>
      </trkpt>
      <trkpt lat="44.45066" lon="6.54903">
        <ele>2380</ele>
        <time>2020-02-23T12:44:13Z</time>
      </trkpt>
      <trkpt lat="44.4506" lon="6.54927">
        <ele>2376</ele>
        <time>2020-02-23T12:44:15Z</time>
      </trkpt>
      <trkpt lat="44.45057" lon="6.54936">
        <ele>2374</ele>
        <time>2020-02-23T12:44:18Z</time>
      </trkpt>
      <trkpt lat="44.45054" lon="6.54943">
        <ele>2372</ele>
        <time>2020-02-23T12:44:19Z</time>
      </trkpt>
      <trkpt lat="44.45042" lon="6.54961">
        <ele>2366</ele>
        <time>2020-02-23T12:44:25Z</time>
      </trkpt>
      <trkpt lat="44.4504" lon="6.54968">
        <ele>2363</ele>
        <time>2020-02-23T12:44:28Z</time>
      </trkpt>
      <trkpt lat="44.45027" lon="6.55006">
        <ele>2361</ele>
        <time>2020-02-23T12:44:55Z</time>
      </trkpt>
      <trkpt lat="44.45022" lon="6.55009">
        <ele>2361</ele>
        <time>2020-02-23T12:44:59Z</time>
      </trkpt>
      <trkpt lat="44.45019" lon="6.55007">
        <ele>2360</ele>
        <time>2020-02-23T12:45:08Z</time>
      </trkpt>
      <trkpt lat="44.4502" lon="6.55003">
        <ele>2361</ele>
        <time>2020-02-23T12:45:19Z</time>
      </trkpt>
      <trkpt lat="44.4502" lon="6.55007">
        <ele>2367</ele>
        <time>2020-02-23T12:45:52Z</time>
      </trkpt>
      <trkpt lat="44.45018" lon="6.55014">
        <ele>2367</ele>
        <time>2020-02-23T12:45:54Z</time>
      </trkpt>
      <trkpt lat="44.45014" lon="6.55016">
        <ele>2369</ele>
        <time>2020-02-23T12:45:58Z</time>
      </trkpt>
      <trkpt lat="44.45015" lon="6.5501">
        <ele>2373</ele>
        <time>2020-02-23T12:46:58Z</time>
      </trkpt>
      <trkpt lat="44.45019" lon="6.55014">
        <ele>2373</ele>
        <time>2020-02-23T12:47:02Z</time>
      </trkpt>
      <trkpt lat="44.45019" lon="6.55019">
        <ele>2374</ele>
        <time>2020-02-23T12:47:59Z</time>
      </trkpt>
      <trkpt lat="44.45017" lon="6.55014">
        <ele>2374</ele>
        <time>2020-02-23T12:48:06Z</time>
      </trkpt>
      <trkpt lat="44.45015" lon="6.55022">
        <ele>2374</ele>
        <time>2020-02-23T12:48:12Z</time>
      </trkpt>
      <trkpt lat="44.45002" lon="6.5504">
        <ele>2376</ele>
        <time>2020-02-23T12:48:13Z</time>
      </trkpt>
      <trkpt lat="44.44995" lon="6.55071">
        <ele>2378</ele>
        <time>2020-02-23T12:48:16Z</time>
      </trkpt>
      <trkpt lat="44.45" lon="6.55063">
        <ele>2378</ele>
        <time>2020-02-23T12:48:17Z</time>
      </trkpt>
      <trkpt lat="44.44992" lon="6.55048">
        <ele>2378</ele>
        <time>2020-02-23T12:48:19Z</time>
      </trkpt>
      <trkpt lat="44.45001" lon="6.5504">
        <ele>2379</ele>
        <time>2020-02-23T12:48:20Z</time>
      </trkpt>
      <trkpt lat="44.45007" lon="6.5503">
        <ele>2381</ele>
        <time>2020-02-23T12:48:23Z</time>
      </trkpt>
      <trkpt lat="44.45008" lon="6.55027">
        <ele>2381</ele>
        <time>2020-02-23T12:48:29Z</time>
      </trkpt>
      <trkpt lat="44.45011" lon="6.55023">
        <ele>2383</ele>
        <time>2020-02-23T12:48:37Z</time>
      </trkpt>
      <trkpt lat="44.45013" lon="6.55016">
        <ele>2386</ele>
        <time>2020-02-23T12:48:48Z</time>
      </trkpt>
      <trkpt lat="44.45011" lon="6.55009">
        <ele>2382</ele>
        <time>2020-02-23T12:49:32Z</time>
      </trkpt>
      <trkpt lat="44.45017" lon="6.55015">
        <ele>2384</ele>
        <time>2020-02-23T12:49:40Z</time>
      </trkpt>
      <trkpt lat="44.45013" lon="6.55021">
        <ele>2384</ele>
        <time>2020-02-23T12:49:49Z</time>
      </trkpt>
      <trkpt lat="44.45012" lon="6.55034">
        <ele>2384</ele>
        <time>2020-02-23T12:50:04Z</time>
      </trkpt>
      <trkpt lat="44.45012" lon="6.55039">
        <ele>2384</ele>
        <time>2020-02-23T12:50:14Z</time>
      </trkpt>
      <trkpt lat="44.4501" lon="6.55046">
        <ele>2384</ele>
        <time>2020-02-23T12:50:18Z</time>
      </trkpt>
      <trkpt lat="44.4501" lon="6.55052">
        <ele>2383</ele>
        <time>2020-02-23T12:50:22Z</time>
      </trkpt>
      <trkpt lat="44.45011" lon="6.55057">
        <ele>2385</ele>
        <time>2020-02-23T12:50:39Z</time>
      </trkpt>
      <trkpt lat="44.45012" lon="6.55063">
        <ele>2387</ele>
        <time>2020-02-23T12:50:50Z</time>
      </trkpt>
      <trkpt lat="44.45013" lon="6.55064">
        <ele>2386</ele>
        <time>2020-02-23T12:51:33Z</time>
      </trkpt>
      <trkpt lat="44.45014" lon="6.55057">
        <ele>2386</ele>
        <time>2020-02-23T12:51:39Z</time>
      </trkpt>
      <trkpt lat="44.45011" lon="6.55055">
        <ele>2387</ele>
        <time>2020-02-23T12:52:01Z</time>
      </trkpt>
      <trkpt lat="44.45008" lon="6.55061">
        <ele>2387</ele>
        <time>2020-02-23T12:52:06Z</time>
      </trkpt>
      <trkpt lat="44.45004" lon="6.55064">
        <ele>2387</ele>
        <time>2020-02-23T12:52:09Z</time>
      </trkpt>
      <trkpt lat="44.44987" lon="6.55071">
        <ele>2401</ele>
        <time>2020-02-23T12:52:56Z</time>
      </trkpt>
      <trkpt lat="44.44985" lon="6.55075">
        <ele>2404</ele>
        <time>2020-02-23T12:53:01Z</time>
      </trkpt>
      <trkpt lat="44.44983" lon="6.55072">
        <ele>2406</ele>
        <time>2020-02-23T12:53:07Z</time>
      </trkpt>
      <trkpt lat="44.44977" lon="6.55074">
        <ele>2411</ele>
        <time>2020-02-23T12:53:19Z</time>
      </trkpt>
      <trkpt lat="44.44973" lon="6.55075">
        <ele>2418</ele>
        <time>2020-02-23T12:53:31Z</time>
      </trkpt>
      <trkpt lat="44.44966" lon="6.55074">
        <ele>2420</ele>
        <time>2020-02-23T12:53:40Z</time>
      </trkpt>
      <trkpt lat="44.44965" lon="6.55067">
        <ele>2425</ele>
        <time>2020-02-23T12:53:49Z</time>
      </trkpt>
      <trkpt lat="44.44944" lon="6.55064">
        <ele>2425</ele>
        <time>2020-02-23T12:54:39Z</time>
      </trkpt>
      <trkpt lat="44.44942" lon="6.55049">
        <ele>2423</ele>
        <time>2020-02-23T12:54:49Z</time>
      </trkpt>
      <trkpt lat="44.44937" lon="6.55041">
        <ele>2421</ele>
        <time>2020-02-23T12:54:54Z</time>
      </trkpt>
      <trkpt lat="44.44931" lon="6.55035">
        <ele>2421</ele>
        <time>2020-02-23T12:55:03Z</time>
      </trkpt>
      <trkpt lat="44.44928" lon="6.55027">
        <ele>2426</ele>
        <time>2020-02-23T12:55:16Z</time>
      </trkpt>
      <trkpt lat="44.4492" lon="6.55036">
        <ele>2425</ele>
        <time>2020-02-23T12:55:19Z</time>
      </trkpt>
      <trkpt lat="44.44918" lon="6.55029">
        <ele>2424</ele>
        <time>2020-02-23T12:55:27Z</time>
      </trkpt>
      <trkpt lat="44.44913" lon="6.55025">
        <ele>2425</ele>
        <time>2020-02-23T12:55:32Z</time>
      </trkpt>
      <trkpt lat="44.44908" lon="6.55026">
        <ele>2427</ele>
        <time>2020-02-23T12:55:40Z</time>
      </trkpt>
      <trkpt lat="44.44903" lon="6.55025">
        <ele>2429</ele>
        <time>2020-02-23T12:55:46Z</time>
      </trkpt>
      <trkpt lat="44.44894" lon="6.55028">
        <ele>2434</ele>
        <time>2020-02-23T12:56:12Z</time>
      </trkpt>
      <trkpt lat="44.44889" lon="6.55027">
        <ele>2435</ele>
        <time>2020-02-23T12:56:21Z</time>
      </trkpt>
      <trkpt lat="44.44884" lon="6.55027">
        <ele>2435</ele>
        <time>2020-02-23T12:56:39Z</time>
      </trkpt>
      <trkpt lat="44.4488" lon="6.55026">
        <ele>2437</ele>
        <time>2020-02-23T12:56:49Z</time>
      </trkpt>
      <trkpt lat="44.44875" lon="6.55023">
        <ele>2438</ele>
        <time>2020-02-23T12:57:01Z</time>
      </trkpt>
      <trkpt lat="44.44872" lon="6.55017">
        <ele>2437</ele>
        <time>2020-02-23T12:57:04Z</time>
      </trkpt>
      <trkpt lat="44.44869" lon="6.55015">
        <ele>2437</ele>
        <time>2020-02-23T12:57:20Z</time>
      </trkpt>
      <trkpt lat="44.44862" lon="6.55016">
        <ele>2437</ele>
        <time>2020-02-23T12:57:24Z</time>
      </trkpt>
      <trkpt lat="44.44858" lon="6.55013">
        <ele>2439</ele>
        <time>2020-02-23T12:57:28Z</time>
      </trkpt>
      <trkpt lat="44.44848" lon="6.55014">
        <ele>2443</ele>
        <time>2020-02-23T12:57:44Z</time>
      </trkpt>
      <trkpt lat="44.44845" lon="6.55009">
        <ele>2445</ele>
        <time>2020-02-23T12:57:59Z</time>
      </trkpt>
      <trkpt lat="44.44841" lon="6.55007">
        <ele>2448</ele>
        <time>2020-02-23T12:58:03Z</time>
      </trkpt>
      <trkpt lat="44.44837" lon="6.55007">
        <ele>2451</ele>
        <time>2020-02-23T12:58:13Z</time>
      </trkpt>
      <trkpt lat="44.44834" lon="6.55006">
        <ele>2455</ele>
        <time>2020-02-23T12:58:20Z</time>
      </trkpt>
      <trkpt lat="44.4483" lon="6.55002">
        <ele>2455</ele>
        <time>2020-02-23T12:58:39Z</time>
      </trkpt>
      <trkpt lat="44.44826" lon="6.55001">
        <ele>2458</ele>
        <time>2020-02-23T12:58:46Z</time>
      </trkpt>
      <trkpt lat="44.44822" lon="6.54998">
        <ele>2460</ele>
        <time>2020-02-23T12:58:58Z</time>
      </trkpt>
      <trkpt lat="44.44817" lon="6.55002">
        <ele>2462</ele>
        <time>2020-02-23T12:59:03Z</time>
      </trkpt>
      <trkpt lat="44.44814" lon="6.54997">
        <ele>2465</ele>
        <time>2020-02-23T12:59:15Z</time>
      </trkpt>
      <trkpt lat="44.44811" lon="6.54989">
        <ele>2466</ele>
        <time>2020-02-23T12:59:20Z</time>
      </trkpt>
      <trkpt lat="44.44807" lon="6.54988">
        <ele>2470</ele>
        <time>2020-02-23T12:59:26Z</time>
      </trkpt>
      <trkpt lat="44.44802" lon="6.54992">
        <ele>2469</ele>
        <time>2020-02-23T12:59:37Z</time>
      </trkpt>
      <trkpt lat="44.44798" lon="6.5499">
        <ele>2469</ele>
        <time>2020-02-23T12:59:43Z</time>
      </trkpt>
      <trkpt lat="44.44795" lon="6.54987">
        <ele>2470</ele>
        <time>2020-02-23T12:59:49Z</time>
      </trkpt>
      <trkpt lat="44.44793" lon="6.54982">
        <ele>2471</ele>
        <time>2020-02-23T13:00:01Z</time>
      </trkpt>
      <trkpt lat="44.4479" lon="6.54979">
        <ele>2474</ele>
        <time>2020-02-23T13:00:11Z</time>
      </trkpt>
      <trkpt lat="44.44788" lon="6.54976">
        <ele>2474</ele>
        <time>2020-02-23T13:00:18Z</time>
      </trkpt>
      <trkpt lat="44.44785" lon="6.54973">
        <ele>2476</ele>
        <time>2020-02-23T13:00:22Z</time>
      </trkpt>
      <trkpt lat="44.4478" lon="6.54975">
        <ele>2477</ele>
        <time>2020-02-23T13:00:28Z</time>
      </trkpt>
      <trkpt lat="44.44779" lon="6.5497">
        <ele>2482</ele>
        <time>2020-02-23T13:00:41Z</time>
      </trkpt>
      <trkpt lat="44.44776" lon="6.54976">
        <ele>2482</ele>
        <time>2020-02-23T13:00:53Z</time>
      </trkpt>
      <trkpt lat="44.44774" lon="6.54979">
        <ele>2482</ele>
        <time>2020-02-23T13:01:02Z</time>
      </trkpt>
      <trkpt lat="44.44774" lon="6.54986">
        <ele>2482</ele>
        <time>2020-02-23T13:01:11Z</time>
      </trkpt>
      <trkpt lat="44.44771" lon="6.54986">
        <ele>2484</ele>
        <time>2020-02-23T13:01:37Z</time>
      </trkpt>
      <trkpt lat="44.44766" lon="6.54988">
        <ele>2484</ele>
        <time>2020-02-23T13:01:42Z</time>
      </trkpt>
      <trkpt lat="44.44762" lon="6.54986">
        <ele>2488</ele>
        <time>2020-02-23T13:01:54Z</time>
      </trkpt>
      <trkpt lat="44.44762" lon="6.54981">
        <ele>2490</ele>
        <time>2020-02-23T13:02:01Z</time>
      </trkpt>
      <trkpt lat="44.44759" lon="6.54983">
        <ele>2491</ele>
        <time>2020-02-23T13:02:06Z</time>
      </trkpt>
      <trkpt lat="44.44755" lon="6.54987">
        <ele>2495</ele>
        <time>2020-02-23T13:02:18Z</time>
      </trkpt>
      <trkpt lat="44.44752" lon="6.55">
        <ele>2496</ele>
        <time>2020-02-23T13:02:29Z</time>
      </trkpt>
      <trkpt lat="44.44755" lon="6.55004">
        <ele>2496</ele>
        <time>2020-02-23T13:02:36Z</time>
      </trkpt>
      <trkpt lat="44.44756" lon="6.55012">
        <ele>2496</ele>
        <time>2020-02-23T13:02:47Z</time>
      </trkpt>
      <trkpt lat="44.44756" lon="6.55017">
        <ele>2498</ele>
        <time>2020-02-23T13:02:58Z</time>
      </trkpt>
      <trkpt lat="44.44756" lon="6.55023">
        <ele>2499</ele>
        <time>2020-02-23T13:03:07Z</time>
      </trkpt>
      <trkpt lat="44.44754" lon="6.55027">
        <ele>2502</ele>
        <time>2020-02-23T13:03:15Z</time>
      </trkpt>
      <trkpt lat="44.44751" lon="6.55026">
        <ele>2503</ele>
        <time>2020-02-23T13:03:20Z</time>
      </trkpt>
      <trkpt lat="44.44747" lon="6.55023">
        <ele>2505</ele>
        <time>2020-02-23T13:03:31Z</time>
      </trkpt>
      <trkpt lat="44.44741" lon="6.55027">
        <ele>2505</ele>
        <time>2020-02-23T13:03:35Z</time>
      </trkpt>
      <trkpt lat="44.4474" lon="6.55018">
        <ele>2505</ele>
        <time>2020-02-23T13:03:38Z</time>
      </trkpt>
      <trkpt lat="44.44734" lon="6.55016">
        <ele>2506</ele>
        <time>2020-02-23T13:03:44Z</time>
      </trkpt>
      <trkpt lat="44.44733" lon="6.5501">
        <ele>2507</ele>
        <time>2020-02-23T13:03:51Z</time>
      </trkpt>
      <trkpt lat="44.4473" lon="6.55012">
        <ele>2511</ele>
        <time>2020-02-23T13:04:17Z</time>
      </trkpt>
      <trkpt lat="44.44729" lon="6.55017">
        <ele>2511</ele>
        <time>2020-02-23T13:04:25Z</time>
      </trkpt>
      <trkpt lat="44.44725" lon="6.5502">
        <ele>2513</ele>
        <time>2020-02-23T13:04:30Z</time>
      </trkpt>
      <trkpt lat="44.44724" lon="6.55024">
        <ele>2514</ele>
        <time>2020-02-23T13:04:35Z</time>
      </trkpt>
      <trkpt lat="44.44724" lon="6.55029">
        <ele>2516</ele>
        <time>2020-02-23T13:04:40Z</time>
      </trkpt>
      <trkpt lat="44.44723" lon="6.55035">
        <ele>2517</ele>
        <time>2020-02-23T13:04:47Z</time>
      </trkpt>
      <trkpt lat="44.4472" lon="6.55034">
        <ele>2519</ele>
        <time>2020-02-23T13:04:53Z</time>
      </trkpt>
      <trkpt lat="44.44717" lon="6.55033">
        <ele>2519</ele>
        <time>2020-02-23T13:04:56Z</time>
      </trkpt>
      <trkpt lat="44.44714" lon="6.5503">
        <ele>2521</ele>
        <time>2020-02-23T13:05:02Z</time>
      </trkpt>
      <trkpt lat="44.44712" lon="6.55025">
        <ele>2522</ele>
        <time>2020-02-23T13:05:08Z</time>
      </trkpt>
      <trkpt lat="44.44711" lon="6.55011">
        <ele>2525</ele>
        <time>2020-02-23T13:05:19Z</time>
      </trkpt>
      <trkpt lat="44.44713" lon="6.55007">
        <ele>2526</ele>
        <time>2020-02-23T13:05:23Z</time>
      </trkpt>
      <trkpt lat="44.44707" lon="6.54997">
        <ele>2525</ele>
        <time>2020-02-23T13:05:30Z</time>
      </trkpt>
      <trkpt lat="44.44707" lon="6.54989">
        <ele>2525</ele>
        <time>2020-02-23T13:05:35Z</time>
      </trkpt>
      <trkpt lat="44.44703" lon="6.54977">
        <ele>2525</ele>
        <time>2020-02-23T13:05:48Z</time>
      </trkpt>
      <trkpt lat="44.44698" lon="6.54968">
        <ele>2526</ele>
        <time>2020-02-23T13:05:58Z</time>
      </trkpt>
      <trkpt lat="44.44698" lon="6.5496">
        <ele>2525</ele>
        <time>2020-02-23T13:06:04Z</time>
      </trkpt>
      <trkpt lat="44.447" lon="6.54958">
        <ele>2525</ele>
        <time>2020-02-23T13:06:16Z</time>
      </trkpt>
      <trkpt lat="44.44698" lon="6.54952">
        <ele>2526</ele>
        <time>2020-02-23T13:06:20Z</time>
      </trkpt>
      <trkpt lat="44.44696" lon="6.54941">
        <ele>2529</ele>
        <time>2020-02-23T13:06:28Z</time>
      </trkpt>
      <trkpt lat="44.44697" lon="6.54935">
        <ele>2529</ele>
        <time>2020-02-23T13:06:31Z</time>
      </trkpt>
      <trkpt lat="44.44697" lon="6.54929">
        <ele>2530</ele>
        <time>2020-02-23T13:06:33Z</time>
      </trkpt>
      <trkpt lat="44.44698" lon="6.54922">
        <ele>2530</ele>
        <time>2020-02-23T13:06:36Z</time>
      </trkpt>
      <trkpt lat="44.44695" lon="6.54919">
        <ele>2532</ele>
        <time>2020-02-23T13:06:44Z</time>
      </trkpt>
      <trkpt lat="44.44691" lon="6.54919">
        <ele>2533</ele>
        <time>2020-02-23T13:06:50Z</time>
      </trkpt>
      <trkpt lat="44.44688" lon="6.54916">
        <ele>2533</ele>
        <time>2020-02-23T13:06:54Z</time>
      </trkpt>
      <trkpt lat="44.44692" lon="6.54914">
        <ele>2533</ele>
        <time>2020-02-23T13:07:43Z</time>
      </trkpt>
      <trkpt lat="44.44688" lon="6.54912">
        <ele>2533</ele>
        <time>2020-02-23T13:08:47Z</time>
      </trkpt>
      <trkpt lat="44.44686" lon="6.54901">
        <ele>2533</ele>
        <time>2020-02-23T13:09:10Z</time>
      </trkpt>
      <trkpt lat="44.44683" lon="6.54898">
        <ele>2533</ele>
        <time>2020-02-23T13:09:16Z</time>
      </trkpt>
      <trkpt lat="44.44683" lon="6.54891">
        <ele>2532</ele>
        <time>2020-02-23T13:09:21Z</time>
      </trkpt>
      <trkpt lat="44.44683" lon="6.54886">
        <ele>2533</ele>
        <time>2020-02-23T13:09:29Z</time>
      </trkpt>
      <trkpt lat="44.44683" lon="6.54881">
        <ele>2535</ele>
        <time>2020-02-23T13:09:34Z</time>
      </trkpt>
      <trkpt lat="44.44685" lon="6.54877">
        <ele>2536</ele>
        <time>2020-02-23T13:09:44Z</time>
      </trkpt>
      <trkpt lat="44.44686" lon="6.54873">
        <ele>2539</ele>
        <time>2020-02-23T13:09:50Z</time>
      </trkpt>
      <trkpt lat="44.44685" lon="6.54867">
        <ele>2539</ele>
        <time>2020-02-23T13:10:06Z</time>
      </trkpt>
      <trkpt lat="44.44684" lon="6.5486">
        <ele>2538</ele>
        <time>2020-02-23T13:10:23Z</time>
      </trkpt>
      <trkpt lat="44.44678" lon="6.54853">
        <ele>2538</ele>
        <time>2020-02-23T13:10:32Z</time>
      </trkpt>
      <trkpt lat="44.44675" lon="6.54849">
        <ele>2537</ele>
        <time>2020-02-23T13:10:40Z</time>
      </trkpt>
      <trkpt lat="44.44673" lon="6.54844">
        <ele>2540</ele>
        <time>2020-02-23T13:10:56Z</time>
      </trkpt>
      <trkpt lat="44.44672" lon="6.54837">
        <ele>2546</ele>
        <time>2020-02-23T13:11:05Z</time>
      </trkpt>
      <trkpt lat="44.44672" lon="6.54829">
        <ele>2547</ele>
        <time>2020-02-23T13:11:11Z</time>
      </trkpt>
      <trkpt lat="44.4467" lon="6.54824">
        <ele>2550</ele>
        <time>2020-02-23T13:11:22Z</time>
      </trkpt>
      <trkpt lat="44.44666" lon="6.5482">
        <ele>2549</ele>
        <time>2020-02-23T13:11:31Z</time>
      </trkpt>
      <trkpt lat="44.44667" lon="6.54814">
        <ele>2550</ele>
        <time>2020-02-23T13:11:40Z</time>
      </trkpt>
      <trkpt lat="44.44663" lon="6.54809">
        <ele>2551</ele>
        <time>2020-02-23T13:11:45Z</time>
      </trkpt>
      <trkpt lat="44.44662" lon="6.54801">
        <ele>2552</ele>
        <time>2020-02-23T13:11:50Z</time>
      </trkpt>
      <trkpt lat="44.44658" lon="6.54802">
        <ele>2554</ele>
        <time>2020-02-23T13:12:05Z</time>
      </trkpt>
      <trkpt lat="44.44657" lon="6.54797">
        <ele>2559</ele>
        <time>2020-02-23T13:12:12Z</time>
      </trkpt>
      <trkpt lat="44.44658" lon="6.54793">
        <ele>2562</ele>
        <time>2020-02-23T13:12:48Z</time>
      </trkpt>
      <trkpt lat="44.44662" lon="6.54791">
        <ele>2564</ele>
        <time>2020-02-23T13:12:56Z</time>
      </trkpt>
      <trkpt lat="44.44666" lon="6.54789">
        <ele>2566</ele>
        <time>2020-02-23T13:13:05Z</time>
      </trkpt>
      <trkpt lat="44.44674" lon="6.5479">
        <ele>2569</ele>
        <time>2020-02-23T13:13:20Z</time>
      </trkpt>
      <trkpt lat="44.44684" lon="6.54778">
        <ele>2569</ele>
        <time>2020-02-23T13:13:33Z</time>
      </trkpt>
      <trkpt lat="44.44682" lon="6.5478">
        <ele>2569</ele>
        <time>2020-02-23T13:13:59Z</time>
      </trkpt>
      <trkpt lat="44.44682" lon="6.54773">
        <ele>2570</ele>
        <time>2020-02-23T13:14:15Z</time>
      </trkpt>
      <trkpt lat="44.44679" lon="6.54768">
        <ele>2576</ele>
        <time>2020-02-23T13:14:23Z</time>
      </trkpt>
      <trkpt lat="44.44677" lon="6.54758">
        <ele>2577</ele>
        <time>2020-02-23T13:14:31Z</time>
      </trkpt>
      <trkpt lat="44.44668" lon="6.54752">
        <ele>2580</ele>
        <time>2020-02-23T13:14:48Z</time>
      </trkpt>
      <trkpt lat="44.44667" lon="6.54746">
        <ele>2580</ele>
        <time>2020-02-23T13:14:54Z</time>
      </trkpt>
      <trkpt lat="44.44664" lon="6.54738">
        <ele>2580</ele>
        <time>2020-02-23T13:15:20Z</time>
      </trkpt>
      <trkpt lat="44.44669" lon="6.54736">
        <ele>2580</ele>
        <time>2020-02-23T13:15:32Z</time>
      </trkpt>
      <trkpt lat="44.44673" lon="6.54731">
        <ele>2581</ele>
        <time>2020-02-23T13:15:40Z</time>
      </trkpt>
      <trkpt lat="44.44673" lon="6.54728">
        <ele>2588</ele>
        <time>2020-02-23T13:16:16Z</time>
      </trkpt>
      <trkpt lat="44.44676" lon="6.54721">
        <ele>2588</ele>
        <time>2020-02-23T13:16:21Z</time>
      </trkpt>
      <trkpt lat="44.44673" lon="6.54713">
        <ele>2588</ele>
        <time>2020-02-23T13:16:33Z</time>
      </trkpt>
      <trkpt lat="44.44676" lon="6.54707">
        <ele>2588</ele>
        <time>2020-02-23T13:16:43Z</time>
      </trkpt>
      <trkpt lat="44.44701" lon="6.54691">
        <ele>2591</ele>
        <time>2020-02-23T13:16:50Z</time>
      </trkpt>
      <trkpt lat="44.44692" lon="6.54691">
        <ele>2602</ele>
        <time>2020-02-23T13:16:54Z</time>
      </trkpt>
      <trkpt lat="44.44691" lon="6.5468">
        <ele>2609</ele>
        <time>2020-02-23T13:17:18Z</time>
      </trkpt>
      <trkpt lat="44.44695" lon="6.54669">
        <ele>2608</ele>
        <time>2020-02-23T13:17:31Z</time>
      </trkpt>
      <trkpt lat="44.44698" lon="6.54664">
        <ele>2609</ele>
        <time>2020-02-23T13:17:40Z</time>
      </trkpt>
      <trkpt lat="44.44711" lon="6.54646">
        <ele>2608</ele>
        <time>2020-02-23T13:18:07Z</time>
      </trkpt>
      <trkpt lat="44.44714" lon="6.54642">
        <ele>2609</ele>
        <time>2020-02-23T13:18:13Z</time>
      </trkpt>
      <trkpt lat="44.44722" lon="6.54633">
        <ele>2609</ele>
        <time>2020-02-23T13:18:26Z</time>
      </trkpt>
      <trkpt lat="44.44726" lon="6.54631">
        <ele>2613</ele>
        <time>2020-02-23T13:18:31Z</time>
      </trkpt>
      <trkpt lat="44.44726" lon="6.54624">
        <ele>2614</ele>
        <time>2020-02-23T13:18:38Z</time>
      </trkpt>
      <trkpt lat="44.44727" lon="6.54618">
        <ele>2614</ele>
        <time>2020-02-23T13:18:44Z</time>
      </trkpt>
      <trkpt lat="44.44728" lon="6.54612">
        <ele>2614</ele>
        <time>2020-02-23T13:18:51Z</time>
      </trkpt>
      <trkpt lat="44.44729" lon="6.54605">
        <ele>2615</ele>
        <time>2020-02-23T13:18:59Z</time>
      </trkpt>
      <trkpt lat="44.4473" lon="6.54598">
        <ele>2616</ele>
        <time>2020-02-23T13:19:05Z</time>
      </trkpt>
      <trkpt lat="44.44731" lon="6.54592">
        <ele>2616</ele>
        <time>2020-02-23T13:19:13Z</time>
      </trkpt>
      <trkpt lat="44.44731" lon="6.54586">
        <ele>2617</ele>
        <time>2020-02-23T13:19:19Z</time>
      </trkpt>
      <trkpt lat="44.44731" lon="6.54581">
        <ele>2616</ele>
        <time>2020-02-23T13:19:25Z</time>
      </trkpt>
      <trkpt lat="44.44732" lon="6.54576">
        <ele>2616</ele>
        <time>2020-02-23T13:19:33Z</time>
      </trkpt>
      <trkpt lat="44.44737" lon="6.54563">
        <ele>2617</ele>
        <time>2020-02-23T13:19:51Z</time>
      </trkpt>
      <trkpt lat="44.44739" lon="6.54559">
        <ele>2617</ele>
        <time>2020-02-23T13:19:56Z</time>
      </trkpt>
      <trkpt lat="44.44745" lon="6.5455">
        <ele>2618</ele>
        <time>2020-02-23T13:20:06Z</time>
      </trkpt>
      <trkpt lat="44.44748" lon="6.54545">
        <ele>2619</ele>
        <time>2020-02-23T13:20:10Z</time>
      </trkpt>
      <trkpt lat="44.44751" lon="6.54537">
        <ele>2619</ele>
        <time>2020-02-23T13:20:16Z</time>
      </trkpt>
      <trkpt lat="44.44754" lon="6.54531">
        <ele>2618</ele>
        <time>2020-02-23T13:20:21Z</time>
      </trkpt>
      <trkpt lat="44.44756" lon="6.54526">
        <ele>2618</ele>
        <time>2020-02-23T13:20:29Z</time>
      </trkpt>
      <trkpt lat="44.44756" lon="6.54511">
        <ele>2623</ele>
        <time>2020-02-23T13:20:42Z</time>
      </trkpt>
      <trkpt lat="44.44761" lon="6.54506">
        <ele>2624</ele>
        <time>2020-02-23T13:20:48Z</time>
      </trkpt>
      <trkpt lat="44.44764" lon="6.545">
        <ele>2623</ele>
        <time>2020-02-23T13:20:54Z</time>
      </trkpt>
      <trkpt lat="44.44761" lon="6.54496">
        <ele>2622</ele>
        <time>2020-02-23T13:20:59Z</time>
      </trkpt>
      <trkpt lat="44.44759" lon="6.54491">
        <ele>2623</ele>
        <time>2020-02-23T13:21:04Z</time>
      </trkpt>
      <trkpt lat="44.44759" lon="6.54484">
        <ele>2625</ele>
        <time>2020-02-23T13:21:12Z</time>
      </trkpt>
      <trkpt lat="44.44763" lon="6.54478">
        <ele>2627</ele>
        <time>2020-02-23T13:21:20Z</time>
      </trkpt>
      <trkpt lat="44.44762" lon="6.54473">
        <ele>2627</ele>
        <time>2020-02-23T13:21:28Z</time>
      </trkpt>
      <trkpt lat="44.44761" lon="6.54467">
        <ele>2628</ele>
        <time>2020-02-23T13:21:44Z</time>
      </trkpt>
      <trkpt lat="44.44761" lon="6.54461">
        <ele>2627</ele>
        <time>2020-02-23T13:21:47Z</time>
      </trkpt>
      <trkpt lat="44.44765" lon="6.54447">
        <ele>2627</ele>
        <time>2020-02-23T13:22:05Z</time>
      </trkpt>
      <trkpt lat="44.44767" lon="6.54442">
        <ele>2627</ele>
        <time>2020-02-23T13:22:08Z</time>
      </trkpt>
      <trkpt lat="44.44768" lon="6.54436">
        <ele>2627</ele>
        <time>2020-02-23T13:22:15Z</time>
      </trkpt>
      <trkpt lat="44.44771" lon="6.54425">
        <ele>2629</ele>
        <time>2020-02-23T13:22:32Z</time>
      </trkpt>
      <trkpt lat="44.44772" lon="6.54419">
        <ele>2631</ele>
        <time>2020-02-23T13:22:44Z</time>
      </trkpt>
      <trkpt lat="44.44777" lon="6.54412">
        <ele>2631</ele>
        <time>2020-02-23T13:22:49Z</time>
      </trkpt>
      <trkpt lat="44.44788" lon="6.544">
        <ele>2630</ele>
        <time>2020-02-23T13:23:00Z</time>
      </trkpt>
      <trkpt lat="44.44791" lon="6.54395">
        <ele>2629</ele>
        <time>2020-02-23T13:23:06Z</time>
      </trkpt>
      <trkpt lat="44.44795" lon="6.54391">
        <ele>2628</ele>
        <time>2020-02-23T13:23:12Z</time>
      </trkpt>
      <trkpt lat="44.44795" lon="6.54386">
        <ele>2628</ele>
        <time>2020-02-23T13:23:16Z</time>
      </trkpt>
      <trkpt lat="44.44797" lon="6.5438">
        <ele>2629</ele>
        <time>2020-02-23T13:23:21Z</time>
      </trkpt>
      <trkpt lat="44.44805" lon="6.5435">
        <ele>2633</ele>
        <time>2020-02-23T13:23:50Z</time>
      </trkpt>
      <trkpt lat="44.44805" lon="6.54344">
        <ele>2635</ele>
        <time>2020-02-23T13:23:56Z</time>
      </trkpt>
      <trkpt lat="44.44806" lon="6.54332">
        <ele>2637</ele>
        <time>2020-02-23T13:24:10Z</time>
      </trkpt>
      <trkpt lat="44.44806" lon="6.54327">
        <ele>2637</ele>
        <time>2020-02-23T13:24:16Z</time>
      </trkpt>
      <trkpt lat="44.44809" lon="6.54322">
        <ele>2636</ele>
        <time>2020-02-23T13:24:22Z</time>
      </trkpt>
      <trkpt lat="44.4481" lon="6.54317">
        <ele>2636</ele>
        <time>2020-02-23T13:24:29Z</time>
      </trkpt>
      <trkpt lat="44.44808" lon="6.54312">
        <ele>2640</ele>
        <time>2020-02-23T13:24:50Z</time>
      </trkpt>
      <trkpt lat="44.44812" lon="6.54304">
        <ele>2641</ele>
        <time>2020-02-23T13:25:17Z</time>
      </trkpt>
      <trkpt lat="44.44819" lon="6.54301">
        <ele>2642</ele>
        <time>2020-02-23T13:25:21Z</time>
      </trkpt>
      <trkpt lat="44.44825" lon="6.54299">
        <ele>2645</ele>
        <time>2020-02-23T13:25:24Z</time>
      </trkpt>
      <trkpt lat="44.44828" lon="6.54295">
        <ele>2652</ele>
        <time>2020-02-23T13:25:53Z</time>
      </trkpt>
      <trkpt lat="44.44831" lon="6.54291">
        <ele>2654</ele>
        <time>2020-02-23T13:26:01Z</time>
      </trkpt>
      <trkpt lat="44.44831" lon="6.54285">
        <ele>2659</ele>
        <time>2020-02-23T13:26:31Z</time>
      </trkpt>
      <trkpt lat="44.44842" lon="6.54276">
        <ele>2660</ele>
        <time>2020-02-23T13:26:35Z</time>
      </trkpt>
      <trkpt lat="44.44845" lon="6.54272">
        <ele>2661</ele>
        <time>2020-02-23T13:26:44Z</time>
      </trkpt>
      <trkpt lat="44.4485" lon="6.5427">
        <ele>2661</ele>
        <time>2020-02-23T13:26:49Z</time>
      </trkpt>
      <trkpt lat="44.44852" lon="6.54265">
        <ele>2662</ele>
        <time>2020-02-23T13:27:12Z</time>
      </trkpt>
      <trkpt lat="44.44856" lon="6.54262">
        <ele>2663</ele>
        <time>2020-02-23T13:27:34Z</time>
      </trkpt>
      <trkpt lat="44.44862" lon="6.5426">
        <ele>2664</ele>
        <time>2020-02-23T13:27:48Z</time>
      </trkpt>
      <trkpt lat="44.44863" lon="6.54253">
        <ele>2671</ele>
        <time>2020-02-23T13:27:59Z</time>
      </trkpt>
      <trkpt lat="44.44868" lon="6.54249">
        <ele>2671</ele>
        <time>2020-02-23T13:28:12Z</time>
      </trkpt>
      <trkpt lat="44.44869" lon="6.54242">
        <ele>2672</ele>
        <time>2020-02-23T13:28:20Z</time>
      </trkpt>
      <trkpt lat="44.4487" lon="6.54235">
        <ele>2672</ele>
        <time>2020-02-23T13:28:37Z</time>
      </trkpt>
      <trkpt lat="44.44873" lon="6.54233">
        <ele>2673</ele>
        <time>2020-02-23T13:28:43Z</time>
      </trkpt>
      <trkpt lat="44.44874" lon="6.54239">
        <ele>2676</ele>
        <time>2020-02-23T13:29:09Z</time>
      </trkpt>
      <trkpt lat="44.4488" lon="6.54242">
        <ele>2677</ele>
        <time>2020-02-23T13:29:15Z</time>
      </trkpt>
      <trkpt lat="44.44886" lon="6.5424">
        <ele>2681</ele>
        <time>2020-02-23T13:29:20Z</time>
      </trkpt>
      <trkpt lat="44.44885" lon="6.54234">
        <ele>2683</ele>
        <time>2020-02-23T13:29:36Z</time>
      </trkpt>
      <trkpt lat="44.4488" lon="6.54229">
        <ele>2685</ele>
        <time>2020-02-23T13:29:44Z</time>
      </trkpt>
      <trkpt lat="44.44884" lon="6.54227">
        <ele>2684</ele>
        <time>2020-02-23T13:29:53Z</time>
      </trkpt>
      <trkpt lat="44.44892" lon="6.54222">
        <ele>2686</ele>
        <time>2020-02-23T13:30:08Z</time>
      </trkpt>
      <trkpt lat="44.44897" lon="6.54221">
        <ele>2688</ele>
        <time>2020-02-23T13:30:14Z</time>
      </trkpt>
      <trkpt lat="44.449" lon="6.54227">
        <ele>2689</ele>
        <time>2020-02-23T13:30:30Z</time>
      </trkpt>
      <trkpt lat="44.44905" lon="6.54224">
        <ele>2691</ele>
        <time>2020-02-23T13:30:43Z</time>
      </trkpt>
      <trkpt lat="44.44907" lon="6.54219">
        <ele>2692</ele>
        <time>2020-02-23T13:30:47Z</time>
      </trkpt>
      <trkpt lat="44.44911" lon="6.54213">
        <ele>2694</ele>
        <time>2020-02-23T13:30:50Z</time>
      </trkpt>
      <trkpt lat="44.44907" lon="6.54209">
        <ele>2695</ele>
        <time>2020-02-23T13:30:55Z</time>
      </trkpt>
      <trkpt lat="44.44911" lon="6.54207">
        <ele>2695</ele>
        <time>2020-02-23T13:31:02Z</time>
      </trkpt>
      <trkpt lat="44.44916" lon="6.5421">
        <ele>2700</ele>
        <time>2020-02-23T13:31:25Z</time>
      </trkpt>
      <trkpt lat="44.44919" lon="6.54204">
        <ele>2701</ele>
        <time>2020-02-23T13:31:39Z</time>
      </trkpt>
      <trkpt lat="44.44924" lon="6.54195">
        <ele>2710</ele>
        <time>2020-02-23T13:31:54Z</time>
      </trkpt>
      <trkpt lat="44.44929" lon="6.54198">
        <ele>2709</ele>
        <time>2020-02-23T13:32:01Z</time>
      </trkpt>
      <trkpt lat="44.44931" lon="6.54193">
        <ele>2706</ele>
        <time>2020-02-23T13:32:15Z</time>
      </trkpt>
      <trkpt lat="44.44932" lon="6.54188">
        <ele>2707</ele>
        <time>2020-02-23T13:32:23Z</time>
      </trkpt>
      <trkpt lat="44.44936" lon="6.54175">
        <ele>2707</ele>
        <time>2020-02-23T13:32:49Z</time>
      </trkpt>
      <trkpt lat="44.44939" lon="6.5417">
        <ele>2710</ele>
        <time>2020-02-23T13:33:01Z</time>
      </trkpt>
      <trkpt lat="44.44938" lon="6.54161">
        <ele>2711</ele>
        <time>2020-02-23T13:33:11Z</time>
      </trkpt>
      <trkpt lat="44.44943" lon="6.54157">
        <ele>2711</ele>
        <time>2020-02-23T13:33:31Z</time>
      </trkpt>
      <trkpt lat="44.44952" lon="6.54163">
        <ele>2717</ele>
        <time>2020-02-23T13:34:00Z</time>
      </trkpt>
      <trkpt lat="44.44955" lon="6.54156">
        <ele>2718</ele>
        <time>2020-02-23T13:34:09Z</time>
      </trkpt>
      <trkpt lat="44.44958" lon="6.54152">
        <ele>2723</ele>
        <time>2020-02-23T13:34:19Z</time>
      </trkpt>
      <trkpt lat="44.44962" lon="6.54145">
        <ele>2723</ele>
        <time>2020-02-23T13:34:21Z</time>
      </trkpt>
      <trkpt lat="44.44963" lon="6.54136">
        <ele>2724</ele>
        <time>2020-02-23T13:34:46Z</time>
      </trkpt>
      <trkpt lat="44.44966" lon="6.54135">
        <ele>2725</ele>
        <time>2020-02-23T13:34:58Z</time>
      </trkpt>
      <trkpt lat="44.44971" lon="6.54139">
        <ele>2725</ele>
        <time>2020-02-23T13:35:21Z</time>
      </trkpt>
      <trkpt lat="44.44973" lon="6.54133">
        <ele>2727</ele>
        <time>2020-02-23T13:35:39Z</time>
      </trkpt>
      <trkpt lat="44.44977" lon="6.5413">
        <ele>2727</ele>
        <time>2020-02-23T13:35:51Z</time>
      </trkpt>
      <trkpt lat="44.4498" lon="6.54132">
        <ele>2729</ele>
        <time>2020-02-23T13:36:08Z</time>
      </trkpt>
      <trkpt lat="44.4499" lon="6.54135">
        <ele>2735</ele>
        <time>2020-02-23T13:36:54Z</time>
      </trkpt>
      <trkpt lat="44.44995" lon="6.54135">
        <ele>2738</ele>
        <time>2020-02-23T13:37:10Z</time>
      </trkpt>
      <trkpt lat="44.45007" lon="6.54128">
        <ele>2737</ele>
        <time>2020-02-23T13:37:31Z</time>
      </trkpt>
      <trkpt lat="44.45012" lon="6.54127">
        <ele>2736</ele>
        <time>2020-02-23T13:37:39Z</time>
      </trkpt>
      <trkpt lat="44.45023" lon="6.54118">
        <ele>2736</ele>
        <time>2020-02-23T13:38:10Z</time>
      </trkpt>
      <trkpt lat="44.45026" lon="6.54115">
        <ele>2736</ele>
        <time>2020-02-23T13:38:16Z</time>
      </trkpt>
      <trkpt lat="44.45029" lon="6.5411">
        <ele>2737</ele>
        <time>2020-02-23T13:38:27Z</time>
      </trkpt>
      <trkpt lat="44.4503" lon="6.54107">
        <ele>2737</ele>
        <time>2020-02-23T13:38:34Z</time>
      </trkpt>
      <trkpt lat="44.45034" lon="6.54103">
        <ele>2737</ele>
        <time>2020-02-23T13:38:41Z</time>
      </trkpt>
      <trkpt lat="44.45037" lon="6.541">
        <ele>2738</ele>
        <time>2020-02-23T13:38:53Z</time>
      </trkpt>
      <trkpt lat="44.45041" lon="6.54097">
        <ele>2739</ele>
        <time>2020-02-23T13:38:59Z</time>
      </trkpt>
      <trkpt lat="44.45044" lon="6.54094">
        <ele>2741</ele>
        <time>2020-02-23T13:39:13Z</time>
      </trkpt>
      <trkpt lat="44.45052" lon="6.54096">
        <ele>2744</ele>
        <time>2020-02-23T13:39:23Z</time>
      </trkpt>
      <trkpt lat="44.45058" lon="6.54095">
        <ele>2744</ele>
        <time>2020-02-23T13:39:31Z</time>
      </trkpt>
      <trkpt lat="44.45068" lon="6.54092">
        <ele>2745</ele>
        <time>2020-02-23T13:39:43Z</time>
      </trkpt>
      <trkpt lat="44.45072" lon="6.5409">
        <ele>2748</ele>
        <time>2020-02-23T13:39:51Z</time>
      </trkpt>
      <trkpt lat="44.45075" lon="6.54087">
        <ele>2749</ele>
        <time>2020-02-23T13:39:59Z</time>
      </trkpt>
      <trkpt lat="44.45079" lon="6.54077">
        <ele>2749</ele>
        <time>2020-02-23T13:40:07Z</time>
      </trkpt>
      <trkpt lat="44.45083" lon="6.54081">
        <ele>2751</ele>
        <time>2020-02-23T13:40:14Z</time>
      </trkpt>
      <trkpt lat="44.45086" lon="6.54086">
        <ele>2752</ele>
        <time>2020-02-23T13:40:18Z</time>
      </trkpt>
      <trkpt lat="44.45087" lon="6.54091">
        <ele>2752</ele>
        <time>2020-02-23T13:40:22Z</time>
      </trkpt>
      <trkpt lat="44.45087" lon="6.54095">
        <ele>2753</ele>
        <time>2020-02-23T13:40:27Z</time>
      </trkpt>
      <trkpt lat="44.45086" lon="6.54099">
        <ele>2753</ele>
        <time>2020-02-23T13:40:31Z</time>
      </trkpt>
      <trkpt lat="44.45091" lon="6.541">
        <ele>2754</ele>
        <time>2020-02-23T13:41:52Z</time>
      </trkpt>
      <trkpt lat="44.45088" lon="6.54104">
        <ele>2756</ele>
        <time>2020-02-23T13:43:59Z</time>
      </trkpt>
      <trkpt lat="44.45085" lon="6.54103">
        <ele>2755</ele>
        <time>2020-02-23T13:46:12Z</time>
      </trkpt>
      <trkpt lat="44.45082" lon="6.54104">
        <ele>2750</ele>
        <time>2020-02-23T13:47:15Z</time>
      </trkpt>
      <trkpt lat="44.45086" lon="6.54108">
        <ele>2750</ele>
        <time>2020-02-23T13:47:32Z</time>
      </trkpt>
      <trkpt lat="44.45086" lon="6.54103">
        <ele>2750</ele>
        <time>2020-02-23T13:48:09Z</time>
      </trkpt>
      <trkpt lat="44.45087" lon="6.54105">
        <ele>2754</ele>
        <time>2020-02-23T13:50:00Z</time>
      </trkpt>
      <trkpt lat="44.45091" lon="6.54104">
        <ele>2755</ele>
        <time>2020-02-23T13:50:41Z</time>
      </trkpt>
      <trkpt lat="44.45099" lon="6.54095">
        <ele>2754</ele>
        <time>2020-02-23T13:50:45Z</time>
      </trkpt>
      <trkpt lat="44.451" lon="6.54096">
        <ele>2752</ele>
        <time>2020-02-23T13:51:37Z</time>
      </trkpt>
      <trkpt lat="44.45105" lon="6.54097">
        <ele>2750</ele>
        <time>2020-02-23T13:51:45Z</time>
      </trkpt>
      <trkpt lat="44.45109" lon="6.541">
        <ele>2749</ele>
        <time>2020-02-23T13:51:46Z</time>
      </trkpt>
      <trkpt lat="44.45112" lon="6.54103">
        <ele>2749</ele>
        <time>2020-02-23T13:51:47Z</time>
      </trkpt>
      <trkpt lat="44.45123" lon="6.54102">
        <ele>2746</ele>
        <time>2020-02-23T13:51:51Z</time>
      </trkpt>
      <trkpt lat="44.45127" lon="6.54101">
        <ele>2744</ele>
        <time>2020-02-23T13:51:52Z</time>
      </trkpt>
      <trkpt lat="44.45135" lon="6.54098">
        <ele>2742</ele>
        <time>2020-02-23T13:51:56Z</time>
      </trkpt>
      <trkpt lat="44.45137" lon="6.54104">
        <ele>2741</ele>
        <time>2020-02-23T13:51:58Z</time>
      </trkpt>
      <trkpt lat="44.45139" lon="6.5412">
        <ele>2738</ele>
        <time>2020-02-23T13:52:02Z</time>
      </trkpt>
      <trkpt lat="44.45147" lon="6.54122">
        <ele>2738</ele>
        <time>2020-02-23T13:52:04Z</time>
      </trkpt>
      <trkpt lat="44.45153" lon="6.54126">
        <ele>2736</ele>
        <time>2020-02-23T13:52:06Z</time>
      </trkpt>
      <trkpt lat="44.45157" lon="6.5413">
        <ele>2732</ele>
        <time>2020-02-23T13:52:12Z</time>
      </trkpt>
      <trkpt lat="44.45172" lon="6.54148">
        <ele>2727</ele>
        <time>2020-02-23T13:52:18Z</time>
      </trkpt>
      <trkpt lat="44.45183" lon="6.54161">
        <ele>2724</ele>
        <time>2020-02-23T13:52:23Z</time>
      </trkpt>
      <trkpt lat="44.45187" lon="6.54166">
        <ele>2723</ele>
        <time>2020-02-23T13:52:25Z</time>
      </trkpt>
      <trkpt lat="44.45188" lon="6.54171">
        <ele>2723</ele>
        <time>2020-02-23T13:52:27Z</time>
      </trkpt>
      <trkpt lat="44.45194" lon="6.54174">
        <ele>2719</ele>
        <time>2020-02-23T13:53:15Z</time>
      </trkpt>
      <trkpt lat="44.45228" lon="6.5424">
        <ele>2709</ele>
        <time>2020-02-23T13:53:31Z</time>
      </trkpt>
      <trkpt lat="44.45229" lon="6.54244">
        <ele>2708</ele>
        <time>2020-02-23T13:53:33Z</time>
      </trkpt>
      <trkpt lat="44.45236" lon="6.5425">
        <ele>2707</ele>
        <time>2020-02-23T13:53:37Z</time>
      </trkpt>
      <trkpt lat="44.45238" lon="6.54254">
        <ele>2706</ele>
        <time>2020-02-23T13:53:41Z</time>
      </trkpt>
      <trkpt lat="44.45243" lon="6.5426">
        <ele>2705</ele>
        <time>2020-02-23T13:53:43Z</time>
      </trkpt>
      <trkpt lat="44.45254" lon="6.5426">
        <ele>2704</ele>
        <time>2020-02-23T13:53:45Z</time>
      </trkpt>
      <trkpt lat="44.45259" lon="6.54264">
        <ele>2702</ele>
        <time>2020-02-23T13:53:47Z</time>
      </trkpt>
      <trkpt lat="44.45255" lon="6.54267">
        <ele>2701</ele>
        <time>2020-02-23T13:53:50Z</time>
      </trkpt>
      <trkpt lat="44.45251" lon="6.54267">
        <ele>2700</ele>
        <time>2020-02-23T13:53:54Z</time>
      </trkpt>
      <trkpt lat="44.45244" lon="6.54277">
        <ele>2698</ele>
        <time>2020-02-23T13:53:58Z</time>
      </trkpt>
      <trkpt lat="44.45239" lon="6.54287">
        <ele>2698</ele>
        <time>2020-02-23T13:54:02Z</time>
      </trkpt>
      <trkpt lat="44.45245" lon="6.54293">
        <ele>2696</ele>
        <time>2020-02-23T13:54:06Z</time>
      </trkpt>
      <trkpt lat="44.45251" lon="6.54293">
        <ele>2695</ele>
        <time>2020-02-23T13:54:08Z</time>
      </trkpt>
      <trkpt lat="44.45263" lon="6.54302">
        <ele>2688</ele>
        <time>2020-02-23T13:54:18Z</time>
      </trkpt>
      <trkpt lat="44.45258" lon="6.54307">
        <ele>2687</ele>
        <time>2020-02-23T13:54:21Z</time>
      </trkpt>
      <trkpt lat="44.45252" lon="6.54313">
        <ele>2686</ele>
        <time>2020-02-23T13:54:23Z</time>
      </trkpt>
      <trkpt lat="44.45254" lon="6.54321">
        <ele>2685</ele>
        <time>2020-02-23T13:54:25Z</time>
      </trkpt>
      <trkpt lat="44.45274" lon="6.54315">
        <ele>2682</ele>
        <time>2020-02-23T13:54:30Z</time>
      </trkpt>
      <trkpt lat="44.45279" lon="6.54316">
        <ele>2679</ele>
        <time>2020-02-23T13:54:32Z</time>
      </trkpt>
      <trkpt lat="44.45281" lon="6.5432">
        <ele>2675</ele>
        <time>2020-02-23T13:54:37Z</time>
      </trkpt>
      <trkpt lat="44.45277" lon="6.54326">
        <ele>2673</ele>
        <time>2020-02-23T13:54:39Z</time>
      </trkpt>
      <trkpt lat="44.45279" lon="6.54332">
        <ele>2672</ele>
        <time>2020-02-23T13:54:40Z</time>
      </trkpt>
      <trkpt lat="44.45322" lon="6.5434">
        <ele>2669</ele>
        <time>2020-02-23T13:54:47Z</time>
      </trkpt>
      <trkpt lat="44.45314" lon="6.54335">
        <ele>2669</ele>
        <time>2020-02-23T13:54:49Z</time>
      </trkpt>
      <trkpt lat="44.45305" lon="6.54334">
        <ele>2668</ele>
        <time>2020-02-23T13:54:51Z</time>
      </trkpt>
      <trkpt lat="44.45303" lon="6.54337">
        <ele>2664</ele>
        <time>2020-02-23T13:54:53Z</time>
      </trkpt>
      <trkpt lat="44.45299" lon="6.54339">
        <ele>2661</ele>
        <time>2020-02-23T13:54:56Z</time>
      </trkpt>
      <trkpt lat="44.45301" lon="6.54344">
        <ele>2660</ele>
        <time>2020-02-23T13:54:58Z</time>
      </trkpt>
      <trkpt lat="44.4528" lon="6.54357">
        <ele>2655</ele>
        <time>2020-02-23T13:55:08Z</time>
      </trkpt>
      <trkpt lat="44.45278" lon="6.54361">
        <ele>2652</ele>
        <time>2020-02-23T13:55:11Z</time>
      </trkpt>
      <trkpt lat="44.45276" lon="6.54371">
        <ele>2650</ele>
        <time>2020-02-23T13:55:17Z</time>
      </trkpt>
      <trkpt lat="44.45286" lon="6.54378">
        <ele>2642</ele>
        <time>2020-02-23T13:55:22Z</time>
      </trkpt>
      <trkpt lat="44.45282" lon="6.54384">
        <ele>2640</ele>
        <time>2020-02-23T13:55:24Z</time>
      </trkpt>
      <trkpt lat="44.45278" lon="6.54388">
        <ele>2637</ele>
        <time>2020-02-23T13:55:26Z</time>
      </trkpt>
      <trkpt lat="44.4528" lon="6.54397">
        <ele>2634</ele>
        <time>2020-02-23T13:55:28Z</time>
      </trkpt>
      <trkpt lat="44.4529" lon="6.54397">
        <ele>2629</ele>
        <time>2020-02-23T13:55:30Z</time>
      </trkpt>
      <trkpt lat="44.45287" lon="6.54403">
        <ele>2626</ele>
        <time>2020-02-23T13:55:32Z</time>
      </trkpt>
      <trkpt lat="44.45287" lon="6.54417">
        <ele>2620</ele>
        <time>2020-02-23T13:55:34Z</time>
      </trkpt>
      <trkpt lat="44.45293" lon="6.5442">
        <ele>2619</ele>
        <time>2020-02-23T13:55:36Z</time>
      </trkpt>
      <trkpt lat="44.45294" lon="6.5443">
        <ele>2615</ele>
        <time>2020-02-23T13:55:38Z</time>
      </trkpt>
      <trkpt lat="44.45299" lon="6.54436">
        <ele>2610</ele>
        <time>2020-02-23T13:55:40Z</time>
      </trkpt>
      <trkpt lat="44.45305" lon="6.54436">
        <ele>2608</ele>
        <time>2020-02-23T13:55:42Z</time>
      </trkpt>
      <trkpt lat="44.45309" lon="6.54432">
        <ele>2603</ele>
        <time>2020-02-23T13:55:44Z</time>
      </trkpt>
      <trkpt lat="44.4531" lon="6.54443">
        <ele>2597</ele>
        <time>2020-02-23T13:56:22Z</time>
      </trkpt>
      <trkpt lat="44.45306" lon="6.54457">
        <ele>2594</ele>
        <time>2020-02-23T13:56:24Z</time>
      </trkpt>
      <trkpt lat="44.4531" lon="6.54462">
        <ele>2588</ele>
        <time>2020-02-23T13:56:27Z</time>
      </trkpt>
      <trkpt lat="44.45306" lon="6.5447">
        <ele>2586</ele>
        <time>2020-02-23T13:56:29Z</time>
      </trkpt>
      <trkpt lat="44.4531" lon="6.54481">
        <ele>2578</ele>
        <time>2020-02-23T13:56:31Z</time>
      </trkpt>
      <trkpt lat="44.45315" lon="6.54484">
        <ele>2575</ele>
        <time>2020-02-23T13:56:32Z</time>
      </trkpt>
      <trkpt lat="44.45319" lon="6.5449">
        <ele>2573</ele>
        <time>2020-02-23T13:56:33Z</time>
      </trkpt>
      <trkpt lat="44.45309" lon="6.54508">
        <ele>2564</ele>
        <time>2020-02-23T13:56:38Z</time>
      </trkpt>
      <trkpt lat="44.45318" lon="6.54507">
        <ele>2562</ele>
        <time>2020-02-23T13:56:40Z</time>
      </trkpt>
      <trkpt lat="44.45326" lon="6.54504">
        <ele>2556</ele>
        <time>2020-02-23T13:56:42Z</time>
      </trkpt>
      <trkpt lat="44.45349" lon="6.54505">
        <ele>2545</ele>
        <time>2020-02-23T13:56:48Z</time>
      </trkpt>
      <trkpt lat="44.45356" lon="6.54522">
        <ele>2542</ele>
        <time>2020-02-23T13:56:52Z</time>
      </trkpt>
      <trkpt lat="44.45357" lon="6.54522">
        <ele>2535</ele>
        <time>2020-02-23T13:57:14Z</time>
      </trkpt>
      <trkpt lat="44.45351" lon="6.54522">
        <ele>2534</ele>
        <time>2020-02-23T13:57:26Z</time>
      </trkpt>
      <trkpt lat="44.45352" lon="6.54532">
        <ele>2533</ele>
        <time>2020-02-23T13:57:30Z</time>
      </trkpt>
      <trkpt lat="44.45356" lon="6.54537">
        <ele>2529</ele>
        <time>2020-02-23T13:57:32Z</time>
      </trkpt>
      <trkpt lat="44.45359" lon="6.54544">
        <ele>2526</ele>
        <time>2020-02-23T13:57:35Z</time>
      </trkpt>
      <trkpt lat="44.45364" lon="6.54549">
        <ele>2523</ele>
        <time>2020-02-23T13:57:37Z</time>
      </trkpt>
      <trkpt lat="44.45373" lon="6.54557">
        <ele>2521</ele>
        <time>2020-02-23T13:57:40Z</time>
      </trkpt>
      <trkpt lat="44.4538" lon="6.54566">
        <ele>2518</ele>
        <time>2020-02-23T13:57:44Z</time>
      </trkpt>
      <trkpt lat="44.45375" lon="6.54573">
        <ele>2516</ele>
        <time>2020-02-23T13:57:47Z</time>
      </trkpt>
      <trkpt lat="44.45379" lon="6.54588">
        <ele>2512</ele>
        <time>2020-02-23T13:57:49Z</time>
      </trkpt>
      <trkpt lat="44.45374" lon="6.54601">
        <ele>2509</ele>
        <time>2020-02-23T13:57:51Z</time>
      </trkpt>
      <trkpt lat="44.45364" lon="6.54605">
        <ele>2502</ele>
        <time>2020-02-23T13:57:53Z</time>
      </trkpt>
      <trkpt lat="44.45359" lon="6.54619">
        <ele>2499</ele>
        <time>2020-02-23T13:57:55Z</time>
      </trkpt>
      <trkpt lat="44.45353" lon="6.54623">
        <ele>2496</ele>
        <time>2020-02-23T13:57:56Z</time>
      </trkpt>
      <trkpt lat="44.45351" lon="6.54632">
        <ele>2494</ele>
        <time>2020-02-23T13:57:57Z</time>
      </trkpt>
      <trkpt lat="44.45355" lon="6.54642">
        <ele>2493</ele>
        <time>2020-02-23T13:57:58Z</time>
      </trkpt>
      <trkpt lat="44.45342" lon="6.54647">
        <ele>2491</ele>
        <time>2020-02-23T13:57:59Z</time>
      </trkpt>
      <trkpt lat="44.45331" lon="6.54651">
        <ele>2491</ele>
        <time>2020-02-23T13:58:00Z</time>
      </trkpt>
      <trkpt lat="44.4532" lon="6.54652">
        <ele>2488</ele>
        <time>2020-02-23T13:58:01Z</time>
      </trkpt>
      <trkpt lat="44.45337" lon="6.54669">
        <ele>2475</ele>
        <time>2020-02-23T13:58:03Z</time>
      </trkpt>
      <trkpt lat="44.45348" lon="6.54677">
        <ele>2470</ele>
        <time>2020-02-23T13:58:04Z</time>
      </trkpt>
      <trkpt lat="44.45343" lon="6.54692">
        <ele>2466</ele>
        <time>2020-02-23T13:58:06Z</time>
      </trkpt>
      <trkpt lat="44.45333" lon="6.547">
        <ele>2461</ele>
        <time>2020-02-23T13:58:07Z</time>
      </trkpt>
      <trkpt lat="44.45316" lon="6.54705">
        <ele>2458</ele>
        <time>2020-02-23T13:58:08Z</time>
      </trkpt>
      <trkpt lat="44.45303" lon="6.54705">
        <ele>2453</ele>
        <time>2020-02-23T13:58:09Z</time>
      </trkpt>
      <trkpt lat="44.45299" lon="6.54713">
        <ele>2448</ele>
        <time>2020-02-23T13:58:11Z</time>
      </trkpt>
      <trkpt lat="44.45305" lon="6.54727">
        <ele>2444</ele>
        <time>2020-02-23T13:58:12Z</time>
      </trkpt>
      <trkpt lat="44.4531" lon="6.54739">
        <ele>2442</ele>
        <time>2020-02-23T13:58:13Z</time>
      </trkpt>
      <trkpt lat="44.45307" lon="6.54757">
        <ele>2436</ele>
        <time>2020-02-23T13:58:15Z</time>
      </trkpt>
      <trkpt lat="44.45296" lon="6.54782">
        <ele>2423</ele>
        <time>2020-02-23T13:58:19Z</time>
      </trkpt>
      <trkpt lat="44.45278" lon="6.54792">
        <ele>2420</ele>
        <time>2020-02-23T13:58:21Z</time>
      </trkpt>
      <trkpt lat="44.45284" lon="6.54811">
        <ele>2410</ele>
        <time>2020-02-23T13:58:23Z</time>
      </trkpt>
      <trkpt lat="44.45297" lon="6.54842">
        <ele>2402</ele>
        <time>2020-02-23T13:58:25Z</time>
      </trkpt>
      <trkpt lat="44.45289" lon="6.5486">
        <ele>2399</ele>
        <time>2020-02-23T13:58:27Z</time>
      </trkpt>
      <trkpt lat="44.45276" lon="6.54864">
        <ele>2395</ele>
        <time>2020-02-23T13:58:28Z</time>
      </trkpt>
      <trkpt lat="44.45269" lon="6.54871">
        <ele>2391</ele>
        <time>2020-02-23T13:58:29Z</time>
      </trkpt>
      <trkpt lat="44.45274" lon="6.5489">
        <ele>2380</ele>
        <time>2020-02-23T13:58:31Z</time>
      </trkpt>
      <trkpt lat="44.45283" lon="6.54898">
        <ele>2375</ele>
        <time>2020-02-23T13:58:32Z</time>
      </trkpt>
      <trkpt lat="44.45292" lon="6.54902">
        <ele>2374</ele>
        <time>2020-02-23T13:58:33Z</time>
      </trkpt>
      <trkpt lat="44.45297" lon="6.54902">
        <ele>2368</ele>
        <time>2020-02-23T13:58:34Z</time>
      </trkpt>
      <trkpt lat="44.453" lon="6.54898">
        <ele>2366</ele>
        <time>2020-02-23T13:58:35Z</time>
      </trkpt>
      <trkpt lat="44.45299" lon="6.54892">
        <ele>2358</ele>
        <time>2020-02-23T13:58:58Z</time>
      </trkpt>
      <trkpt lat="44.45306" lon="6.54897">
        <ele>2353</ele>
        <time>2020-02-23T13:59:36Z</time>
      </trkpt>
      <trkpt lat="44.45341" lon="6.54896">
        <ele>2344</ele>
        <time>2020-02-23T13:59:44Z</time>
      </trkpt>
      <trkpt lat="44.45387" lon="6.54881">
        <ele>2337</ele>
        <time>2020-02-23T13:59:54Z</time>
      </trkpt>
      <trkpt lat="44.4539" lon="6.54896">
        <ele>2337</ele>
        <time>2020-02-23T13:59:56Z</time>
      </trkpt>
      <trkpt lat="44.45389" lon="6.54908">
        <ele>2336</ele>
        <time>2020-02-23T13:59:57Z</time>
      </trkpt>
      <trkpt lat="44.45394" lon="6.54917">
        <ele>2335</ele>
        <time>2020-02-23T13:59:58Z</time>
      </trkpt>
      <trkpt lat="44.45402" lon="6.5492">
        <ele>2334</ele>
        <time>2020-02-23T13:59:59Z</time>
      </trkpt>
      <trkpt lat="44.45413" lon="6.54918">
        <ele>2333</ele>
        <time>2020-02-23T14:00:00Z</time>
      </trkpt>
      <trkpt lat="44.4545" lon="6.54912">
        <ele>2330</ele>
        <time>2020-02-23T14:00:04Z</time>
      </trkpt>
      <trkpt lat="44.45491" lon="6.54929">
        <ele>2327</ele>
        <time>2020-02-23T14:00:08Z</time>
      </trkpt>
      <trkpt lat="44.45531" lon="6.54952">
        <ele>2320</ele>
        <time>2020-02-23T14:00:17Z</time>
      </trkpt>
      <trkpt lat="44.45552" lon="6.54956">
        <ele>2317</ele>
        <time>2020-02-23T14:00:21Z</time>
      </trkpt>
      <trkpt lat="44.45566" lon="6.54955">
        <ele>2316</ele>
        <time>2020-02-23T14:00:24Z</time>
      </trkpt>
      <trkpt lat="44.45572" lon="6.54959">
        <ele>2315</ele>
        <time>2020-02-23T14:00:25Z</time>
      </trkpt>
      <trkpt lat="44.45568" lon="6.54967">
        <ele>2314</ele>
        <time>2020-02-23T14:00:27Z</time>
      </trkpt>
      <trkpt lat="44.45564" lon="6.54972">
        <ele>2311</ele>
        <time>2020-02-23T14:00:28Z</time>
      </trkpt>
      <trkpt lat="44.45567" lon="6.5498">
        <ele>2310</ele>
        <time>2020-02-23T14:00:29Z</time>
      </trkpt>
      <trkpt lat="44.45571" lon="6.54995">
        <ele>2306</ele>
        <time>2020-02-23T14:00:31Z</time>
      </trkpt>
      <trkpt lat="44.45573" lon="6.55006">
        <ele>2304</ele>
        <time>2020-02-23T14:00:32Z</time>
      </trkpt>
      <trkpt lat="44.45578" lon="6.55015">
        <ele>2301</ele>
        <time>2020-02-23T14:00:33Z</time>
      </trkpt>
      <trkpt lat="44.456" lon="6.55028">
        <ele>2298</ele>
        <time>2020-02-23T14:00:35Z</time>
      </trkpt>
      <trkpt lat="44.45612" lon="6.55033">
        <ele>2294</ele>
        <time>2020-02-23T14:00:36Z</time>
      </trkpt>
      <trkpt lat="44.45678" lon="6.55056">
        <ele>2287</ele>
        <time>2020-02-23T14:00:41Z</time>
      </trkpt>
      <trkpt lat="44.45688" lon="6.5507">
        <ele>2285</ele>
        <time>2020-02-23T14:00:42Z</time>
      </trkpt>
      <trkpt lat="44.45696" lon="6.55081">
        <ele>2282</ele>
        <time>2020-02-23T14:00:43Z</time>
      </trkpt>
      <trkpt lat="44.45707" lon="6.55086">
        <ele>2279</ele>
        <time>2020-02-23T14:00:44Z</time>
      </trkpt>
      <trkpt lat="44.45714" lon="6.55097">
        <ele>2278</ele>
        <time>2020-02-23T14:00:45Z</time>
      </trkpt>
      <trkpt lat="44.45717" lon="6.55118">
        <ele>2276</ele>
        <time>2020-02-23T14:00:46Z</time>
      </trkpt>
      <trkpt lat="44.45724" lon="6.55129">
        <ele>2273</ele>
        <time>2020-02-23T14:00:47Z</time>
      </trkpt>
      <trkpt lat="44.4573" lon="6.55134">
        <ele>2267</ele>
        <time>2020-02-23T14:00:48Z</time>
      </trkpt>
      <trkpt lat="44.45737" lon="6.55131">
        <ele>2263</ele>
        <time>2020-02-23T14:00:49Z</time>
      </trkpt>
      <trkpt lat="44.4576" lon="6.55129">
        <ele>2258</ele>
        <time>2020-02-23T14:00:51Z</time>
      </trkpt>
      <trkpt lat="44.45798" lon="6.55143">
        <ele>2251</ele>
        <time>2020-02-23T14:00:56Z</time>
      </trkpt>
      <trkpt lat="44.45803" lon="6.55145">
        <ele>2251</ele>
        <time>2020-02-23T14:00:57Z</time>
      </trkpt>
      <trkpt lat="44.45808" lon="6.55153">
        <ele>2250</ele>
        <time>2020-02-23T14:00:58Z</time>
      </trkpt>
      <trkpt lat="44.45806" lon="6.55165">
        <ele>2248</ele>
        <time>2020-02-23T14:01:00Z</time>
      </trkpt>
      <trkpt lat="44.45786" lon="6.55187">
        <ele>2245</ele>
        <time>2020-02-23T14:01:03Z</time>
      </trkpt>
      <trkpt lat="44.4578" lon="6.55195">
        <ele>2243</ele>
        <time>2020-02-23T14:01:04Z</time>
      </trkpt>
      <trkpt lat="44.45776" lon="6.55205">
        <ele>2240</ele>
        <time>2020-02-23T14:01:05Z</time>
      </trkpt>
      <trkpt lat="44.45784" lon="6.55212">
        <ele>2237</ele>
        <time>2020-02-23T14:01:06Z</time>
      </trkpt>
      <trkpt lat="44.45796" lon="6.5521">
        <ele>2234</ele>
        <time>2020-02-23T14:01:07Z</time>
      </trkpt>
      <trkpt lat="44.45806" lon="6.55207">
        <ele>2233</ele>
        <time>2020-02-23T14:01:08Z</time>
      </trkpt>
      <trkpt lat="44.45825" lon="6.55211">
        <ele>2231</ele>
        <time>2020-02-23T14:01:10Z</time>
      </trkpt>
      <trkpt lat="44.45832" lon="6.5522">
        <ele>2230</ele>
        <time>2020-02-23T14:01:11Z</time>
      </trkpt>
      <trkpt lat="44.45839" lon="6.55237">
        <ele>2229</ele>
        <time>2020-02-23T14:01:12Z</time>
      </trkpt>
      <trkpt lat="44.45838" lon="6.55261">
        <ele>2226</ele>
        <time>2020-02-23T14:01:14Z</time>
      </trkpt>
      <trkpt lat="44.45834" lon="6.55272">
        <ele>2226</ele>
        <time>2020-02-23T14:01:15Z</time>
      </trkpt>
      <trkpt lat="44.45831" lon="6.55279">
        <ele>2222</ele>
        <time>2020-02-23T14:01:16Z</time>
      </trkpt>
      <trkpt lat="44.45842" lon="6.55294">
        <ele>2213</ele>
        <time>2020-02-23T14:01:20Z</time>
      </trkpt>
      <trkpt lat="44.45846" lon="6.55305">
        <ele>2211</ele>
        <time>2020-02-23T14:01:21Z</time>
      </trkpt>
      <trkpt lat="44.45858" lon="6.55321">
        <ele>2205</ele>
        <time>2020-02-23T14:01:23Z</time>
      </trkpt>
      <trkpt lat="44.45857" lon="6.55334">
        <ele>2202</ele>
        <time>2020-02-23T14:01:24Z</time>
      </trkpt>
      <trkpt lat="44.45858" lon="6.55347">
        <ele>2200</ele>
        <time>2020-02-23T14:01:25Z</time>
      </trkpt>
      <trkpt lat="44.45863" lon="6.55359">
        <ele>2192</ele>
        <time>2020-02-23T14:01:26Z</time>
      </trkpt>
      <trkpt lat="44.45875" lon="6.55363">
        <ele>2187</ele>
        <time>2020-02-23T14:01:27Z</time>
      </trkpt>
      <trkpt lat="44.45894" lon="6.55375">
        <ele>2182</ele>
        <time>2020-02-23T14:01:29Z</time>
      </trkpt>
      <trkpt lat="44.45899" lon="6.55406">
        <ele>2179</ele>
        <time>2020-02-23T14:01:31Z</time>
      </trkpt>
      <trkpt lat="44.45908" lon="6.55408">
        <ele>2178</ele>
        <time>2020-02-23T14:01:32Z</time>
      </trkpt>
      <trkpt lat="44.45918" lon="6.55403">
        <ele>2177</ele>
        <time>2020-02-23T14:01:33Z</time>
      </trkpt>
      <trkpt lat="44.45919" lon="6.55393">
        <ele>2175</ele>
        <time>2020-02-23T14:01:34Z</time>
      </trkpt>
      <trkpt lat="44.45926" lon="6.55402">
        <ele>2170</ele>
        <time>2020-02-23T14:01:38Z</time>
      </trkpt>
      <trkpt lat="44.4593" lon="6.55404">
        <ele>2160</ele>
        <time>2020-02-23T14:01:44Z</time>
      </trkpt>
      <trkpt lat="44.4593" lon="6.5541">
        <ele>2158</ele>
        <time>2020-02-23T14:01:50Z</time>
      </trkpt>
      <trkpt lat="44.45929" lon="6.55415">
        <ele>2157</ele>
        <time>2020-02-23T14:01:51Z</time>
      </trkpt>
      <trkpt lat="44.45927" lon="6.55424">
        <ele>2154</ele>
        <time>2020-02-23T14:01:52Z</time>
      </trkpt>
      <trkpt lat="44.45927" lon="6.55433">
        <ele>2152</ele>
        <time>2020-02-23T14:01:53Z</time>
      </trkpt>
      <trkpt lat="44.45932" lon="6.55433">
        <ele>2150</ele>
        <time>2020-02-23T14:01:54Z</time>
      </trkpt>
      <trkpt lat="44.45939" lon="6.55433">
        <ele>2148</ele>
        <time>2020-02-23T14:01:55Z</time>
      </trkpt>
      <trkpt lat="44.45945" lon="6.55428">
        <ele>2148</ele>
        <time>2020-02-23T14:01:56Z</time>
      </trkpt>
      <trkpt lat="44.45959" lon="6.55418">
        <ele>2146</ele>
        <time>2020-02-23T14:01:59Z</time>
      </trkpt>
      <trkpt lat="44.4597" lon="6.55411">
        <ele>2145</ele>
        <time>2020-02-23T14:02:01Z</time>
      </trkpt>
      <trkpt lat="44.45978" lon="6.55409">
        <ele>2143</ele>
        <time>2020-02-23T14:02:02Z</time>
      </trkpt>
      <trkpt lat="44.46" lon="6.55406">
        <ele>2142</ele>
        <time>2020-02-23T14:02:04Z</time>
      </trkpt>
      <trkpt lat="44.46008" lon="6.55399">
        <ele>2143</ele>
        <time>2020-02-23T14:02:05Z</time>
      </trkpt>
      <trkpt lat="44.46107" lon="6.55402">
        <ele>2134</ele>
        <time>2020-02-23T14:02:17Z</time>
      </trkpt>
      <trkpt lat="44.46114" lon="6.55409">
        <ele>2133</ele>
        <time>2020-02-23T14:02:18Z</time>
      </trkpt>
      <trkpt lat="44.4612" lon="6.55421">
        <ele>2132</ele>
        <time>2020-02-23T14:02:19Z</time>
      </trkpt>
      <trkpt lat="44.4613" lon="6.55428">
        <ele>2130</ele>
        <time>2020-02-23T14:02:20Z</time>
      </trkpt>
      <trkpt lat="44.46149" lon="6.55436">
        <ele>2126</ele>
        <time>2020-02-23T14:02:22Z</time>
      </trkpt>
      <trkpt lat="44.46162" lon="6.55438">
        <ele>2123</ele>
        <time>2020-02-23T14:02:23Z</time>
      </trkpt>
      <trkpt lat="44.46182" lon="6.55443">
        <ele>2120</ele>
        <time>2020-02-23T14:02:25Z</time>
      </trkpt>
      <trkpt lat="44.4621" lon="6.55464">
        <ele>2116</ele>
        <time>2020-02-23T14:02:28Z</time>
      </trkpt>
      <trkpt lat="44.46264" lon="6.55493">
        <ele>2108</ele>
        <time>2020-02-23T14:02:34Z</time>
      </trkpt>
      <trkpt lat="44.46285" lon="6.5552">
        <ele>2103</ele>
        <time>2020-02-23T14:02:38Z</time>
      </trkpt>
      <trkpt lat="44.46295" lon="6.55526">
        <ele>2100</ele>
        <time>2020-02-23T14:02:41Z</time>
      </trkpt>
      <trkpt lat="44.4629" lon="6.55523">
        <ele>2098</ele>
        <time>2020-02-23T14:02:45Z</time>
      </trkpt>
      <trkpt lat="44.46287" lon="6.5552">
        <ele>2097</ele>
        <time>2020-02-23T14:02:54Z</time>
      </trkpt>
      <trkpt lat="44.46283" lon="6.55519">
        <ele>2093</ele>
        <time>2020-02-23T14:02:57Z</time>
      </trkpt>
      <trkpt lat="44.46291" lon="6.55511">
        <ele>2090</ele>
        <time>2020-02-23T14:03:15Z</time>
      </trkpt>
      <trkpt lat="44.46318" lon="6.55506">
        <ele>2086</ele>
        <time>2020-02-23T14:03:19Z</time>
      </trkpt>
      <trkpt lat="44.46356" lon="6.55474">
        <ele>2083</ele>
        <time>2020-02-23T14:03:24Z</time>
      </trkpt>
      <trkpt lat="44.46384" lon="6.55442">
        <ele>2078</ele>
        <time>2020-02-23T14:03:28Z</time>
      </trkpt>
      <trkpt lat="44.46388" lon="6.55429">
        <ele>2078</ele>
        <time>2020-02-23T14:03:29Z</time>
      </trkpt>
      <trkpt lat="44.46393" lon="6.5541">
        <ele>2074</ele>
        <time>2020-02-23T14:03:32Z</time>
      </trkpt>
      <trkpt lat="44.46398" lon="6.55394">
        <ele>2071</ele>
        <time>2020-02-23T14:03:34Z</time>
      </trkpt>
      <trkpt lat="44.46391" lon="6.55382">
        <ele>2070</ele>
        <time>2020-02-23T14:03:35Z</time>
      </trkpt>
      <trkpt lat="44.46396" lon="6.55367">
        <ele>2067</ele>
        <time>2020-02-23T14:03:37Z</time>
      </trkpt>
      <trkpt lat="44.46404" lon="6.55356">
        <ele>2064</ele>
        <time>2020-02-23T14:03:39Z</time>
      </trkpt>
      <trkpt lat="44.46414" lon="6.55351">
        <ele>2059</ele>
        <time>2020-02-23T14:03:41Z</time>
      </trkpt>
      <trkpt lat="44.46423" lon="6.55347">
        <ele>2054</ele>
        <time>2020-02-23T14:03:42Z</time>
      </trkpt>
      <trkpt lat="44.4643" lon="6.55341">
        <ele>2052</ele>
        <time>2020-02-23T14:03:43Z</time>
      </trkpt>
      <trkpt lat="44.46437" lon="6.55335">
        <ele>2047</ele>
        <time>2020-02-23T14:03:45Z</time>
      </trkpt>
      <trkpt lat="44.46447" lon="6.55323">
        <ele>2041</ele>
        <time>2020-02-23T14:03:49Z</time>
      </trkpt>
      <trkpt lat="44.46451" lon="6.55308">
        <ele>2037</ele>
        <time>2020-02-23T14:03:52Z</time>
      </trkpt>
      <trkpt lat="44.46463" lon="6.5529">
        <ele>2033</ele>
        <time>2020-02-23T14:03:56Z</time>
      </trkpt>
      <trkpt lat="44.46489" lon="6.55254">
        <ele>2028</ele>
        <time>2020-02-23T14:04:02Z</time>
      </trkpt>
      <trkpt lat="44.46501" lon="6.55189">
        <ele>2021</ele>
        <time>2020-02-23T14:04:09Z</time>
      </trkpt>
      <trkpt lat="44.46503" lon="6.5517">
        <ele>2019</ele>
        <time>2020-02-23T14:04:13Z</time>
      </trkpt>
      <trkpt lat="44.46511" lon="6.55157">
        <ele>2015</ele>
        <time>2020-02-23T14:04:18Z</time>
      </trkpt>
      <trkpt lat="44.46513" lon="6.5515">
        <ele>2013</ele>
        <time>2020-02-23T14:04:19Z</time>
      </trkpt>
      <trkpt lat="44.46524" lon="6.55133">
        <ele>2010</ele>
        <time>2020-02-23T14:04:22Z</time>
      </trkpt>
      <trkpt lat="44.46517" lon="6.55117">
        <ele>2007</ele>
        <time>2020-02-23T14:04:25Z</time>
      </trkpt>
      <trkpt lat="44.46524" lon="6.55107">
        <ele>2006</ele>
        <time>2020-02-23T14:04:27Z</time>
      </trkpt>
      <trkpt lat="44.46524" lon="6.55091">
        <ele>2002</ele>
        <time>2020-02-23T14:04:29Z</time>
      </trkpt>
      <trkpt lat="44.46522" lon="6.55077">
        <ele>1999</ele>
        <time>2020-02-23T14:04:31Z</time>
      </trkpt>
      <trkpt lat="44.46525" lon="6.55058">
        <ele>1996</ele>
        <time>2020-02-23T14:04:33Z</time>
      </trkpt>
      <trkpt lat="44.46526" lon="6.55038">
        <ele>1993</ele>
        <time>2020-02-23T14:04:35Z</time>
      </trkpt>
      <trkpt lat="44.46532" lon="6.54999">
        <ele>1986</ele>
        <time>2020-02-23T14:04:39Z</time>
      </trkpt>
      <trkpt lat="44.46531" lon="6.54987">
        <ele>1984</ele>
        <time>2020-02-23T14:04:40Z</time>
      </trkpt>
      <trkpt lat="44.46532" lon="6.54979">
        <ele>1983</ele>
        <time>2020-02-23T14:04:41Z</time>
      </trkpt>
      <trkpt lat="44.46545" lon="6.54947">
        <ele>1980</ele>
        <time>2020-02-23T14:04:44Z</time>
      </trkpt>
      <trkpt lat="44.46557" lon="6.54931">
        <ele>1978</ele>
        <time>2020-02-23T14:04:46Z</time>
      </trkpt>
      <trkpt lat="44.46567" lon="6.54929">
        <ele>1977</ele>
        <time>2020-02-23T14:04:47Z</time>
      </trkpt>
      <trkpt lat="44.46574" lon="6.5492">
        <ele>1975</ele>
        <time>2020-02-23T14:04:48Z</time>
      </trkpt>
      <trkpt lat="44.46578" lon="6.54911">
        <ele>1972</ele>
        <time>2020-02-23T14:04:49Z</time>
      </trkpt>
      <trkpt lat="44.46587" lon="6.54906">
        <ele>1970</ele>
        <time>2020-02-23T14:04:51Z</time>
      </trkpt>
      <trkpt lat="44.46586" lon="6.54916">
        <ele>1966</ele>
        <time>2020-02-23T14:04:53Z</time>
      </trkpt>
      <trkpt lat="44.46588" lon="6.54924">
        <ele>1965</ele>
        <time>2020-02-23T14:04:54Z</time>
      </trkpt>
      <trkpt lat="44.4659" lon="6.54941">
        <ele>1962</ele>
        <time>2020-02-23T14:04:56Z</time>
      </trkpt>
      <trkpt lat="44.46591" lon="6.54952">
        <ele>1961</ele>
        <time>2020-02-23T14:04:57Z</time>
      </trkpt>
      <trkpt lat="44.466" lon="6.55">
        <ele>1959</ele>
        <time>2020-02-23T14:05:01Z</time>
      </trkpt>
      <trkpt lat="44.46598" lon="6.55023">
        <ele>1959</ele>
        <time>2020-02-23T14:05:03Z</time>
      </trkpt>
      <trkpt lat="44.46608" lon="6.55026">
        <ele>1958</ele>
        <time>2020-02-23T14:05:04Z</time>
      </trkpt>
      <trkpt lat="44.46615" lon="6.5505">
        <ele>1957</ele>
        <time>2020-02-23T14:05:06Z</time>
      </trkpt>
      <trkpt lat="44.46625" lon="6.55063">
        <ele>1956</ele>
        <time>2020-02-23T14:05:09Z</time>
      </trkpt>
      <trkpt lat="44.46631" lon="6.55063">
        <ele>1953</ele>
        <time>2020-02-23T14:05:11Z</time>
      </trkpt>
      <trkpt lat="44.4664" lon="6.55068">
        <ele>1949</ele>
        <time>2020-02-23T14:05:14Z</time>
      </trkpt>
      <trkpt lat="44.46648" lon="6.55081">
        <ele>1947</ele>
        <time>2020-02-23T14:05:15Z</time>
      </trkpt>
      <trkpt lat="44.46657" lon="6.55093">
        <ele>1946</ele>
        <time>2020-02-23T14:05:16Z</time>
      </trkpt>
      <trkpt lat="44.46665" lon="6.551">
        <ele>1944</ele>
        <time>2020-02-23T14:05:17Z</time>
      </trkpt>
      <trkpt lat="44.46695" lon="6.55101">
        <ele>1941</ele>
        <time>2020-02-23T14:05:19Z</time>
      </trkpt>
      <trkpt lat="44.46703" lon="6.55101">
        <ele>1934</ele>
        <time>2020-02-23T14:05:22Z</time>
      </trkpt>
      <trkpt lat="44.46694" lon="6.55079">
        <ele>1929</ele>
        <time>2020-02-23T14:05:26Z</time>
      </trkpt>
      <trkpt lat="44.46706" lon="6.55084">
        <ele>1927</ele>
        <time>2020-02-23T14:05:28Z</time>
      </trkpt>
      <trkpt lat="44.467" lon="6.55122">
        <ele>1926</ele>
        <time>2020-02-23T14:05:30Z</time>
      </trkpt>
      <trkpt lat="44.4672" lon="6.55118">
        <ele>1925</ele>
        <time>2020-02-23T14:05:33Z</time>
      </trkpt>
      <trkpt lat="44.46735" lon="6.55119">
        <ele>1922</ele>
        <time>2020-02-23T14:05:35Z</time>
      </trkpt>
      <trkpt lat="44.46751" lon="6.55128">
        <ele>1918</ele>
        <time>2020-02-23T14:05:37Z</time>
      </trkpt>
      <trkpt lat="44.46778" lon="6.55126">
        <ele>1911</ele>
        <time>2020-02-23T14:05:39Z</time>
      </trkpt>
      <trkpt lat="44.4679" lon="6.55113">
        <ele>1900</ele>
        <time>2020-02-23T14:05:41Z</time>
      </trkpt>
      <trkpt lat="44.46819" lon="6.55096">
        <ele>1896</ele>
        <time>2020-02-23T14:05:43Z</time>
      </trkpt>
      <trkpt lat="44.46835" lon="6.55088">
        <ele>1894</ele>
        <time>2020-02-23T14:05:45Z</time>
      </trkpt>
      <trkpt lat="44.46833" lon="6.55066">
        <ele>1890</ele>
        <time>2020-02-23T14:05:47Z</time>
      </trkpt>
      <trkpt lat="44.46817" lon="6.55055">
        <ele>1890</ele>
        <time>2020-02-23T14:05:50Z</time>
      </trkpt>
      <trkpt lat="44.46826" lon="6.55058">
        <ele>1886</ele>
        <time>2020-02-23T14:05:58Z</time>
      </trkpt>
      <trkpt lat="44.46835" lon="6.55057">
        <ele>1885</ele>
        <time>2020-02-23T14:06:00Z</time>
      </trkpt>
      <trkpt lat="44.46839" lon="6.55043">
        <ele>1881</ele>
        <time>2020-02-23T14:06:02Z</time>
      </trkpt>
      <trkpt lat="44.46845" lon="6.55032">
        <ele>1878</ele>
        <time>2020-02-23T14:06:05Z</time>
      </trkpt>
      <trkpt lat="44.4685" lon="6.55019">
        <ele>1873</ele>
        <time>2020-02-23T14:06:07Z</time>
      </trkpt>
      <trkpt lat="44.46854" lon="6.55011">
        <ele>1871</ele>
        <time>2020-02-23T14:06:08Z</time>
      </trkpt>
      <trkpt lat="44.46859" lon="6.55003">
        <ele>1868</ele>
        <time>2020-02-23T14:06:11Z</time>
      </trkpt>
      <trkpt lat="44.46867" lon="6.54998">
        <ele>1864</ele>
        <time>2020-02-23T14:06:12Z</time>
      </trkpt>
      <trkpt lat="44.4688" lon="6.54996">
        <ele>1862</ele>
        <time>2020-02-23T14:06:14Z</time>
      </trkpt>
      <trkpt lat="44.46882" lon="6.54988">
        <ele>1857</ele>
        <time>2020-02-23T14:06:16Z</time>
      </trkpt>
      <trkpt lat="44.46884" lon="6.54984">
        <ele>1845</ele>
        <time>2020-02-23T14:06:33Z</time>
      </trkpt>
      <trkpt lat="44.46894" lon="6.54989">
        <ele>1841</ele>
        <time>2020-02-23T14:06:49Z</time>
      </trkpt>
      <trkpt lat="44.46895" lon="6.54988">
        <ele>1839</ele>
        <time>2020-02-23T14:07:03Z</time>
      </trkpt>
      <trkpt lat="44.46895" lon="6.54991">
        <ele>1828</ele>
        <time>2020-02-23T14:07:26Z</time>
      </trkpt>
      <trkpt lat="44.46889" lon="6.5499">
        <ele>1827</ele>
        <time>2020-02-23T14:07:56Z</time>
      </trkpt>
      <trkpt lat="44.46882" lon="6.54988">
        <ele>1822</ele>
        <time>2020-02-23T14:08:45Z</time>
      </trkpt>
      <trkpt lat="44.46884" lon="6.54986">
        <ele>1817</ele>
        <time>2020-02-23T14:09:46Z</time>
      </trkpt>
      <trkpt lat="44.46888" lon="6.54988">
        <ele>1818</ele>
        <time>2020-02-23T14:10:15Z</time>
      </trkpt>
      <trkpt lat="44.46892" lon="6.54986">
        <ele>1816</ele>
        <time>2020-02-23T14:12:29Z</time>
      </trkpt>
      <trkpt lat="44.46894" lon="6.54987">
        <ele>1813</ele>
        <time>2020-02-23T14:14:40Z</time>
      </trkpt>
      <trkpt lat="44.4689" lon="6.54981">
        <ele>1813</ele>
        <time>2020-02-23T14:14:56Z</time>
      </trkpt>
      <trkpt lat="44.46889" lon="6.54976">
        <ele>1810</ele>
        <time>2020-02-23T14:16:04Z</time>
      </trkpt>
      <trkpt lat="44.46889" lon="6.54971">
        <ele>1812</ele>
        <time>2020-02-23T14:16:11Z</time>
      </trkpt>
      <trkpt lat="44.46887" lon="6.54972">
        <ele>1814</ele>
        <time>2020-02-23T14:16:29Z</time>
      </trkpt>
      <trkpt lat="44.46885" lon="6.54974">
        <ele>1818</ele>
        <time>2020-02-23T14:18:01Z</time>
      </trkpt>
      <trkpt lat="44.46882" lon="6.54977">
        <ele>1818</ele>
        <time>2020-02-23T14:19:30Z</time>
      </trkpt>
      <trkpt lat="44.46878" lon="6.54977">
        <ele>1822</ele>
        <time>2020-02-23T14:19:35Z</time>
      </trkpt>
      <trkpt lat="44.46875" lon="6.54976">
        <ele>1821</ele>
        <time>2020-02-23T14:19:38Z</time>
      </trkpt>
      <trkpt lat="44.46873" lon="6.54976">
        <ele>1817</ele>
        <time>2020-02-23T14:20:29Z</time>
      </trkpt>
      <trkpt lat="44.46872" lon="6.54976">
        <ele>1814</ele>
        <time>2020-02-23T14:21:21Z</time>
      </trkpt>
      <trkpt lat="44.46872" lon="6.54971">
        <ele>1813</ele>
        <time>2020-02-23T14:21:22Z</time>
      </trkpt>
      <trkpt lat="44.46875" lon="6.54964">
        <ele>1812</ele>
        <time>2020-02-23T14:21:23Z</time>
      </trkpt>
      <trkpt lat="44.46889" lon="6.54944">
        <ele>1812</ele>
        <time>2020-02-23T14:21:26Z</time>
      </trkpt>
      <trkpt lat="44.4689" lon="6.54934">
        <ele>1811</ele>
        <time>2020-02-23T14:21:27Z</time>
      </trkpt>
      <trkpt lat="44.46889" lon="6.54924">
        <ele>1810</ele>
        <time>2020-02-23T14:21:28Z</time>
      </trkpt>
      <trkpt lat="44.46891" lon="6.54914">
        <ele>1809</ele>
        <time>2020-02-23T14:21:29Z</time>
      </trkpt>
      <trkpt lat="44.46904" lon="6.54902">
        <ele>1809</ele>
        <time>2020-02-23T14:21:31Z</time>
      </trkpt>
      <trkpt lat="44.46906" lon="6.54893">
        <ele>1809</ele>
        <time>2020-02-23T14:21:32Z</time>
      </trkpt>
      <trkpt lat="44.46906" lon="6.54882">
        <ele>1809</ele>
        <time>2020-02-23T14:21:33Z</time>
      </trkpt>
      <trkpt lat="44.4691" lon="6.54873">
        <ele>1808</ele>
        <time>2020-02-23T14:21:34Z</time>
      </trkpt>
      <trkpt lat="44.4692" lon="6.54867">
        <ele>1808</ele>
        <time>2020-02-23T14:21:35Z</time>
      </trkpt>
      <trkpt lat="44.46929" lon="6.54861">
        <ele>1808</ele>
        <time>2020-02-23T14:21:36Z</time>
      </trkpt>
      <trkpt lat="44.46952" lon="6.54861">
        <ele>1807</ele>
        <time>2020-02-23T14:21:39Z</time>
      </trkpt>
      <trkpt lat="44.47031" lon="6.54857">
        <ele>1799</ele>
        <time>2020-02-23T14:21:49Z</time>
      </trkpt>
      <trkpt lat="44.47041" lon="6.54851">
        <ele>1798</ele>
        <time>2020-02-23T14:21:50Z</time>
      </trkpt>
      <trkpt lat="44.47095" lon="6.54796">
        <ele>1790</ele>
        <time>2020-02-23T14:21:57Z</time>
      </trkpt>
      <trkpt lat="44.47125" lon="6.54791">
        <ele>1786</ele>
        <time>2020-02-23T14:22:00Z</time>
      </trkpt>
      <trkpt lat="44.47146" lon="6.54784">
        <ele>1783</ele>
        <time>2020-02-23T14:22:02Z</time>
      </trkpt>
      <trkpt lat="44.47155" lon="6.54775">
        <ele>1782</ele>
        <time>2020-02-23T14:22:03Z</time>
      </trkpt>
      <trkpt lat="44.47192" lon="6.54768">
        <ele>1779</ele>
        <time>2020-02-23T14:22:07Z</time>
      </trkpt>
      <trkpt lat="44.47239" lon="6.5476">
        <ele>1776</ele>
        <time>2020-02-23T14:22:11Z</time>
      </trkpt>
      <trkpt lat="44.47271" lon="6.54734">
        <ele>1772</ele>
        <time>2020-02-23T14:22:15Z</time>
      </trkpt>
      <trkpt lat="44.4728" lon="6.54736">
        <ele>1771</ele>
        <time>2020-02-23T14:22:16Z</time>
      </trkpt>
      <trkpt lat="44.4729" lon="6.54744">
        <ele>1769</ele>
        <time>2020-02-23T14:22:17Z</time>
      </trkpt>
      <trkpt lat="44.47336" lon="6.54793">
        <ele>1764</ele>
        <time>2020-02-23T14:22:22Z</time>
      </trkpt>
      <trkpt lat="44.47422" lon="6.54793">
        <ele>1758</ele>
        <time>2020-02-23T14:22:32Z</time>
      </trkpt>
      <trkpt lat="44.47435" lon="6.54801">
        <ele>1757</ele>
        <time>2020-02-23T14:22:34Z</time>
      </trkpt>
      <trkpt lat="44.4746" lon="6.54827">
        <ele>1752</ele>
        <time>2020-02-23T14:22:39Z</time>
      </trkpt>
      <trkpt lat="44.47495" lon="6.54823">
        <ele>1749</ele>
        <time>2020-02-23T14:22:48Z</time>
      </trkpt>
      <trkpt lat="44.47516" lon="6.54826">
        <ele>1746</ele>
        <time>2020-02-23T14:22:53Z</time>
      </trkpt>
      <trkpt lat="44.47524" lon="6.54833">
        <ele>1744</ele>
        <time>2020-02-23T14:22:55Z</time>
      </trkpt>
      <trkpt lat="44.4753" lon="6.54839">
        <ele>1743</ele>
        <time>2020-02-23T14:22:58Z</time>
      </trkpt>
      <trkpt lat="44.47558" lon="6.54849">
        <ele>1740</ele>
        <time>2020-02-23T14:23:06Z</time>
      </trkpt>
      <trkpt lat="44.47586" lon="6.54861">
        <ele>1736</ele>
        <time>2020-02-23T14:23:14Z</time>
      </trkpt>
      <trkpt lat="44.47592" lon="6.54867">
        <ele>1736</ele>
        <time>2020-02-23T14:23:17Z</time>
      </trkpt>
      <trkpt lat="44.47598" lon="6.54877">
        <ele>1735</ele>
        <time>2020-02-23T14:23:20Z</time>
      </trkpt>
      <trkpt lat="44.47615" lon="6.54886">
        <ele>1735</ele>
        <time>2020-02-23T14:23:24Z</time>
      </trkpt>
      <trkpt lat="44.47643" lon="6.54907">
        <ele>1731</ele>
        <time>2020-02-23T14:23:36Z</time>
      </trkpt>
      <trkpt lat="44.47654" lon="6.54909">
        <ele>1730</ele>
        <time>2020-02-23T14:23:40Z</time>
      </trkpt>
      <trkpt lat="44.47701" lon="6.54913">
        <ele>1722</ele>
        <time>2020-02-23T14:23:58Z</time>
      </trkpt>
      <trkpt lat="44.4771" lon="6.54916">
        <ele>1721</ele>
        <time>2020-02-23T14:24:01Z</time>
      </trkpt>
      <trkpt lat="44.47721" lon="6.54925">
        <ele>1721</ele>
        <time>2020-02-23T14:24:07Z</time>
      </trkpt>
      <trkpt lat="44.47739" lon="6.54927">
        <ele>1720</ele>
        <time>2020-02-23T14:24:12Z</time>
      </trkpt>
      <trkpt lat="44.47768" lon="6.54947">
        <ele>1720</ele>
        <time>2020-02-23T14:24:18Z</time>
      </trkpt>
      <trkpt lat="44.47864" lon="6.54977">
        <ele>1717</ele>
        <time>2020-02-23T14:24:34Z</time>
      </trkpt>
      <trkpt lat="44.4788" lon="6.54984">
        <ele>1717</ele>
        <time>2020-02-23T14:24:44Z</time>
      </trkpt>
      <trkpt lat="44.47881" lon="6.54992">
        <ele>1716</ele>
        <time>2020-02-23T14:24:55Z</time>
      </trkpt>
      <trkpt lat="44.47886" lon="6.54987">
        <ele>1717</ele>
        <time>2020-02-23T14:25:06Z</time>
      </trkpt>
      <trkpt lat="44.47884" lon="6.54986">
        <ele>1715</ele>
        <time>2020-02-23T14:25:18Z</time>
      </trkpt>
      <trkpt lat="44.47895" lon="6.54988">
        <ele>1715</ele>
        <time>2020-02-23T14:25:21Z</time>
      </trkpt>
      <trkpt lat="44.47888" lon="6.54997">
        <ele>1715</ele>
        <time>2020-02-23T14:25:33Z</time>
      </trkpt>
      <trkpt lat="44.47877" lon="6.54993">
        <ele>1715</ele>
        <time>2020-02-23T14:25:35Z</time>
      </trkpt>
      <trkpt lat="44.47877" lon="6.54989">
        <ele>1713</ele>
        <time>2020-02-23T14:25:41Z</time>
      </trkpt>
      <trkpt lat="44.47891" lon="6.54984">
        <ele>1716</ele>
        <time>2020-02-23T14:25:45Z</time>
      </trkpt>
      <trkpt lat="44.47924" lon="6.54979">
        <ele>1719</ele>
        <time>2020-02-23T14:25:57Z</time>
      </trkpt>
      <trkpt lat="44.47936" lon="6.54979">
        <ele>1719</ele>
        <time>2020-02-23T14:26:11Z</time>
      </trkpt>
      <trkpt lat="44.47966" lon="6.54974">
        <ele>1718</ele>
        <time>2020-02-23T14:26:20Z</time>
      </trkpt>
      <trkpt lat="44.47989" lon="6.54987">
        <ele>1717</ele>
        <time>2020-02-23T14:26:24Z</time>
      </trkpt>
      <trkpt lat="44.48008" lon="6.55006">
        <ele>1717</ele>
        <time>2020-02-23T14:26:27Z</time>
      </trkpt>
      <trkpt lat="44.48026" lon="6.55006">
        <ele>1718</ele>
        <time>2020-02-23T14:26:29Z</time>
      </trkpt>
      <trkpt lat="44.48068" lon="6.55009">
        <ele>1712</ele>
        <time>2020-02-23T14:27:01Z</time>
      </trkpt>
      <trkpt lat="44.4808" lon="6.55012">
        <ele>1712</ele>
        <time>2020-02-23T14:27:07Z</time>
      </trkpt>
      <trkpt lat="44.48103" lon="6.55024">
        <ele>1711</ele>
        <time>2020-02-23T14:27:15Z</time>
      </trkpt>
      <trkpt lat="44.48125" lon="6.55023">
        <ele>1711</ele>
        <time>2020-02-23T14:27:21Z</time>
      </trkpt>
      <trkpt lat="44.48132" lon="6.55023">
        <ele>1711</ele>
        <time>2020-02-23T14:27:25Z</time>
      </trkpt>
      <trkpt lat="44.4814" lon="6.55021">
        <ele>1709</ele>
        <time>2020-02-23T14:27:30Z</time>
      </trkpt>
      <trkpt lat="44.48169" lon="6.55031">
        <ele>1707</ele>
        <time>2020-02-23T14:27:43Z</time>
      </trkpt>
      <trkpt lat="44.48177" lon="6.55032">
        <ele>1706</ele>
        <time>2020-02-23T14:27:45Z</time>
      </trkpt>
      <trkpt lat="44.48186" lon="6.55035">
        <ele>1705</ele>
        <time>2020-02-23T14:27:47Z</time>
      </trkpt>
      <trkpt lat="44.48239" lon="6.55041">
        <ele>1701</ele>
        <time>2020-02-23T14:28:18Z</time>
      </trkpt>
      <trkpt lat="44.48244" lon="6.55038">
        <ele>1700</ele>
        <time>2020-02-23T14:28:26Z</time>
      </trkpt>
      <trkpt lat="44.48266" lon="6.55031">
        <ele>1701</ele>
        <time>2020-02-23T14:28:41Z</time>
      </trkpt>
      <trkpt lat="44.4827" lon="6.5503">
        <ele>1701</ele>
        <time>2020-02-23T14:28:44Z</time>
      </trkpt>
      <trkpt lat="44.4828" lon="6.55025">
        <ele>1700</ele>
        <time>2020-02-23T14:28:58Z</time>
      </trkpt>
      <trkpt lat="44.48293" lon="6.55023">
        <ele>1699</ele>
        <time>2020-02-23T14:29:05Z</time>
      </trkpt>
      <trkpt lat="44.483" lon="6.55023">
        <ele>1696</ele>
        <time>2020-02-23T14:29:21Z</time>
      </trkpt>
      <trkpt lat="44.48306" lon="6.55022">
        <ele>1695</ele>
        <time>2020-02-23T14:29:26Z</time>
      </trkpt>
      <trkpt lat="44.48312" lon="6.55025">
        <ele>1697</ele>
        <time>2020-02-23T14:29:36Z</time>
      </trkpt>
      <trkpt lat="44.48318" lon="6.55022">
        <ele>1693</ele>
        <time>2020-02-23T14:29:45Z</time>
      </trkpt>
      <trkpt lat="44.48321" lon="6.55025">
        <ele>1691</ele>
        <time>2020-02-23T14:29:48Z</time>
      </trkpt>
      <trkpt lat="44.48327" lon="6.55028">
        <ele>1690</ele>
        <time>2020-02-23T14:29:51Z</time>
      </trkpt>
      <trkpt lat="44.48383" lon="6.55016">
        <ele>1683</ele>
        <time>2020-02-23T14:30:12Z</time>
      </trkpt>
      <trkpt lat="44.48415" lon="6.55027">
        <ele>1681</ele>
        <time>2020-02-23T14:30:26Z</time>
      </trkpt>
      <trkpt lat="44.4843" lon="6.55026">
        <ele>1681</ele>
        <time>2020-02-23T14:30:31Z</time>
      </trkpt>
    </trkseg>
  </trk>
</gpx>